[[{"header":{"parameterUnit":"m.s-1","parameterCategory":1,"la1":30.6,"la2":28.766,"lo1":-90.7593,"lo2":-88.6598,"dy":0.0162,"dx":0.0183,"nx":116,"ny":114,"refTime":"2024-05-27T12:00:00:Z","depth":0,"parameterNumber":2,"parameterNumberName":"U-component_of_WINDS"},"data":[0.0,0.0,0.0,0.0,0.0,0.0,0.0,0.0,0.0,0.0,0.0,0.0,0.0,0.0,0.0,0.0,0.0,0.0,0.0,0.0,0.0,0.0,0.0,0.0,0.0,0.0,0.0,0.0,0.0,0.0,0.0,0.0,0.0,0.0,0.0,0.0,0.0,0.0,0.0,0.0,0.0,0.0,0.0,0.0,0.0,0.0,0.0,0.0,0.0,0.0,0.0,0.0,0.0,0.0,0.0,0.0,0.0,0.0,0.0,0.0,0.0,0.0,0.0,0.0,0.0,0.0,0.0,0.0,0.0,0.0,0.0,0.0,0.0,0.0,0.0,0.0,0.0,0.0,0.0,0.0,0.0,0.0,0.0,0.0,0.0,0.0,0.0,0.0,0.0,0.0,0.0,0.0,0.0,0.0,0.0,0.0,0.0,0.0,0.0,0.0,0.0,0.0,0.0,0.0,0.0,0.0,0.0,0.0,0.0,0.0,0.0,0.0,0.0,0.0,0.0,0.0,0.0,0.0,0.0,0.0,0.0,0.0,0.0,0.0,0.0,0.0,0.0,0.0,0.0,0.0,0.0,0.0,0.0,0.0,0.0,0.0,0.0,0.0,0.0,0.0,0.0,0.0,0.0,0.0,0.0,0.0,0.0,0.0,0.0,0.0,0.0,0.0,0.0,0.0,0.0,0.0,0.0,0.0,0.0,0.0,0.0,0.0,0.0,0.0,0.0,0.0,0.0,0.0,0.0,0.0,0.0,0.0,0.0,0.0,0.0,0.0,0.0,0.0,0.0,0.0,0.0,0.0,0.0,0.0,0.0,0.0,0.0,0.0,0.0,0.0,0.0,0.0,0.0,0.0,0.0,0.0,0.0,0.0,0.0,0.0,0.0,0.0,0.0,0.0,0.0,0.0,0.0,0.0,0.0,0.0,0.0,0.0,0.0,0.0,0.0,0.0,0.0,0.0,0.0,0.0,0.0,0.0,0.0,0.0,0.0,0.0,0.0,0.0,0.0,0.0,0.0,0.0,0.0,0.0,0.0,0.0,0.0,0.0,0.0,0.0,0.0,0.0,0.0,0.0,0.0,0.0,0.0,0.0,0.0,0.0,0.0,0.0,0.0,0.0,0.0,0.0,0.0,0.0,0.0,0.0,0.0,0.0,0.0,0.0,0.0,0.0,0.0,0.0,0.0,0.0,0.0,0.0,0.0,0.0,0.0,0.0,0.0,0.0,0.0,0.0,0.0,0.0,0.0,0.0,0.0,0.0,0.0,0.0,0.0,0.0,0.0,0.0,0.0,0.0,0.0,0.0,0.0,0.0,0.0,0.0,0.0,0.0,0.0,0.0,0.0,0.0,0.0,0.0,0.0,0.0,0.0,0.0,0.0,0.0,0.0,0.0,0.0,0.0,0.0,0.0,0.0,0.0,0.0,0.0,0.0,0.0,0.0,0.0,0.0,0.0,0.0,0.0,0.0,0.0,0.0,0.0,0.0,0.0,0.0,0.0,0.0,0.0,0.0,0.0,0.0,0.0,0.0,0.0,0.0,0.0,0.0,0.0,0.0,0.0,0.0,0.0,0.0,0.0,0.0,0.0,0.0,0.0,0.0,0.0,0.0,0.0,0.0,0.0,0.0,0.0,0.0,0.0,0.0,0.0,0.0,0.0,0.0,0.0,0.0,0.0,0.0,0.0,0.0,0.0,0.0,0.0,0.0,0.0,0.0,0.0,0.0,0.0,0.0,0.0,0.0,0.0,0.0,0.0,0.0,0.0,0.0,0.0,0.0,0.0,0.0,0.0,0.0,0.0,0.0,0.0,0.0,0.0,0.0,0.0,0.0,0.0,0.0,0.0,0.0,0.0,0.0,0.0,0.0,0.0,0.0,0.0,0.0,0.0,0.0,0.0,0.0,0.0,0.0,0.0,0.0,0.0,0.0,0.0,0.0,0.0,0.0,0.0,0.0,0.0,0.0,0.0,0.0,0.0,0.0,0.0,0.0,0.0,0.0,0.0,0.0,0.0,0.0,0.0,0.0,0.0,0.0,0.0,0.0,0.0,0.0,0.0,0.0,0.0,0.0,0.0,0.0,0.0,0.0,0.0,0.0,0.0,0.0,0.0,0.0,0.0,0.0,0.0,0.0,0.0,0.0,0.0,0.0,0.0,0.0,0.0,0.0,0.0,0.0,0.0,0.0,0.0,0.0,0.0,0.0,0.0,0.0,0.0,0.0,0.0,0.0,0.0,0.0,0.0,0.0,0.0,0.0,0.0,0.0,0.0,0.0,0.0,0.0,0.0,0.0,0.0,0.0,0.0,0.0,0.0,0.0,0.0,0.0,0.0,0.0,0.0,0.0,0.0,0.0,0.0,0.0,0.0,0.0,0.0,0.0,0.0,0.0,0.0,0.0,0.0,0.0,0.0,0.0,0.0,0.0,0.0,0.0,0.0,0.0,0.0,0.0,0.0,0.0,0.0,0.0,0.0,0.0,0.0,0.0,0.0,0.0,0.0,0.0,0.0,0.0,0.0,0.0,0.0,0.0,0.0,0.0,0.0,0.0,0.0,0.0,0.0,0.0,0.0,0.0,0.0,0.0,0.0,0.0,0.0,0.0,0.0,0.0,0.0,0.0,0.0,0.0,0.0,0.0,0.0,0.0,0.0,0.0,0.0,0.0,0.0,0.0,0.0,0.0,0.0,0.0,0.0,0.0,0.0,0.0,0.0,0.0,0.0,0.0,0.0,0.0,0.0,0.0,0.0,0.0,0.0,0.0,0.0,0.0,0.0,0.0,0.0,0.0,0.0,0.0,0.0,0.0,0.0,0.0,0.0,0.0,0.0,0.0,0.0,0.0,0.0,0.0,0.0,0.0,0.0,0.0,0.0,0.0,0.0,0.0,0.0,0.0,0.0,0.0,0.0,0.0,0.0,0.0,0.0,0.0,0.0,0.0,0.0,0.0,0.0,0.0,0.0,0.0,0.0,0.0,0.0,0.0,0.0,0.0,0.0,0.0,0.0,0.0,0.0,0.0,0.0,0.0,0.0,0.0,0.0,0.0,0.0,0.0,0.0,0.0,0.0,0.0,0.0,0.0,0.0,0.0,0.0,0.0,0.0,0.0,0.0,0.0,0.0,0.0,0.0,0.0,0.0,0.0,0.0,0.0,0.0,0.0,0.0,0.0,0.0,0.0,0.0,0.0,0.0,0.0,0.0,0.0,0.0,0.0,0.0,0.0,0.0,0.0,0.0,0.0,0.0,0.0,0.0,0.0,0.0,0.0,0.0,0.0,0.0,0.0,0.0,0.0,0.0,0.0,0.0,0.0,0.0,0.0,0.0,0.0,0.0,0.0,0.0,0.0,0.0,0.0,0.0,0.0,0.0,0.0,0.0,0.0,0.0,0.0,0.0,0.0,0.0,0.0,0.0,0.0,0.0,0.0,0.0,0.0,0.0,0.0,0.0,0.0,0.0,0.0,0.0,0.0,0.0,0.0,0.0,0.0,0.0,0.0,0.0,0.0,0.0,0.0,0.0,0.0,0.0,0.0,0.0,0.0,0.0,0.0,0.0,0.0,0.0,0.0,0.0,0.0,0.0,0.0,0.0,0.0,0.0,0.0,0.0,0.0,0.0,0.0,0.0,0.0,0.0,0.0,0.0,0.0,0.0,0.0,0.0,0.0,0.0,0.0,0.0,0.0,0.0,0.0,0.0,0.0,0.0,0.0,0.0,0.0,0.0,0.0,0.0,0.0,0.0,0.0,0.0,0.0,0.0,0.0,0.0,0.0,0.0,0.0,0.0,0.0,0.0,0.0,0.0,0.0,0.0,0.0,0.0,0.0,0.0,0.0,0.0,0.0,0.0,0.0,0.0,0.0,0.0,0.0,0.0,0.0,0.0,0.0,0.0,0.0,0.0,0.0,0.0,0.0,0.0,0.0,0.0,0.0,0.0,0.0,0.0,0.0,0.0,0.0,0.0,0.0,0.0,0.0,0.0,0.0,0.0,0.0,0.0,0.0,0.0,0.0,0.0,0.0,0.0,0.0,0.0,0.0,0.0,0.0,0.0,0.0,0.0,0.0,0.0,0.0,0.0,0.0,0.0,0.0,0.0,0.0,0.0,0.0,0.0,0.0,0.0,0.0,0.0,0.0,0.0,0.0,0.0,0.0,0.0,0.0,0.0,0.0,0.0,0.0,0.0,0.0,0.0,0.0,0.0,0.0,0.0,0.0,0.0,0.0,0.0,0.0,0.0,0.0,0.0,0.0,0.0,0.0,0.0,0.0,0.0,0.0,0.0,0.0,0.0,0.0,0.0,0.0,0.0,0.0,0.0,0.0,0.0,0.0,0.0,0.0,0.0,0.0,0.0,0.0,0.0,0.0,0.0,0.0,0.0,0.0,0.0,0.0,0.0,0.0,0.0,0.0,0.0,0.0,0.0,0.0,0.0,0.0,0.0,0.0,0.0,0.0,0.0,0.0,0.0,0.0,0.0,0.0,0.0,0.0,0.0,0.0,0.0,0.0,0.0,0.0,0.0,0.0,0.0,0.0,0.0,0.0,0.0,0.0,0.0,0.0,0.0,0.0,0.0,0.0,0.0,0.0,0.0,0.0,0.0,0.0,0.0,0.0,0.0,0.0,0.0,0.0,0.0,0.0,0.0,0.0,0.0,0.0,0.0,0.0,0.0,0.0,0.0,0.0,0.0,0.0,0.0,0.0,0.0,0.0,0.0,0.0,0.0,0.0,0.0,0.0,0.0,0.0,0.0,0.0,0.0,0.0,0.0,0.0,0.0,0.0,0.0,0.0,0.0,0.0,0.0,0.0,0.0,0.0,0.0,0.0,0.0,0.0,0.0,0.0,0.0,0.0,0.0,0.0,0.0,0.0,0.0,0.0,0.0,0.0,0.0,0.0,0.0,0.0,0.0,0.0,0.0,0.0,0.0,0.0,0.0,0.0,0.0,0.0,0.0,0.0,0.0,0.0,0.0,0.0,0.0,0.0,0.0,0.0,0.0,0.0,0.0,0.0,0.0,0.0,0.0,0.0,0.0,0.0,0.0,0.0,0.0,0.0,0.0,0.0,0.0,0.0,0.0,0.0,0.0,0.0,0.0,0.0,0.0,0.0,0.0,0.0,0.0,0.0,0.0,0.0,0.0,0.0,0.0,0.0,0.0,0.0,0.0,0.0,0.0,0.0,0.0,0.0,0.0,0.0,0.0,0.0,0.0,0.0,0.0,0.0,0.0,0.0,0.0,0.0,0.0,0.0,0.0,0.0,0.0,0.0,0.0,0.0,0.0,0.0,0.0,0.0,0.0,0.0,0.0,0.0,0.0,0.0,0.0,0.0,0.0,0.0,0.0,0.0,0.0,0.0,0.0,0.0,0.0,0.0,0.0,0.0,0.0,0.0,0.0,0.0,0.0,0.0,0.0,0.0,0.0,0.0,0.0,0.0,0.0,0.0,0.0,0.0,0.0,0.0,0.0,0.0,0.0,0.0,0.0,0.0,0.0,0.0,0.0,0.0,0.0,0.0,0.0,0.0,0.0,0.0,0.0,0.0,0.0,0.0,0.0,0.0,0.0,0.0,0.0,0.0,0.0,0.0,0.0,0.0,0.0,0.0,0.0,0.0,0.0,0.0,0.0,0.0,0.0,0.0,0.0,0.0,0.0,0.0,0.0,0.0,0.0,0.0,0.0,0.0,0.0,0.0,0.0,0.0,0.0,0.0,0.0,0.0,0.0,0.0,0.0,0.0,0.0,0.0,0.0,0.0,0.0,0.0,0.0,0.0,0.0,0.0,0.0,0.0,0.0,0.0,0.0,0.0,0.0,0.0,0.0,0.0,0.0,0.0,0.0,0.0,0.0,0.0,0.0,0.0,0.0,0.0,0.0,0.0,0.0,0.0,0.0,0.0,0.0,0.0,0.0,0.0,0.0,0.0,0.0,0.0,0.0,0.0,0.0,0.0,0.0,0.0,0.0,0.0,0.0,0.0,0.0,0.0,0.0,0.0,0.0,0.0,0.0,0.0,0.0,0.0,0.0,0.0,0.0,0.0,0.0,0.0,0.0,0.0,0.0,0.0,0.0,0.0,0.0,0.0,0.0,0.0,0.0,0.0,0.0,-4.347,-4.2692,0.0,0.0,0.0,0.0,0.0,0.0,0.0,0.0,0.0,0.0,0.0,0.0,0.0,0.0,0.0,0.0,0.0,0.0,0.0,0.0,0.0,0.0,0.0,0.4508,0.4491,0.4522,0.5887,0.6742,0.6707,0.0,0.0,0.0,0.0,0.0,0.6533,0.4484,0.0776,-0.4494,-0.2939,-0.6248,-1.4014,-1.358,-1.3375,-1.3362,0.0,0.0,0.0,0.0,0.0,0.0,0.0,0.0,0.0,0.0,0.0,0.0,0.0,0.0,0.0,0.0,0.0,0.0,0.0,0.0,0.0,0.0,0.0,0.0,0.0,0.0,0.0,0.0,0.0,0.0,0.0,0.0,0.0,0.0,0.0,0.0,0.0,0.0,0.0,0.0,0.0,0.0,0.0,0.0,0.0,0.0,0.0,0.0,0.0,0.0,0.0,0.0,0.0,0.0,0.0,0.0,0.0,0.0,0.0,0.0,0.0,0.0,0.0,0.0,0.0,0.0,0.0,0.0,0.0,0.0,-4.5551,-4.4823,0.0,0.0,0.0,0.0,0.0,0.0,0.0,0.0,0.0,0.0,0.0,0.0,0.0,0.0,0.0,0.0,0.0,0.0,0.0,0.0,0.0,0.4134,0.4488,0.4012,0.3938,0.446,0.3523,0.313,0.3704,0.3715,0.0,0.0,0.0,0.5635,0.8001,0.447,-0.022,-0.5981,-0.6011,-1.0891,-2.0133,-1.9148,-1.728,-1.4787,-1.3662,0.0,0.0,0.0,0.0,0.0,0.0,0.0,0.0,0.0,0.0,0.0,0.0,0.0,0.0,0.0,0.0,0.0,0.0,0.0,0.0,0.0,0.0,0.0,0.0,0.0,0.0,0.0,0.0,0.0,0.0,0.0,0.0,0.0,0.0,0.0,0.0,0.0,0.0,0.0,0.0,0.0,0.0,0.0,0.0,0.0,0.0,0.0,0.0,0.0,0.0,0.0,0.0,0.0,0.0,0.0,0.0,0.0,0.0,0.0,0.0,0.0,0.0,0.0,-4.5534,-4.6058,-4.7378,-4.7513,-4.7902,-4.846,-4.797,-4.753,-4.7175,-4.7175,0.0,0.0,0.0,0.0,0.0,0.0,0.0,0.0,0.0,0.0,0.0,0.0,0.0,0.0,0.0,0.0,0.0,0.0,0.0,0.4138,0.4443,0.2148,0.1636,0.4254,-0.0271,-0.2223,0.043,0.0597,0.0,0.0,0.3113,0.4653,0.5079,0.447,-0.1033,-1.1798,-1.2086,-1.5555,-2.1918,-2.0707,-1.9411,-1.8074,-1.6034,-1.4517,-1.3412,0.0,0.0,0.0,0.0,0.0,0.0,0.0,0.0,0.0,0.0,0.0,0.0,0.0,0.0,0.0,0.0,0.0,0.0,0.0,0.0,0.0,0.0,0.0,0.0,0.0,0.0,0.0,0.0,0.0,0.0,0.0,0.0,0.0,0.0,0.0,0.0,0.0,0.0,0.0,0.0,0.0,-3.2201,-3.5912,0.0,0.0,0.0,0.0,0.0,0.0,0.0,0.0,0.0,0.0,0.0,0.0,0.0,-4.3512,-4.4418,-4.5077,-4.5821,-4.6667,-4.7851,-4.8849,-4.9678,-5.0338,-5.0693,-5.0811,-5.1336,0.0,-4.8714,-4.8714,0.0,0.0,0.0,0.0,0.0,0.0,0.0,0.0,0.0,0.0,0.0,0.0,0.0,0.0,0.0,0.0,0.0,0.0,0.0,0.0,0.0,-0.0973,-0.2283,0.0517,-0.5345,-0.7998,-0.514,-0.3426,-0.2525,-0.2516,0.0384,0.2773,0.4435,0.4484,-0.1856,-1.4926,-1.7598,-2.0081,-2.228,-2.1645,-2.0719,-1.9516,-1.8327,-1.684,-1.5149,-1.4345,0.0,0.0,0.0,0.0,0.0,0.0,0.0,0.0,0.0,0.0,0.0,0.0,0.0,0.0,0.0,0.0,0.0,0.0,0.0,0.0,0.0,0.0,0.0,0.0,0.0,0.0,0.0,0.0,0.0,0.0,0.0,0.0,0.0,0.0,0.0,0.0,0.0,0.0,0.0,-3.2059,-3.5328,-3.777,-3.8405,-3.8757,0.0,0.0,0.0,0.0,0.0,0.0,0.0,0.0,0.0,-4.4654,-4.4705,-4.5466,-4.7056,-4.7394,-4.8139,-4.9289,-4.9932,-5.0422,-5.0744,-5.1488,-5.1826,-5.186,-5.2638,-5.2418,-5.1471,-5.0591,-4.9813,-4.9007,0.0,0.0,0.0,0.0,-4.7808,-4.7504,0.0,0.0,0.0,0.0,0.0,0.0,0.0,0.0,0.0,0.0,0.0,0.0,-0.0053,-0.4362,-0.6695,-0.5942,-1.0381,-1.2541,-1.0867,-0.82,-0.6348,-0.564,-0.2722,-0.0109,0.2153,0.0784,-0.5888,-1.7995,-2.1664,-2.3152,-2.2529,-2.2332,-2.1645,-2.0555,-2.0116,-1.8875,-1.6931,-1.5835,-1.4528,0.0,0.0,0.0,0.0,0.0,0.0,0.0,0.0,0.0,0.0,0.0,0.0,0.0,0.0,0.0,0.0,0.0,0.0,0.0,0.0,0.0,0.0,0.0,0.0,0.0,0.0,0.0,0.0,0.0,0.0,0.0,0.0,0.0,0.0,0.0,0.0,0.0,0.0,-3.5344,-3.7569,-3.9108,-4.0124,-4.0614,0.0,0.0,0.0,0.0,0.0,0.0,-4.3639,-4.391,-4.479,-4.6498,-4.6549,-4.753,-4.9543,-4.956,-5.0219,-5.1488,-5.1488,-5.1606,-5.1826,-5.2367,-5.2604,-5.2638,-5.3247,-5.3501,-5.3399,-5.2046,-5.1166,-5.0574,-4.9847,-4.956,-4.9644,-5.0185,-5.0152,-4.9873,0.0,0.0,0.0,0.0,0.0,0.0,0.0,0.0,0.0,0.0,0.0,-0.0302,-0.4365,-0.7727,-1.1323,-1.5441,-1.4812,-1.4788,-1.6013,-1.3838,-1.1319,-0.867,-0.5833,-0.422,-0.4044,-0.9291,-1.5318,-2.1988,-2.3448,-2.3813,-2.3154,-2.2816,-2.2252,-2.1521,-2.1118,-2.01,-1.8589,-1.7014,-1.5568,-1.4326,0.0,0.0,0.0,0.0,0.0,0.0,0.0,0.0,0.0,0.0,0.0,0.0,0.0,0.0,0.0,0.0,0.0,0.0,0.0,0.0,0.0,0.0,0.0,0.0,0.0,0.0,0.0,0.0,0.0,0.0,0.0,0.0,0.0,0.0,0.0,0.0,0.0,0.0,0.0,-3.9885,-4.0104,0.0,0.0,0.0,0.0,-4.2185,-4.2895,-4.3673,-4.4468,-4.5196,-4.6583,-4.8765,-4.8832,-4.956,-5.1082,-5.1099,-5.1488,-5.2249,-5.2249,-5.2638,-5.3399,-5.3433,-5.345,-5.345,-5.3484,-5.3501,-5.3433,-5.2587,-5.2232,-5.2114,-5.1386,-5.1099,-5.1116,-5.115,-5.1572,-5.2147,0.0,0.0,0.0,0.0,0.0,0.4138,0.4427,0.4872,0.5027,0.4655,0.1329,-0.2901,-0.7843,-1.2432,-1.5323,-1.5827,-1.6925,-1.6612,-1.4339,-1.3398,-1.2472,-1.1506,-0.696,-0.6191,-0.9826,-1.4743,-1.9317,-2.352,-2.3545,-2.3441,-2.318,-2.2868,-2.2324,-2.1582,-2.1181,-2.0385,-1.9214,-1.8011,-1.657,-1.5058,-1.3861,-1.2211,0.0,0.0,0.0,0.0,0.0,0.0,0.0,0.0,0.0,0.0,0.0,0.0,0.0,0.0,0.0,0.0,0.0,0.0,0.0,0.0,0.0,0.0,0.0,0.0,0.0,0.0,0.0,0.0,0.0,0.0,0.0,0.0,0.0,0.0,0.0,0.0,0.0,-4.0646,-4.1169,0.0,-4.1882,-4.2354,-4.2946,-4.3707,-4.3889,-4.4766,-4.6608,-4.6876,-4.7768,-4.9661,-5.0168,-5.0913,-5.1911,-5.1911,-5.23,-5.3078,-5.3078,-5.323,-5.3501,-5.3501,-5.3501,-5.3501,-5.3501,-5.3501,-5.3484,-5.3196,-5.3078,-5.3061,-5.279,-5.2689,-5.2689,-5.2689,-5.2858,-5.2994,0.0,0.0,0.0,0.0,0.3656,0.3844,0.4182,0.4824,0.4916,0.4025,-0.0153,-0.4779,-0.9399,-1.4812,-1.7574,-1.6392,-1.8416,-1.8454,-1.5394,-1.3762,-1.2474,-1.1567,-0.8834,-0.9801,-1.5089,-1.8717,-2.1559,-2.3553,-2.3248,-2.2936,-2.259,-2.2512,-2.1995,-2.1117,-2.0716,-2.0097,-1.9251,-1.8051,-1.6722,-1.5428,-1.4578,-1.2871,-1.0736,0.0,0.0,0.0,0.0,0.0,0.0,0.0,0.0,0.0,0.0,0.0,0.0,0.0,0.0,0.0,0.0,0.0,0.0,0.0,0.0,0.0,0.0,0.0,0.0,0.0,0.0,0.0,0.0,0.0,0.0,0.0,0.0,0.0,0.0,-3.8908,-4.0002,-4.1068,-4.1801,-4.2398,-4.3017,-4.3521,-4.4103,-4.4792,-4.497,-4.5835,-4.7725,-4.7917,-4.8829,-5.0794,-5.1319,-5.1944,-5.2706,-5.2706,-5.2976,-5.3501,-5.3501,-5.3501,-5.3501,-5.3501,-5.3501,-5.3501,-5.3501,-5.3501,-5.3501,-5.3501,-5.3501,-5.3501,-5.3501,-5.3501,-5.3501,-5.3501,-5.3501,-5.3416,0.0,0.0,0.0,0.3581,0.3588,0.396,0.4942,0.505,0.4611,0.3374,-0.1525,-0.6121,-0.9274,-1.4774,-1.812,-1.7825,-1.9294,-2.0046,-1.9505,-1.5262,-1.1563,-0.8926,-1.1513,-1.5131,-1.9612,-2.1432,-2.2274,-2.2226,-2.2641,-2.2356,-2.1379,-2.1844,-2.139,-2.0172,-1.9768,-1.9266,-1.8627,-1.7055,-1.6009,-1.5463,-1.5321,-1.3481,-1.0904,0.0,0.0,0.0,0.0,0.0,0.0,0.0,0.0,0.0,0.0,0.0,0.0,0.0,0.0,0.0,0.0,0.0,0.0,0.0,0.0,0.0,0.0,0.0,0.0,0.0,0.0,0.0,0.0,0.0,0.0,0.0,0.0,0.0,-3.8074,-3.9897,-4.1221,-4.1271,-4.1914,-4.2963,-4.4468,-4.4654,-4.4884,-4.5365,-4.6108,-4.6832,-4.7589,-4.8347,-4.9825,-5.2266,-5.2317,-5.2706,-5.3501,-5.3501,-5.3501,-5.3501,-5.3501,-5.3501,-5.3501,-5.3501,-5.3501,-5.3501,-5.3501,-5.3501,-5.3501,-5.3501,-5.3501,-5.3501,-5.3501,-5.3501,-5.3501,-5.3501,-5.3501,-5.3501,0.0,0.0,0.3581,0.3581,0.3758,0.3973,0.4253,0.451,0.374,0.1257,-0.3909,-0.9144,-1.3883,-1.6976,-1.8462,-1.7858,-1.7232,-1.6299,-1.4923,-1.1782,-0.9593,-0.8841,-1.3099,-1.6841,-1.9634,-2.1397,-2.1663,-2.0424,-2.1354,-2.1466,-2.0826,-2.0735,-2.0374,-1.9733,-1.9236,-1.8282,-1.7014,-1.6579,-1.5584,-1.4261,-1.4226,-1.3017,-1.1181,0.0,0.0,0.0,0.0,0.0,0.0,0.0,0.0,0.0,0.0,0.0,0.0,0.0,0.0,0.0,0.0,0.0,0.0,0.0,0.0,0.0,0.0,0.0,0.0,0.0,0.0,0.0,0.0,0.0,0.0,0.0,-3.6869,-3.8546,-4.01,-4.083,-4.161,-4.2692,-4.3487,-4.4333,-4.5297,-4.5761,-4.6016,-4.6205,-4.6757,-4.7468,-4.838,-4.9618,-5.0907,-5.2283,-5.2875,-5.3281,-5.3501,-5.3501,-5.3501,-5.3501,-5.3501,-5.3501,-5.3501,-5.3501,-5.3501,-5.3501,-5.3501,-5.3501,-5.3501,-5.3501,-5.3501,-5.3501,-5.3501,-5.3501,-5.3501,-5.3501,-5.3501,-5.3501,0.0,0.3581,0.3598,0.3656,0.3812,0.3968,0.4043,0.4267,0.3106,-0.0435,-0.5145,-0.9883,-1.4325,-1.6915,-1.7805,-1.638,-1.5153,-1.4185,-1.3582,-0.9432,-0.8039,-1.041,-1.5227,-1.8398,-1.9662,-2.1041,-2.1279,-2.0239,-2.067,-2.0655,-2.0177,-1.9797,-1.9119,-1.8229,-1.7917,-1.6988,-1.5652,-1.5116,-1.4299,-1.3321,-1.2783,-1.1941,-1.1116,-1.1096,-1.0409,-0.9312,-0.9203,-0.9183,-0.9128,-0.8732,0.0,0.0,0.0,0.0,0.0,0.0,0.0,0.0,0.0,0.0,0.0,0.0,0.0,0.0,0.0,0.0,0.0,0.0,0.0,0.0,0.0,0.0,0.0,0.0,-3.817,-3.9878,-4.1439,-4.166,-4.21,-4.3284,-4.4068,-4.4741,-4.5494,-4.5795,-4.5953,-4.6175,-4.6853,-4.779,-4.8958,-5.0199,-5.1472,-5.279,-5.3264,-5.3501,-5.3501,-5.3501,-5.3501,-5.3501,-5.3501,-5.3501,-5.3501,-5.3501,-5.3501,-5.3501,-5.3501,-5.3501,-5.3501,-5.3501,-5.3501,-5.3501,0.0,0.0,0.0,0.0,-5.3501,-5.3501,0.0,0.3615,0.367,0.3795,0.3832,0.3934,0.4153,0.4217,0.2726,-0.1558,-0.5515,-0.9077,-1.2204,-1.5367,-1.6384,-1.4266,-1.3361,-1.323,0.0,0.0,-0.7473,-1.3077,-1.7427,-1.9686,-1.9705,-2.0338,-2.067,-2.0685,-2.0175,-1.9728,-1.9287,-1.8636,-1.7558,-1.6182,-1.604,-1.5395,-1.4307,-1.309,-1.2512,-1.2318,-1.099,-1.0576,-1.0748,-1.0722,-0.9909,-0.877,-0.8938,-0.8981,-0.9,-0.9118,0.0,0.0,0.0,0.0,0.0,0.0,0.0,0.0,0.0,0.0,0.0,0.0,0.0,0.0,0.0,0.0,0.0,0.0,0.0,0.0,0.0,0.0,0.0,0.0,-3.9792,-4.1491,-4.2303,-4.2368,-4.2584,-4.3453,-4.4055,-4.4677,-4.5318,-4.5285,-4.5333,-4.5817,-4.6951,-4.8159,-4.947,-5.0582,0.0,0.0,0.0,-5.3501,-5.3501,-5.3501,-5.3501,-5.3501,-5.3501,-5.3501,-5.3501,-5.3501,-5.3501,-5.3501,-5.3501,-5.3501,-5.3501,-5.3501,-5.3501,-5.3501,-5.3501,-5.3501,-5.3501,-5.3501,-5.3501,-5.3501,0.0,0.3849,0.3944,0.3972,0.4026,0.4127,0.4187,0.4358,0.2857,-0.1625,-0.516,-0.8385,-1.1324,-1.3698,-1.4774,-1.3925,-1.2805,-1.2428,0.0,0.0,-1.033,-1.559,-1.8312,-1.9684,-1.9678,-1.9001,-1.868,-1.8659,-1.8384,-1.8065,-1.7638,-1.6063,-1.5154,-1.4834,-1.3868,-1.301,-1.2241,-1.146,-1.0814,-1.0183,-0.8802,-0.9077,-1.0325,-0.9776,-0.9134,-0.8552,-0.7767,-0.76,-0.7757,-0.8469,-0.8679,-0.9023,-1.0984,0.0,0.0,0.0,0.0,0.0,0.0,0.0,0.0,0.0,0.0,0.0,0.0,0.0,0.0,0.0,0.0,0.0,0.0,0.0,0.0,-3.777,-3.9757,-4.1677,-4.3014,-4.2652,-4.2748,-4.4193,-4.488,-4.522,-4.5368,-4.5531,-4.6006,-4.6923,-4.8195,-4.9466,-5.0555,-5.2163,-5.318,-5.3501,-5.3501,-5.3501,-5.3501,-5.3501,-5.3501,-5.3501,-5.3501,0.0,-5.3501,-5.3501,-5.3501,-5.3501,-5.3501,-5.3501,-5.3501,-5.3501,-5.3501,-5.3501,-5.3501,-5.3501,-5.3501,-5.3501,-5.3501,-5.3501,0.4019,0.3973,0.3999,0.407,0.415,0.4227,0.4351,0.4436,0.3442,0.038,-0.466,-0.9026,-1.1855,-1.371,-1.3458,-1.0224,-0.8566,0.0,0.0,-0.6981,-0.8464,-1.2474,-1.4935,-1.6785,-1.8085,-1.6217,-1.5295,-1.5414,-1.5573,-1.5367,-1.476,-1.3591,-1.2681,-1.1996,-1.1403,-1.0806,-1.016,-0.9857,-0.9488,-0.9086,-0.7641,-0.762,-0.8396,-0.8051,-0.7755,-0.7537,-0.7141,-0.7107,-0.7364,-0.7908,-0.8398,-0.9094,-1.0657,-1.1645,-1.2474,0.0,0.0,0.0,0.0,0.0,0.0,0.0,0.0,0.0,0.0,0.0,0.0,0.0,0.0,-3.3158,-3.3799,0.0,-3.7417,-3.8211,-3.9877,-4.1305,-4.2045,-4.2125,-4.2692,-4.4264,-4.4187,-4.417,-4.4521,-4.484,-4.554,-4.7,-4.8509,-4.9992,-5.1328,-5.2738,-5.3501,-5.3501,-5.3501,-5.3501,-5.3501,-5.3501,-5.3501,-5.3501,-5.3501,-5.3501,-5.3501,-5.3501,-5.3501,-5.3501,-5.3501,-5.3501,-5.3501,-5.3501,-5.3501,-5.3501,-5.3501,-5.3501,-5.3501,-5.3501,-5.3501,-5.3501,0.4234,0.4147,0.4055,0.4217,0.4244,0.4287,0.4457,0.4314,0.3671,0.2179,-0.3448,-0.8228,-1.0609,-1.1912,-1.0411,-0.4994,0.0,0.0,0.0,-0.1207,-0.3222,-0.6076,-0.9875,-1.2886,-1.4983,-1.2569,-1.1488,-1.1957,-1.2682,-1.2862,-1.2454,-1.147,-1.0456,-0.9416,-0.9139,-0.8456,-0.757,-0.757,-0.7413,-0.7052,-0.5795,-0.527,-0.5242,-0.523,-0.5813,-0.6579,-0.6445,-0.659,-0.6856,-0.6993,-0.7706,-0.8731,-0.9926,-1.0878,-1.1956,-1.3962,-1.4729,0.0,0.0,0.0,0.0,0.0,0.0,0.0,0.0,-3.028,-3.1387,-3.2028,-3.3528,-3.4949,-3.5631,-3.677,-3.7888,-3.8851,-4.0052,-4.0959,-4.1087,-4.1581,-4.2461,-4.3847,-4.3232,-4.3004,-4.3809,-4.4462,-4.5529,-4.7247,-4.8907,-5.0538,-5.2137,-5.3025,-5.3501,-5.3501,-5.3501,-5.3501,-5.3501,-5.3501,-5.3501,-5.3501,-5.3501,-5.3501,-5.3501,-5.3501,-5.3501,-5.3501,-5.3501,-5.3501,-5.3501,-5.3501,-5.3501,-5.3501,-5.3501,-5.3501,-5.3501,-5.3501,-5.3501,-5.3501,0.0,0.444,0.4433,0.4436,0.444,0.4501,0.4519,0.3735,0.2715,0.1475,-0.0702,-0.254,-0.3562,-0.3889,-0.2668,0.0863,0.0,0.0,0.7384,0.7412,0.6007,0.3163,-0.4857,-0.938,-0.9681,-0.8068,-0.7915,-0.9253,-1.0764,-1.1953,-1.26,-1.015,-0.8957,-0.8745,-0.7521,-0.5649,-0.3528,-0.3558,-0.2841,-0.1712,-0.0861,-0.0469,-0.0361,-0.0361,-0.2967,-0.6423,-0.5182,-0.4932,-0.5207,-0.531,-0.5585,-0.6244,-0.8667,-1.0009,-1.0982,-1.2651,0.0,-1.5808,-1.7502,-2.0164,-2.321,-2.618,-2.7987,-2.9709,0.0,-3.3526,-3.4196,-3.4882,-3.5215,-3.5564,-3.628,-3.7067,-3.8025,-3.938,-4.0356,-4.1118,-4.1789,-4.1783,-4.2023,-4.2762,-4.2776,-4.3174,-4.4353,-4.5804,-4.7278,-4.8998,-5.0693,-5.2142,-5.3264,-5.3416,-5.3501,-5.3501,-5.3501,-5.3501,-5.3501,-5.3501,-5.3501,-5.3501,-5.3501,-5.3501,-5.3501,-5.3501,-5.3501,-5.3501,-5.3501,-5.3501,-5.3501,-5.3501,-5.3501,-5.3501,-5.3501,-5.3501,-5.3501,-5.3501,-5.3501,-5.3501,0.0,0.4473,0.4522,0.4519,0.4522,0.4473,0.4473,0.4141,0.3685,0.3164,0.2487,0.1971,0.1612,0.1498,0.2035,0.3353,0.0,0.0,0.9595,1.1911,1.1652,0.8304,0.1964,-0.2413,-0.4437,-0.3788,-0.3499,-0.3675,-0.523,-0.5986,-0.5903,-0.4721,-0.3649,-0.2745,-0.2058,-0.092,0.0572,0.0747,0.116,0.1821,0.3918,0.4148,0.3287,0.3287,0.2096,0.0177,-0.1276,-0.1799,0.0,0.0,-0.3209,-0.4888,-0.6444,-0.8286,-1.0155,-1.208,-1.3453,0.0,-1.8235,-2.1498,-2.4538,-2.6763,-2.8246,-2.9813,-3.2125,-3.2486,-3.262,-3.3622,-3.3837,-3.4023,-3.4582,-3.5293,-3.6222,-3.7742,-3.8642,-3.9425,-4.0332,-4.0781,-4.1195,-4.1847,-4.2759,-4.3867,-4.5215,-4.6315,-4.782,-5.0075,-5.1261,-5.24,-5.3433,-5.3501,-5.3501,-5.3501,-5.3501,-5.3501,-5.3501,-5.3501,-5.3501,-5.3501,-5.3501,-5.3501,-5.3501,-5.3501,-5.3501,-5.3501,-5.3501,-5.3501,-5.3501,-5.3501,-5.3501,-5.3501,-5.3501,-5.3501,-5.3501,-5.3501,-5.3501,-5.3501,0.0,0.4525,0.4519,0.4519,0.4473,0.448,0.448,0.449,0.4379,0.4147,0.4327,0.4501,0.4487,0.4484,0.4588,0.4746,0.5885,0.0,0.0,1.4369,1.4676,1.2456,0.8222,0.4515,0.144,0.1002,0.1184,0.2078,0.0274,-0.0,0.1289,0.1379,0.2093,0.3329,0.4352,0.4862,0.5015,0.527,0.5348,0.5501,0.7325,0.7481,0.6502,0.6021,0.5856,0.549,0.2603,0.1971,0.0,0.0,-0.0197,-0.243,-0.4053,-0.6698,-0.9526,-1.146,-1.3204,-1.5405,-1.91,-2.2277,-2.4948,-2.6559,-2.7968,-2.9511,-3.1324,-3.1405,-3.135,-3.2386,-3.2593,-3.2842,-3.3528,-3.4098,-3.4877,-3.6354,-3.703,-3.781,-3.9033,-3.9847,-4.0726,-4.1912,-4.3282,-4.4861,-4.6819,-4.7387,-4.8653,-5.1032,-5.1926,-5.2714,-5.3433,-5.3501,-5.3501,-5.3501,-5.3501,-5.3501,-5.3501,-5.3501,-5.3501,-5.3501,-5.3501,-5.3501,-5.3501,-5.3501,-5.3501,-5.3501,-5.3195,-5.3041,-5.3041,-5.2731,-5.2644,-5.2644,-5.2956,-5.3041,-5.311,-5.3416,-5.3501,-5.3501,0.0,0.0,0.4519,0.4519,0.4473,0.448,0.448,0.449,0.415,0.3176,0.391,0.4477,0.4519,0.4473,0.4746,0.5433,0.6149,0.946,1.6271,1.4977,1.4663,1.6275,1.3081,1.034,0.8435,0.6473,0.6067,0.7277,0.4625,0.4674,0.726,0.7265,0.7459,0.7969,1.1182,1.1643,0.9986,0.9993,1.0003,0.9914,0.8702,0.869,0.9262,0.7644,0.703,0.6886,0.5592,0.0,0.0,0.5625,0.3886,0.1782,-0.1693,-0.5578,0.0,-1.0529,-1.386,-1.7591,-1.9953,-2.2175,-2.4165,-2.5726,-2.7547,-2.932,-3.0588,-3.1322,-3.1917,-3.2469,-3.2593,-3.2966,-3.4154,-3.4389,-3.4789,-3.6055,-3.6263,-3.6814,-3.8572,-3.9376,-4.0768,-4.3414,-4.4347,-4.6082,-4.9358,-4.973,-5.034,-5.1773,-5.2853,-5.3433,-5.3501,-5.3501,-5.3501,-5.3501,-5.3501,-5.3501,-5.3501,-5.3501,-5.3501,-5.3501,-5.3501,-5.3501,-5.3501,-5.3501,-5.3501,-5.3433,-5.24,-5.1921,-5.1849,-5.0871,-5.0474,-5.055,-5.1541,-5.1921,-5.2065,-5.311,-5.3501,-5.3501,0.0,0.0,0.0,0.4473,0.4484,0.4147,0.3128,0.3814,0.4157,0.3121,0.3904,0.0,0.0,0.0,0.0,0.0,0.4471,0.6962,1.1186,1.3921,1.5787,1.6782,1.7191,1.6483,1.444,1.2483,1.1318,1.1011,0.886,0.8258,0.9183,0.9494,1.0052,1.0784,1.2296,1.2957,1.2901,1.2901,1.2683,1.2211,1.1588,1.1249,1.1112,1.0387,0.9591,0.8931,0.0,0.0,0.0,0.675,0.4832,0.2507,-0.1432,0.0,-0.9285,-1.2043,-1.3968,-1.5946,-1.8934,-2.0694,-2.2297,-2.4942,-2.7033,-2.8641,-2.963,-2.961,-2.937,-2.9568,-2.9591,-2.9817,-3.0637,-3.109,-3.2069,-3.422,-3.5896,-3.7302,-3.8658,-4.0887,-4.2801,-4.3712,-4.5889,-4.8217,-5.0408,-5.0091,-5.0859,-5.3477,-5.3533,-5.3717,-5.4218,-5.3783,-5.3501,-5.3501,-5.3501,-5.3501,-5.3501,-5.3501,-5.3501,-5.3501,-5.3501,-5.3501,-5.3501,-5.3501,-5.311,-5.24,-5.2082,-5.1541,-5.0855,-5.055,-5.0397,-5.0474,-5.1541,-5.1921,-5.1993,-5.311,-5.3501,-5.3501,0.0,0.0,0.0,0.0,0.0,0.0,0.0,0.0,0.0,0.0,0.0,0.0,0.0,0.0,0.0,0.0,0.0,0.4134,0.0,0.0,1.5672,1.9476,1.9446,1.9002,1.8299,1.6158,1.487,1.4542,1.2811,1.2135,1.2455,1.2512,1.2813,1.3385,1.3728,1.4408,1.5221,1.5221,1.529,1.5362,1.4712,1.4262,1.3805,1.2969,1.2027,0.0,0.0,0.0,0.0,0.8429,0.6032,0.2765,-0.148,-0.6308,-1.0963,-1.38,-1.5006,-1.6098,-1.8994,-2.0605,-2.2067,-2.4376,-2.6125,-2.7486,-2.8646,-2.8205,-2.7641,-2.804,-2.7775,-2.7685,-2.8197,-2.9142,-3.0577,-3.2813,-3.5453,-3.7765,-3.9459,-4.2233,-4.4448,-4.541,-4.7886,-5.0084,-5.1701,-5.1674,-5.2392,-5.4423,-5.4154,-5.3994,-5.4218,-5.3783,-5.3501,-5.3501,-5.3501,-5.3501,-5.3501,-5.3501,-5.3501,-5.3501,-5.3501,-5.3501,-5.3501,-5.3501,-5.2939,-5.1921,-5.1541,-5.0779,-4.9773,-4.9472,-4.9327,-4.9392,-5.0855,-5.1394,-5.1541,-5.2956,-5.3501,-5.3501,0.0,0.0,0.0,0.0,0.0,0.0,0.0,0.0,0.0,0.0,0.0,0.0,0.0,0.0,0.0,0.0,0.0,0.0,0.0,0.0,0.0,2.3291,1.9782,1.8343,1.9963,1.7644,1.6802,1.7656,1.6283,1.6077,1.6888,1.6103,1.5761,1.5834,1.579,1.6246,1.6964,1.6964,1.7863,1.9197,1.7861,1.7317,1.706,1.5361,0.0,0.0,0.0,0.0,0.0,1.0301,0.6902,0.2031,-0.2579,-0.8425,-1.3926,-1.5662,-1.6995,-1.8328,-2.037,-2.2233,-2.3666,-2.4213,-2.5026,-2.6118,-2.772,-2.7335,-2.6871,-2.7802,-2.7209,-2.6617,-2.7172,-2.8626,-3.0314,-3.2092,-3.5144,-3.8197,-4.0965,-4.3396,-4.58,-4.8405,-5.0101,-5.1664,-5.3369,-5.4258,-5.4701,-5.4704,-5.4651,-5.4328,-5.3685,-5.3568,-5.3501,-5.3501,-5.3501,-5.3501,-5.3501,-5.3501,-5.3501,-5.3501,-5.3501,-5.3501,-5.3501,-5.3433,-5.287,-5.176,-5.0779,-4.9694,-4.8677,-4.7679,-4.7309,-4.7624,-4.9631,-5.0397,-5.0719,-5.2731,-5.3501,-5.3501,0.0,0.0,0.0,0.0,0.0,0.0,0.0,0.0,0.0,0.0,0.0,0.0,0.0,0.0,0.0,0.0,0.0,0.0,0.0,0.0,0.0,0.0,0.0,1.9993,1.9656,1.8691,0.0,0.0,0.0,1.6417,1.7298,1.7688,1.8186,1.8814,1.9126,1.9415,1.9606,1.9606,1.9598,1.9386,0.0,1.7871,1.7801,0.0,0.0,0.0,0.0,0.0,0.0,0.0,0.0,0.0,0.0,-1.5672,-1.5099,-1.674,-1.9333,-2.2312,-2.5067,-2.7569,-2.887,-2.6674,-2.6807,-2.7538,-2.7986,-2.7877,-2.7566,-2.7002,-2.6719,-2.6517,-2.664,-2.7708,-2.9893,-3.3949,-3.7544,-4.0738,-4.3434,-4.6477,-4.8915,-5.0159,-5.1791,-5.3406,-5.5035,-5.5843,-5.633,-5.6313,-5.5238,-5.4757,-5.5102,-5.4124,-5.3501,-5.3501,-5.3501,-5.3501,-5.3501,-5.3501,-5.3501,-5.3501,-5.3501,-5.3501,-5.3501,-5.2627,-5.1776,-5.0703,-4.9694,-4.861,-4.7694,-4.7381,-4.7764,-4.8527,-4.9852,-5.0855,-5.1704,-5.3025,-5.3501,-5.3501,0.0,0.0,0.0,0.0,0.0,0.0,0.0,0.0,0.0,0.0,0.0,0.0,0.0,0.0,0.0,0.0,0.0,0.0,0.0,0.0,0.0,0.0,0.0,1.6315,1.7396,1.7255,1.741,0.0,0.0,0.0,0.0,1.6306,1.6424,1.685,1.6728,1.6938,1.7346,1.78,0.0,0.0,0.0,0.0,0.0,0.0,0.0,0.0,0.0,0.0,0.0,0.0,0.0,-1.5885,-1.9425,-1.9806,-1.9095,-2.0016,0.0,-2.5445,-2.713,-2.9116,-3.0216,-2.8278,-2.7651,-2.7657,-2.8045,-2.773,-2.7327,-2.7243,-2.6801,-2.6483,-2.6483,-2.8147,-3.0783,-3.4754,-3.9101,-4.3031,-4.5864,-4.9175,-5.1545,-5.2192,-5.3835,-5.5248,-5.6164,-5.6928,-5.7401,-5.7401,-5.5948,-5.5084,-5.5203,-5.4106,-5.3501,-5.3501,-5.3501,-5.3501,-5.3501,-5.3501,-5.3501,-5.3501,-5.3501,-5.3501,-5.3501,-5.287,-5.1793,-5.0413,-4.9773,-4.8692,-4.7309,-4.7309,-4.7919,-4.8907,-5.0009,-5.1005,-5.1993,-5.311,-5.3501,-5.3501,0.0,0.0,0.0,0.0,0.0,0.0,0.0,0.0,0.0,0.0,0.139,0.0,0.0,0.0,0.0,0.0,0.0,0.0,0.0,0.0,0.0,0.0,0.0,1.0107,1.369,1.4214,1.5144,0.0,0.0,0.0,0.0,0.0,0.0,0.0,0.0,0.0,0.0,0.0,0.0,0.0,0.0,0.0,0.0,0.0,0.0,0.0,0.0,0.0,0.0,0.0,-2.0682,-2.1614,-2.0974,-2.2407,-2.4336,-2.444,-2.6168,-2.8091,-2.8094,-2.8829,-2.9493,-2.9059,-2.8092,-2.7446,-2.7961,-2.7471,-2.7031,-2.7894,-2.7371,-2.6719,-2.6719,-2.9253,-3.2291,-3.5316,-4.0355,-4.5016,-4.8349,-5.1479,-5.3653,-5.4301,-5.5812,-5.684,-5.695,-5.7593,-5.7997,-5.7997,-5.6562,-5.5437,-5.4757,-5.3929,-5.3501,-5.3501,-5.3501,-5.3501,-5.3501,-5.3501,-5.3501,-5.3501,-5.3501,-5.3501,-5.3518,-5.3348,-5.2329,-5.055,-5.032,-4.915,-4.7452,-4.7381,-4.7919,-4.8907,-5.0009,-5.093,-5.1849,-5.2886,-5.3264,-5.3264,0.0,0.0,0.0,0.0,0.0,0.0,0.0,0.0,0.0,0.0,-0.124,-0.1163,0.0,0.0,0.0,0.0,0.0,0.0,0.0,0.0,0.0,0.0,0.0,0.6511,0.8261,1.0194,1.1461,0.0,0.0,0.0,0.0,0.0,0.0,0.0,0.0,0.0,0.0,0.0,0.0,0.0,0.0,0.0,0.0,0.0,0.0,0.0,0.0,0.0,0.0,0.0,-2.0493,-2.1783,-2.454,-2.6437,-2.7797,-2.8262,-2.9441,-3.059,-3.0605,-3.011,-2.9448,-2.8771,-2.8954,-2.908,-2.827,-2.83,0.0,-2.8124,-2.7924,-2.7844,-2.7844,-2.9751,-3.2948,-3.7895,-4.1994,-4.6169,-5.0962,-5.3105,-5.4708,-5.6161,-5.6602,-5.706,-5.7721,-5.7923,-5.7997,-5.7997,-5.6562,-5.5649,-5.5552,-5.4218,-5.3501,-5.3501,-5.3501,-5.3501,-5.3501,-5.3501,-5.3501,-5.3501,-5.3501,-5.3501,-5.3501,-5.2557,-5.1993,-5.1541,-4.9836,-4.8907,-4.8444,-4.7609,-4.7919,-4.8907,-5.0009,-5.0474,-5.0779,-5.1776,-5.2153,-5.2153,0.0,0.0,0.0,0.0,0.0,0.0,0.0,0.0981,-0.1176,-0.4471,-0.3686,-0.3084,-0.3902,-0.4826,-0.5037,0.0,0.0,0.0,0.0,0.0,0.0,0.0,0.0,0.0776,0.3281,0.3914,0.4472,0.4954,0.0,0.0,0.0,0.413,0.5515,0.0,0.0,0.0,0.0,0.0,0.0,0.0,0.0,0.0,0.0,0.0,0.0,0.0,0.0,0.0,0.0,0.0,-2.1713,-2.4518,-2.7976,-2.9557,-3.0103,-3.0288,-3.0773,-3.1199,-3.1177,-3.142,-3.1353,-2.9912,-2.9729,-2.9551,-2.8677,0.0,0.0,-2.8995,-2.8937,-2.8937,-2.8937,-3.1228,-3.4272,-3.8153,-4.2589,-4.7067,-5.1444,-5.3753,-5.5558,-5.6958,-5.7313,-5.7574,-5.796,-5.7997,-5.7839,-5.7449,-5.6349,-5.5706,-5.5706,-5.4281,-5.3501,-5.3501,-5.3501,-5.3501,-5.3501,-5.3501,-5.3501,-5.3501,-5.3501,-5.3501,-5.3501,-5.2956,-5.24,-5.1849,-5.0304,-4.9296,-4.8743,-4.7679,-4.7919,-4.8825,-4.9376,-4.9931,-5.0474,-5.093,-5.108,-5.1155,0.0,0.0,0.0,0.0,0.0,0.0,0.0,0.2885,-0.0118,-0.306,-0.427,-0.4298,-0.2884,-0.4322,-0.5476,0.0,0.0,0.0,0.0,0.0,0.0,0.0,0.0,0.0,-0.128,0.0,0.0,-0.1546,-0.1353,0.0,0.0,0.0,0.0,0.0,-0.4498,-0.539,0.0,0.0,0.0,0.0,0.0,-0.3091,0.0,0.0,0.0,0.0,0.0,0.0,0.0,0.0,-2.2497,-2.6632,-3.0104,-3.1495,-3.1748,-3.1691,-3.1437,-3.1331,-3.1962,-3.2868,-3.3108,-3.1119,-3.0364,-2.993,-2.9071,-2.9026,-2.9239,-2.9691,-2.9792,-2.9907,-3.024,-3.2693,-3.5534,0.0,-4.2856,-4.7468,-5.1352,-5.3945,-5.593,-5.7348,-5.7807,-5.7997,-5.7997,-5.7839,-5.7613,-5.7184,-5.6241,-5.5552,-5.5279,-5.4106,-5.3501,-5.3501,-5.3501,-5.3501,-5.3501,-5.3501,-5.3501,-5.3501,-5.3501,-5.3501,-5.3501,-5.3501,-5.3025,-5.217,-5.1155,-5.0087,-4.9054,-4.8072,-4.7988,-4.8527,-4.8759,-4.9135,-4.9789,-5.0009,-5.0087,-5.0242,0.0,0.0,0.0,0.0,0.0,0.0,0.0,0.5927,0.3701,0.2557,-0.0855,-0.3085,-0.2766,-0.4504,-0.5652,0.0,0.0,0.0,0.0,0.0,0.0,0.0,0.0,0.0,0.0,0.0,0.0,-0.5312,-0.5266,0.0,0.0,0.0,0.0,0.0,0.0,-1.3042,-1.1631,-1.3226,0.0,0.0,0.0,0.0,0.0,0.0,0.0,0.0,0.0,0.0,0.0,0.0,0.0,-2.5393,-2.9389,-3.1545,-3.2664,-3.3079,0.0,0.0,-3.4462,-3.4376,-3.3033,-3.1076,-3.1026,-3.1015,-2.9323,0.0,-2.9729,-2.9779,-2.9792,-3.024,-3.169,-3.3417,-3.5911,-3.9868,-4.3185,-4.6929,-5.1688,-5.3706,-5.5516,-5.7685,-5.7987,-5.7997,-5.7997,-5.7401,-5.7234,-5.7839,-5.6509,-5.5102,-5.3783,-5.3551,-5.3501,-5.3501,-5.3501,-5.3501,-5.3501,-5.3501,-5.3501,-5.3501,-5.3501,-5.3501,-5.3501,-5.3501,-5.3433,-5.3264,-5.2241,-5.1155,-5.0165,-4.9069,-4.8141,-4.7538,-4.8444,-4.8293,-4.7694,-4.8594,-4.8988,-4.9069,0.0,0.0,0.0,0.0,0.0,0.0,0.5767,0.674,0.6352,0.4243,0.2845,0.0466,-0.3825,-0.5256,-0.6115,-0.6561,0.0,0.0,0.0,0.0,0.0,0.0,0.0,0.0,0.0,0.0,-0.6925,-0.8931,-0.9188,0.0,0.0,0.0,0.0,0.0,0.0,-1.4992,-1.5584,-1.487,0.0,0.0,0.0,0.0,0.0,0.0,0.0,0.0,0.0,0.0,0.0,0.0,0.0,0.0,-2.8166,-3.1923,0.0,0.0,-3.4297,-3.3713,-3.3246,-3.3303,-3.3229,-3.2119,-3.1706,-3.1246,-2.9795,-2.9628,-2.9934,-3.0558,-3.062,-3.1153,-3.2759,-3.4385,-3.659,-4.0112,-4.3282,-4.6785,-5.107,-5.3337,-5.5239,-5.7043,-5.7703,-5.7839,-5.7401,-5.7065,-5.6616,-5.6004,-5.4939,-5.4106,-5.3501,-5.3501,-5.3501,-5.3501,-5.3501,-5.3501,-5.3501,-5.3501,-5.3501,-5.3501,-5.3501,-5.3501,-5.3501,-5.3501,-5.3501,-5.3433,-5.24,-5.1687,-5.1155,-4.952,-4.8594,-4.8141,-4.7988,-4.7694,-4.7381,-4.7764,-4.8293,-4.8988,0.0,0.0,0.0,0.0,0.0,-0.0847,0.1295,0.3727,0.4634,0.2768,0.2845,0.0953,-0.4552,-0.6103,-0.6923,-0.7461,-0.7237,0.0,0.0,0.0,0.0,0.0,0.0,0.0,0.0,0.0,-0.9352,-1.1559,-1.318,-1.4208,0.0,0.0,-1.6655,-1.7081,0.0,0.0,0.0,0.0,0.0,0.0,0.0,0.0,0.0,0.0,0.0,0.0,0.0,0.0,0.0,0.0,0.0,0.0,0.0,0.0,0.0,0.0,-3.5624,-3.6533,-3.4553,-3.4062,-3.3967,-3.3587,-3.2911,-3.2012,-3.0904,-3.0633,-3.0898,-3.1763,-3.1937,-3.2508,-3.4638,-3.5884,-3.7699,-4.0952,-4.3667,-4.6709,-5.0664,-5.2952,-5.4923,-5.6914,-5.7444,-5.7449,-5.6964,-5.6668,-5.591,-5.4374,-5.3994,-5.3717,-5.3501,-5.3501,-5.3501,-5.3501,-5.3501,-5.3501,-5.3501,-5.3501,-5.3501,-5.3501,-5.3501,-5.3501,-5.3501,-5.3501,-5.3501,-5.3433,-5.2714,-5.2153,-5.176,-5.0288,-4.936,-4.8743,-4.7988,-4.7538,-4.7309,-4.7309,-4.7764,-4.8527,0.0,0.0,0.0,0.0,0.0,0.0,-0.5213,-0.3882,-0.2669,-0.217,-0.2332,-0.3105,-0.4708,-0.6888,-0.8214,-0.8007,-0.7702,0.0,0.0,0.0,0.0,0.0,0.0,0.0,0.0,0.0,-1.0611,-1.2757,-1.7216,-1.8903,-1.7959,-2.157,-2.2376,-2.0775,0.0,0.0,0.0,0.0,0.0,0.0,0.0,0.0,0.0,0.0,0.0,0.0,0.0,0.0,0.0,0.0,0.0,0.0,0.0,0.0,0.0,0.0,-3.5559,-4.0026,-4.0035,-3.779,-3.5504,-3.5476,-3.4756,-3.3739,-3.282,-3.2593,-3.2773,-3.3439,-3.3564,-3.4538,-3.7659,-3.8262,-3.9364,-4.27,-4.4554,-4.6894,-5.0734,-5.259,-5.4629,-5.7619,-5.7333,-5.6912,-5.6912,-5.6186,-5.5102,-5.3618,-5.4154,-5.4264,-5.3568,-5.3501,-5.3501,-5.3501,-5.3501,-5.3501,-5.3501,-5.3501,-5.3501,-5.3501,-5.3501,-5.3501,-5.3501,-5.3501,-5.3501,-5.3501,-5.3501,-5.287,-5.1921,-5.1921,-5.0687,-4.8825,-4.8825,-4.8141,-4.7309,-4.7309,-4.7309,-4.7624,0.0,0.0,0.0,0.0,0.0,0.0,0.0,-1.0123,-0.9966,-1.0392,-1.0902,-1.0885,-1.0035,-1.0789,-1.0935,-0.9843,-0.8385,0.0,0.0,0.0,0.0,0.0,0.0,0.0,0.0,-1.0924,-1.3834,-1.7117,-2.1207,-2.4044,-2.5646,-2.717,-2.7534,-2.6935,-2.5868,-2.4801,0.0,0.0,0.0,0.0,0.0,0.0,0.0,0.0,0.0,0.0,0.0,0.0,0.0,0.0,0.0,0.0,0.0,0.0,0.0,0.0,0.0,0.0,-4.0084,-3.86,-3.6829,-3.5763,-3.4758,-3.3739,-3.282,-3.2593,-3.2986,-3.4328,-3.5016,-3.6259,-3.8809,-3.9722,-4.1294,-4.4883,-4.5866,-4.7689,-5.2058,-5.358,-5.4977,-5.6951,-5.6533,-5.6313,-5.6861,-5.5255,-5.4218,-5.4264,-5.3994,-5.3717,-5.3501,-5.3501,-5.3501,-5.3501,-5.3501,-5.3501,-5.3501,-5.3501,-5.3501,-5.3501,-5.3501,-5.3501,-5.3501,-5.3501,-5.3501,-5.3501,-5.3501,-5.3348,-5.2956,-5.2224,-5.108,-4.9852,-4.9069,-4.8225,-4.7309,-4.7309,-4.824,-4.9472,0.0,0.0,0.0,0.0,0.0,0.0,0.0,-1.4019,-1.4351,-1.5049,-1.5642,-1.5325,-1.3454,-1.3269,-1.2626,-1.1055,-0.9156,0.0,0.0,0.0,0.0,0.0,0.0,0.0,-0.9841,-1.3413,-1.7204,-2.1125,-2.5191,-2.8468,-3.0954,-3.1531,-3.1507,-3.0945,-2.9841,-2.8327,0.0,0.0,0.0,0.0,0.0,0.0,0.0,0.0,0.0,0.0,0.0,0.0,0.0,0.0,0.0,0.0,0.0,0.0,0.0,0.0,-3.8616,-4.0128,0.0,-3.8983,-3.7408,-3.5889,-3.5056,-3.4394,-3.3837,-3.4088,-3.4884,-3.6117,-3.7273,-3.8678,-4.0657,-4.1739,-4.3235,-4.6107,-4.7033,-4.8809,-5.2798,-5.4074,-5.5178,-5.6642,-5.6169,-5.578,-5.6039,-5.4534,-5.3668,-5.4154,-5.3783,-5.3501,-5.3501,-5.3501,-5.3501,-5.3501,-5.3501,-5.3501,-5.3501,-5.3501,-5.3501,-5.3501,-5.3501,-5.3501,-5.3501,-5.3501,-5.3501,-5.3501,-5.3501,-5.3501,0.0,-5.2312,-5.132,-5.032,-4.9215,-4.8225,-4.7309,-4.7309,-4.8088,-4.9311,0.0,0.0,0.0,0.0,0.0,0.0,0.0,-1.5801,-1.6287,-1.6663,-1.7163,-1.691,-1.5307,-1.4632,-1.3525,-1.1708,0.0,0.0,0.0,0.0,0.0,0.0,0.0,0.0,-1.1848,-1.6295,-2.0667,-2.4959,-2.9292,-3.2421,-3.4284,-3.4771,-3.4452,-3.3404,-3.267,-3.0881,0.0,0.0,0.0,0.0,0.0,0.0,0.0,0.0,0.0,0.0,0.0,0.0,0.0,0.0,0.0,0.0,0.0,0.0,0.0,0.0,0.0,0.0,0.0,-3.8859,-3.731,-3.583,-3.5531,-3.5569,-3.5614,-3.6731,0.0,-3.8696,-4.0103,-4.1601,-4.3147,-4.4081,-4.5068,-4.6724,-4.8116,-5.003,-5.3003,-5.4128,-5.5266,-5.6783,-5.6241,-5.5419,-5.4818,-5.3994,-5.3501,-5.3551,-5.3501,-5.3501,-5.3501,-5.3501,-5.3501,-5.3501,-5.3501,-5.3501,-5.3501,-5.3501,-5.3501,-5.3501,-5.3501,-5.3501,-5.3501,-5.3501,-5.3501,-5.3501,-5.3501,-5.3433,-5.3348,-5.2312,-5.1229,-5.0165,-4.9215,-4.8225,-4.7309,-4.7309,-4.7381,-4.7779,0.0,0.0,0.0,0.0,0.0,0.0,0.0,0.0,0.0,0.0,-1.8993,-1.8722,-1.735,-1.7562,-1.6395,0.0,0.0,0.0,0.0,0.0,0.0,0.0,0.0,0.0,-1.4926,-2.0202,-2.5134,-2.9725,-3.3809,-3.69,-3.8905,-3.8142,-3.7686,-3.75,-3.5668,-3.3156,0.0,0.0,0.0,0.0,0.0,0.0,0.0,0.0,0.0,0.0,-3.4882,-3.4854,0.0,0.0,0.0,0.0,0.0,0.0,0.0,0.0,-4.0093,-4.0121,-4.0074,0.0,-3.5939,-3.5569,-3.5907,-3.646,0.0,-3.7949,-3.8941,-4.0181,0.0,-4.3132,-4.463,-4.5541,-4.6932,-4.9549,-4.9838,-5.0569,-5.3003,-5.458,-5.6079,-5.7551,-5.6509,-5.5893,-5.6331,-5.4641,-5.3717,-5.4328,-5.3832,-5.3501,-5.3501,-5.3501,-5.3501,-5.3501,-5.3501,-5.3501,-5.3501,-5.3501,-5.3501,-5.3501,-5.3501,-5.3501,-5.3501,-5.3501,-5.3501,-5.3501,-5.3501,-5.3025,-5.2241,-5.1993,-5.0838,-4.9135,-4.8907,-4.8225,-4.7309,-4.7309,-4.8324,-4.9631,0.0,0.0,0.0,0.0,0.0,0.0,0.0,0.0,0.0,0.0,0.0,-2.1422,-2.0053,-1.9692,0.0,0.0,0.0,0.0,0.0,0.0,0.0,0.0,0.0,-1.5113,-1.8715,-2.3837,-2.8813,-3.3558,-3.6996,-3.9557,-4.1221,-4.0651,-4.0022,-3.9242,-3.675,-3.4683,0.0,0.0,0.0,0.0,0.0,0.0,0.0,0.0,0.0,0.0,-3.5529,-3.5504,0.0,-3.5461,-3.5523,-3.6035,0.0,0.0,0.0,0.0,-4.0115,-4.0127,-4.01,-3.8264,-3.6352,-3.6394,-3.6967,-3.7638,-3.8089,0.0,0.0,0.0,0.0,0.0,0.0,-4.683,-4.8197,-5.0145,-5.0742,-5.1495,-5.3105,-5.4457,-5.5677,-5.6849,-5.59,-5.5495,-5.6259,-5.4624,-5.3668,-5.4059,-5.3734,-5.3501,-5.3501,-5.3501,-5.3501,-5.3501,-5.3501,-5.3501,-5.3501,-5.3501,-5.3501,-5.3501,-5.3501,-5.3501,-5.3501,-5.3501,-5.3501,-5.3501,-5.3501,-5.287,-5.1832,-5.1394,-5.0227,-4.8743,-4.8293,-4.7764,-4.7309,-4.7309,-4.8003,-4.8938,0.0,0.0,0.0,0.0,0.0,0.0,0.0,0.0,0.0,0.0,0.0,0.0,0.0,0.0,0.0,0.0,0.0,0.0,0.0,0.0,0.0,0.0,-1.5978,-1.8607,-2.2789,-2.7548,-3.2229,-3.6741,-3.9363,-4.1259,-4.2442,-4.2033,-4.1022,-3.9425,-3.7182,-3.5963,0.0,0.0,0.0,0.0,0.0,0.0,0.0,0.0,0.0,0.0,0.0,0.0,0.0,-3.5508,-3.5833,-3.6676,-3.9265,0.0,0.0,0.0,0.0,0.0,-4.0662,-3.9509,-3.8107,-3.7839,-3.8474,-3.9109,-3.9361,0.0,0.0,0.0,0.0,0.0,0.0,-4.7842,-4.9066,-4.9974,-5.1156,-5.227,-5.332,-5.3848,-5.4473,-5.5523,-5.4829,-5.4565,-5.5301,-5.4092,-5.3365,-5.3501,-5.3501,-5.3501,-5.3501,-5.3501,-5.3501,-5.3501,-5.3501,-5.3501,-5.3501,-5.3501,-5.3501,-5.3501,-5.3501,-5.3501,-5.3501,-5.3501,-5.3416,-5.3264,-5.3264,-5.2627,-5.1614,-5.0779,-4.9773,-4.8759,-4.7834,-4.7467,-4.7309,-4.7309,-4.7381,-4.7694,0.0,0.0,0.0,0.0,0.0,0.0,0.0,0.0,0.0,0.0,0.0,0.0,0.0,0.0,0.0,0.0,0.0,0.0,0.0,0.0,0.0,-2.3412,-2.3446,-2.4437,-2.6394,-3.2135,-3.6526,-3.9317,-4.1212,-4.2787,-4.3885,-4.0854,-3.8975,-3.8255,-3.904,-3.7939,-3.5435,-3.488,0.0,0.0,-3.5519,0.0,0.0,0.0,0.0,0.0,0.0,0.0,0.0,-3.5497,-3.7254,-3.9473,-3.9956,0.0,0.0,0.0,0.0,0.0,-4.32,-4.2779,-4.1203,-3.9951,-4.0221,-4.1099,-4.2245,0.0,0.0,0.0,0.0,0.0,0.0,-4.852,-4.934,-5.1335,-5.1423,-5.1929,-5.3953,-5.2852,-5.2564,-5.4539,-5.3558,-5.3046,-5.3748,-5.3002,-5.2773,-5.345,-5.3501,-5.3501,-5.3501,-5.3501,-5.3501,-5.3501,-5.3501,-5.3501,-5.3501,-5.3501,-5.3501,-5.3501,-5.3501,-5.3501,-5.3501,-5.3501,-5.3025,-5.2153,-5.2153,-5.1541,-5.0627,-5.0474,-4.9773,-4.8743,-4.8594,-4.8072,-4.7309,-4.7309,-4.7834,-4.8825,0.0,0.0,0.0,0.0,0.0,0.0,0.0,0.0,0.0,0.0,0.0,0.0,0.0,0.0,0.0,0.0,0.0,0.0,0.0,0.0,-2.7567,-2.8553,-2.9822,-3.0587,-3.0713,-3.4841,-3.8174,-4.0607,-4.1863,-4.2793,-4.3274,-4.1202,-4.0181,-3.9991,-4.0069,-3.9336,-3.7963,-3.8011,-3.7002,0.0,0.0,0.0,0.0,0.0,0.0,0.0,0.0,0.0,0.0,0.0,-3.8903,-4.0097,-4.0096,0.0,0.0,0.0,0.0,0.0,-4.1764,-4.2828,-4.3187,-4.161,-4.2016,-4.2965,-4.3623,-4.4665,0.0,0.0,0.0,0.0,0.0,-4.8448,-4.9372,-5.1185,-5.0959,-5.0839,-5.1928,-5.1259,-5.1173,-5.2623,-5.2195,-5.2087,-5.2822,-5.217,-5.1877,-5.2249,-5.2266,-5.2266,-5.2266,-5.2638,-5.2623,-5.2027,-5.2977,-5.3195,-5.2627,-5.3195,-5.3501,-5.3501,-5.3501,-5.3501,-5.3501,-5.3501,-5.2939,-5.1921,-5.247,-5.1865,-5.0397,-5.1005,-5.0227,-4.8825,-4.8825,-4.8225,-4.7309,-4.7309,-4.7919,-4.9054,0.0,0.0,0.0,0.0,0.0,0.0,0.0,0.0,0.0,0.0,0.0,0.0,0.0,0.0,0.0,0.0,0.0,0.0,0.0,-2.8877,-3.1157,-3.2154,-3.4529,-3.5316,-3.4276,-3.6881,-3.9193,-4.0989,-4.2006,-4.2514,-4.2488,-4.2026,-4.1662,-4.1364,-4.0509,-4.0071,-4.0051,-3.9328,-3.7663,0.0,0.0,0.0,0.0,0.0,0.0,0.0,0.0,0.0,0.0,0.0,0.0,0.0,0.0,0.0,0.0,-4.007,-4.007,-4.0087,-4.0088,-4.1783,-4.3352,-4.2492,0.0,-4.4354,-4.4895,-4.5725,-4.6458,0.0,0.0,0.0,0.0,-4.8413,-4.9442,-5.0665,-5.0352,-5.009,-5.0293,-5.0035,-5.0107,-5.0876,-5.0786,-5.098,-5.1761,-5.1276,-5.1014,-5.12,-5.1217,-5.1217,-5.1217,-5.1528,-5.1379,-5.057,-5.1896,-5.2349,-5.1658,-5.2671,-5.3315,-5.3501,-5.3501,-5.3501,-5.3501,-5.3501,-5.2939,-5.1921,-5.2784,-5.2258,-5.0779,-5.1614,-5.0989,-4.952,-4.9296,-4.8377,-4.7309,-4.7523,-4.8293,-4.9296,0.0,0.0,0.0,0.0,0.0,0.0,0.0,0.0,0.0,0.0,0.0,0.0,0.0,0.0,0.0,0.0,0.0,0.0,0.0,-3.1403,-3.3492,-3.4862,-3.6672,-3.7037,-3.5862,-3.8776,-4.0338,-4.0449,-4.184,-4.2517,-4.2497,-4.283,-4.1966,-4.0217,-4.0124,-4.0071,-3.9901,-3.7022,-3.5681,-3.5517,-3.5531,0.0,0.0,0.0,0.0,0.0,0.0,0.0,0.0,0.0,0.0,0.0,0.0,0.0,-4.007,-4.007,-4.007,-4.0121,-4.0103,-4.0253,-4.0761,-4.1963,-4.3322,-4.4869,-4.6966,-4.6801,-4.6632,-4.8153,-4.7865,-4.7401,-4.7589,-4.8806,-4.9872,-5.0046,-5.0016,-5.0241,-5.0929,-4.989,-4.9341,-5.0005,-4.9539,-4.9424,-5.021,-5.0232,-5.0456,-5.1166,-5.1217,-5.1217,-5.1217,-5.0443,-4.9967,-4.9882,-5.0017,-5.0364,-5.0938,-5.1934,-5.2756,-5.3501,-5.3501,-5.3501,-5.3501,-5.3501,-5.2939,-5.1905,-5.1993,-5.1921,-5.1776,-5.1849,-5.1832,-5.1598,-5.0627,-4.9085,-4.7366,-4.8377,-4.9376,-5.0397,0.0,0.0,0.0,0.0,0.0,0.0,0.0,0.0,0.0,0.0,0.0,0.0,0.0,0.0,0.0,0.0,0.0,0.0,0.0,-3.3637,-3.5365,-3.6762,-3.7915,-3.8427,-3.83,-3.9964,-4.0958,-4.1148,-4.18,-4.1958,-4.1646,-4.2088,-4.1764,-4.0767,-4.0306,-4.008,-4.0003,-3.8875,-3.723,-3.5497,-3.5523,0.0,0.0,0.0,0.0,0.0,0.0,0.0,0.0,0.0,-4.007,-4.007,-4.007,-4.007,-4.007,-4.007,-4.007,-4.0087,-4.0121,-4.0762,-4.1521,-4.1791,-4.3082,0.0,0.0,-4.6081,-4.66,-4.7231,-4.7176,-4.7157,-4.7679,-4.8621,-4.9354,-4.9368,-4.9359,-4.9462,-4.9722,-4.9316,-4.9107,-4.9359,-4.9152,-4.912,-4.939,-4.9424,-4.9526,-4.9813,-4.927,-4.8977,-4.8977,-4.8482,-4.7918,-4.7247,-4.8321,-4.8764,-4.8445,-4.9401,-5.0222,-5.0959,-5.2652,-5.3501,-5.3501,-5.3501,-5.2939,-5.1921,-5.2627,-5.2557,-5.1921,-5.2627,-5.247,-5.176,-5.0071,-4.8907,-4.8293,-4.8677,-4.9836,-5.1394,0.0,0.0,0.0,0.0,0.0,0.0,0.0,0.0,0.0,0.0,0.0,0.0,0.0,0.0,0.0,0.0,0.0,0.0,-3.3678,-3.4975,-3.6341,-3.7715,-3.8529,-3.9276,-4.0066,-4.0704,-4.0973,-4.091,-4.1303,-4.1449,-4.1339,-4.1677,-4.163,-4.1363,-4.0504,-4.0096,-4.005,-3.9587,-3.8453,-3.6949,-3.693,-3.6956,0.0,0.0,0.0,0.0,0.0,0.0,0.0,0.0,-4.007,-4.007,-4.007,-4.007,-4.007,-4.007,-4.0121,-4.0121,-4.0121,-4.0813,-4.1709,-4.1996,0.0,0.0,-4.4027,-4.5147,-4.629,-4.6881,-4.705,-4.731,-4.7834,-4.8511,-4.9001,-4.9001,-4.9001,-4.9001,-4.9001,-4.9001,-4.9001,-4.9001,-4.9001,-4.9001,-4.9001,-4.9001,-4.8861,-4.8576,-4.7933,-4.744,-4.7155,-4.6724,-4.6197,-4.5463,-4.6654,-4.7076,-4.6563,-4.758,-4.8471,-4.9384,-5.1273,-5.248,-5.3025,-5.3348,-5.311,-5.247,-5.3179,-5.3093,-5.247,-5.3195,-5.2714,-5.132,-4.9836,-4.8907,-4.8377,-4.9069,-5.0227,-5.1541,0.0,0.0,0.0,0.0,0.0,0.0,0.0,0.0,0.0,0.0,0.0,0.0,0.0,0.0,0.0,0.0,0.0,0.0,-3.4574,-3.5294,-3.6341,-3.7752,-3.8529,-3.9562,-4.0856,-4.0903,-4.0384,-3.9428,-4.0206,-4.1025,-4.181,-4.181,-4.181,-4.1732,-4.0635,-4.0095,-3.9984,-3.8465,-3.8706,-4.0088,-4.0017,-4.0021,-3.9926,0.0,0.0,0.0,0.0,0.0,0.0,0.0,-4.007,-4.007,-4.007,-4.007,-4.0087,-4.007,-4.0121,-4.0135,-4.0152,-4.0152,-4.0608,-4.2579,0.0,0.0,-4.325,-4.435,-4.5698,-4.7456,-4.7837,-4.7919,-4.7919,-4.8511,-4.9001,-4.9001,-4.9001,-4.9001,-4.9001,-4.9001,-4.9001,-4.9001,-4.9001,-4.9001,-4.9001,-4.9001,-4.8576,-4.7655,-4.7589,-4.7172,-4.6244,-4.5285,-4.4812,-4.4812,-4.4812,-4.5122,-4.5849,-4.6808,-4.799,-4.9368,-4.9368,-5.0276,-5.1921,-5.3025,-5.3501,-5.3501,-5.3501,-5.3501,-5.3501,-5.3501,-5.2258,-5.0397,-5.0397,-4.9166,-4.7609,-4.9631,-5.0397,-5.0719,0.0,0.0,0.0,0.0,0.0,0.0,0.0,0.0,0.0,0.0,0.0,0.0,0.0,0.0,0.0,0.0,0.0,0.0,-3.5307,-3.6037,-3.6901,-3.7802,-3.8589,-3.9412,-4.0319,-4.0336,-4.0371,-4.0453,-4.068,-4.0906,-4.1178,-4.1578,-4.181,-4.181,-4.1727,-4.1128,-4.0065,-3.9598,-3.9668,-4.0084,-4.01,-4.0058,-3.9936,0.0,0.0,0.0,0.0,0.0,0.0,0.0,0.0,0.0,-4.007,-4.007,-4.0104,-4.0121,-4.0121,-4.0542,-4.2689,-4.3271,0.0,-4.2647,0.0,0.0,0.0,-4.4937,0.0,-4.7527,-4.8237,-4.8603,-4.87,-4.9206,-4.9563,-4.9046,-4.9001,-4.9001,-4.9001,-4.9001,-4.9001,-4.9001,-4.9001,-4.9001,-4.9001,-4.9001,-4.8576,-4.7655,-4.702,-4.6189,-4.53,-4.4282,-4.3771,-4.3771,-4.3771,-4.3862,-4.4059,-4.4341,-4.4923,-4.5859,-4.7092,-4.9138,-5.1921,-5.2241,-5.2784,-5.3501,-5.3501,-5.3501,-5.3501,-5.3501,-5.2714,-5.1467,-5.1467,-5.108,-5.0611,-5.1229,-5.1938,-5.2661,0.0,0.0,0.0,0.0,0.0,0.0,0.0,0.0,0.0,0.0,0.0,0.0,0.0,0.0,0.0,0.0,0.0,0.0,0.0,-3.6789,-3.7432,-3.7889,-3.8886,-3.9631,-4.007,-4.007,-4.0237,-4.0577,-4.0577,-4.0703,-4.0903,-4.1534,-4.1937,-4.218,-4.215,-4.1542,-4.0548,-4.0214,-4.0068,-4.0101,-4.0104,-4.0088,-4.0055,0.0,0.0,0.0,0.0,0.0,0.0,0.0,0.0,0.0,-4.007,0.0,0.0,-4.1546,-4.1035,-4.0759,-4.3786,-4.4179,0.0,-4.3288,-4.3893,-4.4654,-4.4959,-4.5602,-4.6397,-4.7293,-4.8226,-4.8973,-4.8961,-4.9299,-4.9462,-4.9063,-4.9001,-4.9001,-4.9001,-4.9001,-4.9001,-4.9001,-4.9001,-4.9001,-4.9001,-4.8656,-4.808,-4.7088,-4.6189,-4.5211,-4.4297,-4.363,-4.3329,-4.3329,-4.3329,-4.3329,-4.3329,-4.3329,-4.3658,-4.4332,-4.5662,-4.7887,-5.0953,-5.1629,-5.2487,-5.3501,-5.3501,-5.3501,-5.3433,-5.3025,-5.247,-5.1849,-5.1467,-5.1303,-5.1377,-5.176,-5.2312,-5.2956,0.0,0.0,0.0,0.0,0.0,0.0,0.0,0.0,0.0,0.0,-3.4121,0.0,0.0,0.0,0.0,0.0,0.0,0.0,0.0,-3.7496,-3.7855,-3.8085,-3.9376,-4.007,-4.007,-4.007,-4.007,-4.007,-4.007,-4.0417,-4.0995,-4.1534,-4.2162,-4.2732,-4.208,-4.1573,-4.1163,-4.0426,-4.007,-4.0087,-4.012,-4.0087,-4.0155,-4.0832,0.0,0.0,0.0,0.0,0.0,0.0,0.0,0.0,-4.0071,-4.0088,-4.0646,-4.3409,-4.2445,-4.1104,-4.3854,-4.3677,0.0,-4.4384,-4.4778,0.0,-4.5652,-4.6363,-4.687,-4.6802,-4.7962,-4.8961,-4.8984,-4.9063,-4.9046,-4.9001,-4.9001,-4.9001,-4.9001,-4.9001,-4.9001,-4.9001,-4.9001,-4.9001,-4.9001,-4.8144,-4.7239,-4.6244,-4.5358,-4.4373,-4.3329,-4.3329,-4.3329,-4.3329,-4.3329,-4.3329,-4.3329,-4.3329,-4.3629,-4.4227,-4.4885,-4.6567,-4.9149,-5.0913,-5.24,-5.3501,-5.3501,-5.3501,-5.3433,-5.2312,-5.1993,-5.1921,-5.093,-5.0643,-5.0795,-5.1704,-5.2082,-5.217,0.0,0.0,0.0,0.0,0.0,0.0,0.0,0.0,0.0,0.0,0.0,0.0,0.0,0.0,0.0,0.0,0.0,0.0,0.0,-3.7772,-3.7733,-3.9307,-3.9859,-4.007,-4.007,-4.007,-4.007,-4.007,-4.007,-4.0594,-4.1621,-4.175,-4.2364,-4.3286,-4.2266,-4.1573,-4.1163,-4.0426,-4.007,-4.0087,-4.0121,-4.0121,-4.0104,-4.0257,-4.0223,0.0,0.0,0.0,0.0,0.0,0.0,0.0,-4.0113,-4.0124,-4.0217,-4.0889,-4.2317,-4.3769,-4.4414,-4.52,0.0,0.0,-4.6045,-4.6363,-4.6532,-4.7141,-4.7513,-4.6921,-4.7957,-4.8959,-4.9006,-4.9402,-4.9622,-4.9107,-4.9001,-4.9001,-4.9001,-4.9001,-4.9001,-4.9001,-4.9001,-4.9001,-4.9001,-4.8144,-4.7239,-4.6244,-4.5358,-4.4373,-4.3329,-4.3329,-4.3329,-4.3329,-4.3329,-4.3329,-4.3329,-4.3329,-4.3404,-4.3554,-4.4212,-4.5266,-4.6729,-4.9489,-5.172,-5.3501,-5.3501,-5.3501,-5.3433,-5.2312,-5.24,-5.3025,-5.201,-5.2098,-5.2886,-5.311,-5.3179,-5.3195,0.0,0.0,0.0,0.0,0.0,0.0,0.0,0.0,0.0,0.0,0.0,0.0,0.0,0.0,0.0,0.0,0.0,0.0,0.0,-3.8978,-3.918,-4.0279,-4.0163,-4.007,-4.007,-4.007,-4.007,-4.007,-4.007,-4.0672,-4.181,-4.2164,-4.2821,-4.3614,-4.2739,-4.2097,-4.1538,-4.0519,-4.007,-4.007,-4.007,-4.007,-4.007,-4.007,-4.007,-4.0087,-4.0104,0.0,0.0,0.0,0.0,0.0,0.0,0.0,-4.2244,-4.2244,-4.3373,-4.4593,-4.463,0.0,0.0,-4.685,0.0,-4.7344,-4.7344,-4.7902,-4.8223,-4.7479,-4.8209,-4.8941,-4.8978,-4.9316,-4.9419,-4.9063,-4.9001,-4.9001,-4.9001,-4.9001,-4.9001,-4.9001,-4.9001,-4.9001,-4.9001,-4.7721,-4.6747,-4.6244,-4.4915,-4.3849,-4.3329,-4.3329,-4.3329,-4.3329,-4.3329,-4.3329,-4.3329,-4.3329,-4.3329,-4.3344,-4.4003,-4.5303,-4.7139,-4.9512,-5.168,-5.3501,-5.3501,-5.3501,-5.3433,-5.2312,-5.254,-5.3416,-5.2312,-5.2557,-5.3501,-5.3501,-5.3501,-5.3501,0.0,0.0,0.0,0.0,0.0,0.0,0.0,0.0,0.0,0.0,0.0,0.0,0.0,0.0,0.0,0.0,0.0,0.0,0.0,-4.0575,-4.0866,-4.0763,-4.0336,-4.007,-4.007,-4.007,-4.007,-4.007,-4.007,-4.071,-4.185,-4.2642,-4.3291,-4.3827,-4.3375,-4.2758,-4.2033,-4.0759,-4.0154,-4.007,-4.007,-4.007,-4.007,-4.007,-4.007,-4.0087,-4.0121,-4.0087,-4.0575,-4.3562,0.0,0.0,0.0,0.0,-4.4605,-4.4613,-4.4627,-4.4623,-4.4592,0.0,-4.617,-4.7339,-4.7603,0.0,-4.7827,-4.8298,-4.863,-4.8162,-4.8595,-4.9001,-4.9001,-4.9001,-4.9001,-4.9001,-4.9001,-4.9001,-4.9001,-4.9001,-4.9001,-4.9001,-4.9001,-4.894,-4.8781,-4.7239,-4.6103,-4.5977,-4.4327,-4.3329,-4.3329,-4.3329,-4.3329,-4.3329,-4.3329,-4.3329,-4.3329,-4.3329,-4.3329,-4.3344,-4.4043,-4.5664,-4.8198,-4.9791,-5.1525,-5.3298,-5.345,-5.3501,-5.3433,-5.2312,-5.254,-5.3416,-5.2312,-5.2557,-5.3501,-5.3501,-5.3501,-5.3501,0.0,0.0,0.0,0.0,0.0,0.0,0.0,0.0,0.0,0.0,-3.8925,-3.9084,-3.839,-3.8667,0.0,0.0,0.0,0.0,-4.1789,0.0,0.0,-4.0237,-4.0121,-4.007,-4.007,-4.007,-4.007,-4.007,-4.007,-4.0776,-4.2055,-4.2687,-4.3341,-4.3979,-4.3852,-4.317,-4.2033,-4.1173,-4.0528,-4.007,-4.007,-4.007,-4.007,-4.007,-4.007,-4.0104,-4.012,-4.0101,-4.054,-4.3594,-4.4609,0.0,0.0,0.0,-4.4613,-4.4593,-4.4601,-4.4609,0.0,0.0,-4.5656,0.0,-4.6584,-4.6669,0.0,-4.7737,-4.7982,-4.8742,-4.8934,-4.9001,-4.9001,-4.9001,-4.9001,-4.9001,-4.9001,-4.9001,-4.9001,-4.9001,-4.9001,-4.9001,-4.9001,-4.8656,-4.7868,-4.6815,-4.5834,-4.502,-4.3927,-4.3329,-4.3329,-4.3329,-4.3329,-4.3329,-4.3329,-4.3329,-4.3329,-4.3329,-4.3329,-4.3329,-4.4312,-4.5637,-4.7461,-4.8495,-5.0276,-5.2503,-5.3196,-5.3501,-5.3433,-5.2312,-5.254,-5.3416,-5.2312,-5.2557,-5.3501,-5.3501,-5.3501,-5.3501,0.0,0.0,0.0,0.0,0.0,0.0,0.0,0.0,0.0,0.0,0.0,-4.0356,-3.953,-3.9229,0.0,0.0,0.0,0.0,-4.1705,-4.1779,0.0,-4.0577,-4.0237,-4.007,-4.007,-4.007,-3.9901,-3.9437,-3.9901,-4.0594,-4.1623,-4.312,-4.4109,-4.4668,-4.4235,-4.3544,-4.267,-4.1423,-4.0577,-4.007,-4.007,-4.0341,-4.0663,-4.024,-4.0104,-4.0087,-4.0121,-4.0086,-4.0286,-4.161,-4.2102,-4.2064,-4.2064,0.0,0.0,0.0,-4.4597,0.0,-4.4438,-4.4907,-4.5695,0.0,-4.7077,-4.7239,-4.8161,-4.8015,-4.7868,-4.8798,-4.9001,-4.9001,-4.9001,-4.9001,-4.9001,-4.9001,-4.9001,-4.9001,-4.9001,-4.9001,-4.9001,-4.9001,-4.8513,-4.808,-4.7655,-4.6276,-4.5211,-4.4812,-4.3849,-4.3329,-4.3329,-4.3329,-4.3329,-4.3329,-4.3329,-4.3329,-4.3329,-4.3329,-4.3551,-4.4143,-4.4586,-4.5735,-4.7525,-4.836,-5.0043,-5.2317,-5.2672,-5.3078,-5.3433,-5.3025,-5.311,-5.3433,-5.2956,-5.3093,-5.3501,-5.3501,-5.3501,-5.3501,0.0,0.0,0.0,0.0,0.0,0.0,0.0,0.0,0.0,0.0,0.0,0.0,-4.0871,0.0,0.0,0.0,0.0,0.0,-4.1133,0.0,0.0,0.0,-4.0336,-4.007,-4.007,-3.9901,-3.9489,-3.8908,-3.9489,-4.0258,-4.1262,-4.3027,-4.4347,-4.5246,-4.5007,-4.4318,-4.3204,-4.1957,-4.1043,-4.0358,-4.0358,-4.0696,-4.117,-4.0951,-4.0713,-4.0421,-4.0189,-4.0104,-4.0118,-4.012,-4.0083,-4.0096,-4.0096,-4.0129,0.0,0.0,0.0,0.0,0.0,0.0,-4.5113,-4.6106,-4.6478,-4.6876,-4.8046,-4.7737,-4.7589,-4.8798,-4.9001,-4.9001,-4.9001,-4.9001,-4.9001,-4.9001,-4.9001,-4.9001,-4.9001,-4.9001,-4.9001,-4.9001,-4.8161,-4.7523,-4.7239,-4.5778,-4.4662,-4.4434,-4.3693,-4.3329,-4.3329,-4.3329,-4.3329,-4.3329,-4.3329,-4.3329,-4.3329,-4.3329,-4.3771,-4.4812,-4.502,-4.5977,-4.7605,-4.8448,-4.9874,-5.1758,-5.2131,-5.2638,-5.3213,-5.3416,-5.3501,-5.3501,-5.3501,-5.3501,-5.3501,-5.3501,-5.3501,-5.3501,0.0,0.0,0.0,0.0,0.0,0.0,0.0,0.0,0.0,0.0,0.0,0.0,-4.2197,-4.1482,-4.0675,-3.9868,-3.9863,0.0,0.0,0.0,0.0,0.0,0.0,0.0,-4.007,-3.9368,-3.8962,-3.8908,-3.8962,-3.9737,-4.1246,-4.2034,-4.3492,-4.5527,-4.6621,-4.5693,-4.319,-4.2977,-4.223,-4.1136,-4.1136,-4.117,-4.1322,-4.2513,-4.2356,-4.1418,-4.0421,-4.0118,-4.0101,-4.0104,-4.0104,-4.0104,-4.0104,-4.0087,-4.0117,0.0,0.0,0.0,0.0,-4.219,0.0,-4.2942,-4.3412,-4.4341,-4.5959,-4.6314,-4.6815,-4.8639,-4.9001,-4.9001,-4.9001,-4.9001,-4.9001,-4.9001,-4.9001,-4.9001,-4.9001,-4.9001,-4.9001,-4.9001,-4.8161,-4.7239,-4.6384,-4.5358,-4.4358,-4.3488,-4.3329,-4.3329,-4.3329,-4.3329,-4.3329,-4.3329,-4.3329,-4.3329,-4.3329,-4.3329,-4.3771,-4.4812,-4.5706,-4.6662,-4.7655,-4.8547,-4.9413,-5.0287,-5.1691,-5.2317,-5.2418,-5.3196,-5.3501,-5.3501,-5.3501,-5.3501,-5.3501,-5.3501,-5.3501,-5.3501,0.0,0.0,0.0,0.0,0.0,0.0,0.0,0.0,0.0,0.0,0.0,0.0,0.0,-4.2047,-4.1552,-4.0744,-4.1148,0.0,0.0,0.0,0.0,0.0,0.0,0.0,-4.007,-3.9315,-3.869,-3.8189,-3.869,-3.9198,-3.9761,-4.1476,-4.291,-4.4056,-4.4463,-4.4165,-4.3204,-4.212,-4.1412,-4.1071,-4.1604,-4.2085,-4.2516,-4.2943,-4.3271,-4.3393,-4.239,-4.2052,-4.1916,-4.1068,-4.0798,-4.0713,-4.0223,-4.0071,-4.012,-4.008,-3.8877,-3.7667,0.0,0.0,0.0,-4.2093,-4.3822,-4.5708,-4.6287,-4.6762,-4.744,-4.8719,-4.9001,-4.9001,-4.9001,-4.9001,-4.9001,-4.9001,-4.9001,-4.9171,-4.9644,-4.9712,-4.9881,-5.0371,-4.8645,-4.7287,-4.6933,-4.5029,-4.3708,-4.3329,-4.3329,-4.3329,-4.3329,-4.3329,-4.3329,-4.3329,-4.3329,-4.3329,-4.3329,-4.3329,-4.4128,-4.5706,-4.6048,-4.702,-4.8513,-4.8861,-4.9137,-4.9458,-5.0439,-5.142,-5.2317,-5.2604,-5.3044,-5.3501,-5.3501,-5.3501,-5.3501,-5.3501,-5.3501,-5.3501,0.0,0.0,0.0,0.0,0.0,0.0,0.0,0.0,-4.291,-4.2378,0.0,0.0,0.0,0.0,-4.1992,-4.1185,-4.1846,-4.1814,-4.066,-4.1326,0.0,0.0,0.0,0.0,-4.007,-3.9315,-3.8525,-3.7822,-3.8525,-3.8884,-3.8964,-4.0983,-4.2295,-4.291,-4.2652,-4.2819,-4.3172,-4.2133,-4.1544,-4.1388,-4.2233,-4.278,-4.3154,-4.3721,-4.4165,-4.4399,-4.3501,-4.3172,-4.302,-4.1967,-4.1407,-4.1085,-4.0341,-4.0088,-4.0087,-4.0122,-3.8334,-3.66,-3.7203,0.0,0.0,0.0,-4.3616,-4.5615,-4.6715,-4.7062,-4.7587,-4.8748,-4.9001,-4.9001,-4.9001,-4.9001,-4.9001,-4.9001,-4.9001,-4.9255,-4.9982,-5.0084,-5.0227,-5.0626,-4.8887,-4.7428,-4.6824,-4.4863,-4.3569,-4.3344,-4.3329,-4.3329,-4.3329,-4.3329,-4.3329,-4.3329,-4.3329,-4.3329,-4.3329,-4.3615,-4.4631,-4.6173,-4.6523,-4.7523,-4.9001,-4.9001,-4.9001,-4.9035,-4.9509,-5.0422,-5.1606,-5.2097,-5.2604,-5.3129,-5.3399,-5.3501,-5.3501,-5.3501,-5.3501,-5.3501,0.0,0.0,0.0,0.0,0.0,0.0,0.0,0.0,-4.2341,-4.2341,0.0,0.0,0.0,0.0,0.0,-4.1258,-4.1849,-4.1832,-4.0695,-4.1343,-4.1286,0.0,0.0,0.0,-4.007,-3.9315,-3.8525,-3.7806,-3.8525,-3.8867,-3.8916,-4.0467,-4.1559,-4.2236,-4.1525,-4.1921,-4.3158,-4.319,-4.2774,-4.2185,-4.2961,-4.3168,-4.3174,-4.4844,-4.4992,-4.4285,-4.3637,-4.3453,-4.3335,-4.2574,-4.1847,-4.1101,-4.0355,-4.0053,-3.9985,-4.0081,-3.9237,-3.8099,0.0,0.0,0.0,-4.1435,-4.2413,-4.3887,-4.6815,-4.6963,-4.699,-4.8613,-4.8968,-4.8984,-4.9001,-4.9001,-4.9001,-4.9001,-4.9001,-4.9272,-5.0016,-5.0118,-4.9986,-4.9816,-4.8916,-4.7601,-4.5958,-4.4849,-4.4047,-4.3404,-4.3344,-4.3329,-4.3329,-4.3329,-4.3329,-4.3329,-4.3329,-4.3329,-4.3329,-4.4297,-4.5285,-4.6244,-4.7155,-4.808,-4.9001,-4.9001,-4.9001,-4.9001,-4.9001,-4.9407,-5.0168,-5.164,-5.2266,-5.2384,-5.3162,-5.3484,-5.3501,-5.3501,-5.3501,-5.3501,0.0,0.0,0.0,0.0,0.0,-4.2114,-4.3028,-4.3167,-4.3167,0.0,0.0,0.0,-4.3461,-4.3296,-4.3075,-4.2855,-4.2686,-4.2273,-4.1534,-4.1279,-4.0844,-4.0121,-4.007,-4.007,-4.007,-3.9315,-3.8799,-3.858,-3.8799,-3.8898,-3.893,-3.9912,-4.0781,-4.1508,-4.1288,-4.1409,-4.1699,-4.1205,-4.1691,-4.2758,-4.3014,-4.3961,-4.5305,-4.5287,-4.5254,-4.5114,-4.449,-4.4265,-4.4147,-4.3369,-4.2841,-4.2264,-4.0606,-3.8595,-3.7241,-3.9435,-3.827,-3.6461,-3.7416,0.0,0.0,0.0,0.0,0.0,-4.4434,-4.5618,-4.6976,-4.7994,-4.8223,-4.8376,-4.89,-4.9001,-4.9001,-4.9001,-4.9001,-4.9441,-5.0727,-5.0259,-5.022,-5.1163,-4.9266,-4.7746,-4.7229,-4.546,-4.4242,-4.4062,-4.3599,-4.3329,-4.3329,-4.3329,-4.3329,-4.3329,-4.3329,-4.3329,-4.3329,-4.4297,-4.5285,-4.6244,-4.7155,-4.808,-4.9001,-4.9001,-4.9001,-4.9001,-4.9001,-4.912,-4.9373,-5.0321,-5.1336,-5.2317,-5.2553,-5.2993,-5.3501,-5.3501,-5.3501,-5.3501,0.0,0.0,0.0,-4.1595,-4.1932,-4.2358,-4.3338,-4.3631,-4.3646,0.0,0.0,0.0,-4.3497,-4.3497,-4.3497,-4.3497,-4.3014,-4.244,-4.1853,-4.1223,-4.0655,-4.0121,-4.007,-4.007,-4.007,-3.9662,-3.9262,-3.8908,-3.9262,-3.9262,-3.8908,-3.9714,-4.0307,-4.073,-4.073,-4.073,-4.0696,-4.0257,-4.1026,-4.2562,-4.3217,-4.4185,-4.5245,-4.5569,-4.5418,-4.4941,-4.4712,-4.4587,-4.4502,-4.4062,-4.3792,-4.3284,-4.086,-3.9451,-3.8623,-3.8274,-3.7557,-3.7032,-3.7638,-3.8679,-3.9574,-3.9758,0.0,0.0,-4.4198,-4.5144,-4.6177,-4.7242,-4.7699,-4.8054,-4.8477,-4.8798,-4.9001,-4.9001,-4.9001,-4.9526,-5.1014,-5.0342,-5.008,-5.1141,-4.9472,-4.7966,-4.7216,-4.5701,-4.4601,-4.4332,-4.3703,-4.3329,-4.3329,-4.3329,-4.3329,-4.3329,-4.3329,-4.3472,-4.3927,-4.493,-4.585,-4.6815,-4.7737,-4.845,-4.9001,-4.9001,-4.9001,-4.9001,-4.9001,-4.9001,-4.9035,-4.9458,-5.0507,-5.1877,-5.2181,-5.279,-5.3501,-5.3501,-5.3501,-5.3501,0.0,0.0,-4.0466,-4.1595,-4.2047,-4.2537,-4.3373,-4.374,-4.3836,0.0,-4.3497,-4.3497,-4.3497,-4.3497,-4.3497,-4.3497,-4.2939,-4.2382,-4.1853,-4.1178,-4.0625,-4.0121,-4.007,-4.007,-4.007,-4.007,-3.9731,-3.9016,-3.9731,-3.9731,-3.9032,-3.9782,-4.007,-4.007,-4.007,-4.007,-4.007,-4.007,-4.072,-4.1831,-4.3253,-4.3878,-4.4114,-4.5513,-4.5355,-4.4475,-4.4575,-4.4587,-4.4587,-4.4587,-4.458,-4.4113,-4.13,-4.1521,-4.1917,-3.747,-3.7408,-3.877,-3.8288,-3.8654,-3.9531,-4.0951,-4.1887,0.0,-4.4891,-4.4942,-4.4959,-4.6278,-4.7141,-4.7699,-4.7784,-4.8392,-4.8849,-4.8765,-4.89,-4.9429,-5.075,-5.0141,-4.9675,-5.0048,-4.9264,-4.8064,-4.6571,-4.5813,-4.5125,-4.4466,-4.3748,-4.3329,-4.3329,-4.3329,-4.3329,-4.3329,-4.3409,-4.3927,-4.4812,-4.5834,-4.6747,-4.7589,-4.8576,-4.9001,-4.9001,-4.9001,-4.9001,-4.9001,-4.9001,-4.9001,-4.9001,-4.9001,-4.983,-5.1166,-5.1894,-5.2672,-5.3382,-5.3467,-5.3501,-5.3501,0.0,-4.007,-4.0466,-4.1595,-4.1842,-4.2253,-4.3356,-4.3548,-4.3563,-4.3532,-4.3497,-4.3497,-4.3497,-4.3497,-4.3497,-4.3497,-4.2562,-4.1937,-4.181,-4.0814,-4.0204,-4.0121,-4.007,-4.007,-4.007,-4.007,-4.002,-3.985,-4.002,-4.002,-3.985,-4.002,-4.007,-4.007,-4.007,-4.007,-4.007,-4.007,-4.0466,-4.1105,-4.1418,-4.2949,-4.4938,-4.4148,-4.4433,-4.5217,-4.4763,-4.4587,-4.4587,-4.4587,-4.458,-4.4351,-4.2942,-4.1643,-4.0581,-4.0351,-3.9454,-3.8906,-4.0325,-4.0739,-4.0951,-4.1841,-4.2635,0.0,-4.2997,-4.3792,-4.4654,-4.4959,-4.5618,-4.6312,-4.6904,-4.7631,-4.7936,-4.7327,-4.8223,-4.9039,-4.9211,-4.8725,-4.8349,-4.8294,-4.7889,-4.7478,-4.713,-4.6516,-4.5843,-4.5155,-4.4003,-4.3329,-4.3329,-4.3329,-4.3329,-4.3329,-4.4066,-4.4586,-4.4812,-4.647,-4.744,-4.7589,-4.8576,-4.9001,-4.9001,-4.9001,-4.9001,-4.9001,-4.9001,-4.9001,-4.9001,-4.9001,-4.9526,-5.0388,-5.1133,-5.1877,-5.2604,-5.3264,-5.3501,-5.3501,-4.007,-4.007,-4.0466,-4.1595,-4.1914,-4.2379,-4.3338,-4.3646,-4.3693,-4.3513,-4.3497,-4.3497,-4.3497,-4.3497,-4.3497,-4.3497,-4.2752,-4.2121,-4.181,-4.0967,-4.0368,-4.0121,-4.007,-4.007,-4.007,-4.007,-4.007,-4.007,-4.007,-4.007,-4.007,-3.9662,-3.9731,-4.007,-3.9662,-3.9714,-4.007,-4.007,-4.0254,-4.0563,-4.1276,-4.2648,-4.42,-4.3927,-4.4337,-4.4998,-4.472,-4.4587,-4.4626,-4.4597,-4.4618,-4.4517,-4.4011,-4.3137,-4.2069,-4.1041,-4.0603,-4.0469,-4.0664,-4.1239,-4.1723,-4.1755,-4.2591,0.0,0.0,-4.3453,-4.4113,-4.4502,-4.5179,-4.5821,-4.6177,-4.6853,-4.7225,-4.6853,-4.7318,-4.7419,-4.6515,-4.738,-4.8001,-4.7789,-4.7509,-4.7309,-4.7309,-4.6711,-4.5903,-4.4885,-4.3898,-4.3329,-4.3329,-4.3329,-4.3329,-4.3329,-4.4297,-4.5005,-4.5488,-4.7258,-4.8172,-4.8306,-4.9084,-4.9299,-4.9001,-4.9001,-4.9001,-4.9001,-4.9001,-4.9001,-4.9001,-4.9001,-4.9221,-4.9661,-5.0777,-5.1657,-5.2401,-5.3213,-5.3501,-5.3501,-4.007,-4.007,-4.0466,-4.1595,-4.2024,-4.2517,-4.3373,-4.3726,-4.3804,-4.3548,-4.3497,-4.3552,-4.3699,-4.3718,-4.3791,-4.3938,-4.3468,-4.2857,-4.2083,-4.1495,-4.0827,-4.0121,-4.007,-4.007,-4.007,-4.007,-4.007,-4.007,-4.007,-4.007,-4.007,-3.9262,-3.9262,-3.9833,-3.9032,-3.9139,-3.985,-3.985,-3.9952,-4.0172,-4.1346,-4.2213,-4.2923,-4.3715,-4.4162,-4.4367,-4.4519,-4.4587,-4.4609,-4.4584,-4.458,-4.4575,-4.4616,-4.461,-4.4086,-4.1481,-4.1666,-4.2427,-4.1083,-4.1697,-4.2615,-4.1974,-4.276,-4.3606,0.0,0.0,0.0,-4.4265,-4.4959,-4.55,-4.55,-4.6092,-4.6532,-4.638,-4.6357,-4.5734,-4.4147,-4.5977,-4.7331,-4.7009,-4.6887,-4.6991,-4.7147,-4.6545,-4.5635,-4.4392,-4.3703,-4.3329,-4.3329,-4.3329,-4.3409,-4.3551,-4.4372,-4.534,-4.6403,-4.7751,-4.8523,-4.8787,-4.943,-4.9399,-4.8798,-4.8934,-4.9001,-4.9001,-4.9001,-4.9001,-4.9001,-4.9001,-4.9001,-4.9137,-5.0473,-5.1454,-5.2181,-5.2993,-5.3365,-5.3501,-4.007,-4.007,-4.0466,-4.1595,-4.1817,-4.223,-4.3321,-4.3548,-4.3548,-4.3479,-4.3497,-4.3754,-4.4488,-4.4562,-4.4856,-4.5571,-4.516,-4.4281,-4.2942,-4.2363,-4.1461,-4.0155,-4.007,-4.007,-4.007,-4.007,-4.007,-4.007,-4.007,-4.007,-4.007,-3.9262,-3.8962,-3.9016,-3.8262,-3.8358,-3.9032,-3.9032,-3.9437,-4.0138,-4.0256,-4.0798,-4.1511,-4.2223,-4.2932,-4.3639,-4.4333,-4.4587,-4.457,-4.4609,-4.4609,-4.4626,-4.4575,-4.4592,-4.439,-4.3264,-4.3623,-4.4142,-4.3197,-4.3606,-4.4345,-4.4231,-4.4316,-4.4265,-4.3572,0.0,-4.4282,-4.3673,0.0,-4.4705,-4.4705,0.0,0.0,-4.4942,-4.5257,-4.5013,-4.3327,-4.4299,-4.4833,-4.3946,-4.4847,-4.5815,-4.6726,-4.6174,-4.5351,-4.4398,-4.3703,-4.3329,-4.3329,-4.3329,-4.3708,-4.4586,-4.4906,-4.5777,-4.7267,-4.7632,-4.7786,-4.7893,-4.8588,-4.8627,-4.8071,-4.8714,-4.9001,-4.9001,-4.9001,-4.9001,-4.9001,-4.9001,-4.9001,-4.9086,-4.9898,-5.0676,-5.1437,-5.2164,-5.2892,-5.3501,-4.007,-4.007,-4.0466,-4.1595,-4.181,-4.2185,-4.3321,-4.3497,-4.3663,-4.414,-4.3791,-4.3975,-4.5259,-4.4984,-4.5021,-4.5828,-4.568,-4.4838,-4.3127,-4.2785,-4.1876,-4.0155,-4.007,-4.007,-4.007,-4.007,-4.007,-4.007,-4.007,-3.985,-3.9385,-3.8635,-3.8246,-3.8246,-3.744,-3.7774,-3.8908,-3.8908,-3.9368,-4.007,-4.007,-4.0273,-4.0629,-4.1373,-4.2117,-4.2811,-4.3132,-4.3868,-4.4584,-4.463,-4.4623,-4.4609,-4.458,-4.4614,-4.4412,-4.3444,-4.3849,-4.4311,-4.3065,-4.3654,-4.4468,-4.4012,-4.4248,-4.4485,-4.4164,-4.435,-4.4485,-4.4164,0.0,0.0,0.0,0.0,0.0,0.0,-4.3945,-4.3492,-4.1866,-4.2366,-4.2909,-4.324,-4.4603,-4.5611,-4.6051,-4.5866,-4.5324,-4.4383,-4.3703,-4.3329,-4.3329,-4.3329,-4.3771,-4.4737,-4.497,-4.5864,-4.7376,-4.8006,-4.812,-4.7726,-4.8888,-4.8924,-4.7953,-4.8663,-4.9001,-4.9001,-4.9001,-4.9001,-4.9001,-4.9001,-4.9001,-4.9035,-4.934,-5.0168,-5.1302,-5.2029,-5.2807,-5.3501,-4.0286,-4.0336,-4.0672,-4.1853,-4.2038,-4.2364,-4.3356,-4.3497,-4.3791,-4.4599,-4.4195,-4.4433,-4.6049,-4.5718,-4.5681,-4.6489,-4.6562,-4.5706,-4.3766,-4.343,-4.252,-4.0798,-4.029,-4.0172,-4.0392,-4.0189,-4.007,-4.007,-3.9901,-3.9489,-3.8854,-3.7905,-3.7456,-3.7456,-3.6631,-3.7024,-3.827,-3.8509,-3.9032,-3.9782,-4.002,-4.007,-4.0155,-4.0916,-4.166,-4.2286,-4.2286,-4.3037,-4.3994,-4.4207,-4.4249,-4.4338,-4.4533,-4.458,-4.4451,-4.372,-4.4045,-4.4333,-4.3217,-4.3741,-4.4401,-4.3606,-4.3995,-4.4468,-4.4045,-4.4282,-4.4587,-4.4587,-4.4739,0.0,0.0,0.0,-4.463,-4.3723,0.0,-4.2246,-4.0888,-4.0921,-4.1459,-4.2417,-4.4052,-4.5156,-4.5356,-4.5433,-4.5064,-4.4113,-4.3599,-4.3329,-4.3329,-4.3329,-4.3912,-4.5153,-4.4922,-4.5636,-4.7437,-4.7928,-4.7781,-4.7103,-4.8801,-4.8868,-4.7648,-4.8578,-4.9001,-4.9001,-4.9001,-4.9001,-4.9001,-4.9001,-4.9001,-4.9001,-4.9001,-4.9915,-5.1285,-5.1809,-5.2638,-5.3433,-4.078,-4.0856,-4.1268,-4.248,-4.2655,-4.2864,-4.341,-4.3497,-4.3791,-4.4599,-4.469,-4.5278,-4.6911,-4.702,-4.737,-4.8159,-4.8233,-4.7361,-4.5364,-4.4573,-4.357,-4.2272,-4.0849,-4.0409,-4.1153,-4.046,-4.007,-4.007,-3.9315,-3.8908,-3.8854,-3.7365,-3.6676,-3.6615,-3.5894,-3.5943,-3.6722,-3.7515,-3.8246,-3.9032,-3.9782,-4.007,-4.0155,-4.0916,-4.166,-4.2286,-4.2286,-4.232,-4.2472,-4.32,-4.3453,-4.3589,-4.4333,-4.457,-4.457,-4.4536,-4.4553,-4.457,-4.4519,-4.4536,-4.4401,-4.3606,-4.3995,-4.4198,-4.2692,-4.3504,-4.4587,-4.4587,-4.5162,-4.5889,-4.6599,-4.6143,-4.5404,-4.4528,-4.3037,0.0,0.0,-4.0512,-4.0442,-4.0487,-4.2447,-4.4084,-4.4781,-4.4843,-4.4389,-4.3438,-4.3344,-4.3329,-4.3329,-4.3329,-4.419,-4.6103,-4.4777,-4.5222,-4.7689,-4.6871,-4.6182,-4.5598,-4.7729,-4.8067,-4.687,-4.8342,-4.9001,-4.9001,-4.9001,-4.9001,-4.9001,-4.9001,-4.9001,-4.9001,-4.9001,-4.9915,-5.1217,-5.1251,-5.2215,-5.3348,-4.078,-4.1223,-4.175,-4.2577,-4.2711,-4.2902,-4.341,-4.3497,-4.3975,-4.5314,-4.5039,-4.5535,-4.7664,-4.7443,-4.7443,-4.8233,-4.7937,-4.7024,-4.5407,-4.4706,-4.3744,-4.2356,-4.1813,-4.1441,-4.1221,-4.095,-4.0578,-4.007,-3.9315,-3.8635,-3.8149,-3.7084,-3.6337,-3.5831,-3.5619,-3.6196,-3.7397,-3.769,-3.8541,-3.9731,-4.002,-4.007,-4.0104,-4.0358,-4.0612,-4.0815,-4.0815,-4.1153,-4.161,-4.1863,-4.2269,-4.2794,-4.3572,-4.347,-4.3166,-4.3656,-4.3453,-4.3166,-4.3673,-4.3809,-4.3876,-4.413,-4.3995,-4.3673,-4.3166,-4.3436,-4.3809,-4.3809,-4.4418,-4.5043,-4.528,-4.4675,-4.3806,-4.294,-4.1882,-4.0826,0.0,-3.9805,-4.0106,-4.1204,-4.2777,-4.3495,-4.2844,-4.4006,-4.4189,-4.2794,-4.309,-4.3329,-4.3329,-4.2925,-4.3532,-4.5432,-4.4058,-4.4545,-4.6948,-4.6203,-4.5681,-4.5528,-4.7248,-4.7634,-4.6836,-4.8325,-4.9001,-4.9001,-4.9001,-4.9001,-4.9001,-4.9001,-4.9001,-4.9001,-4.9001,-4.9915,-5.1217,-5.1217,-5.2198,-5.3264,-4.1087,-4.1725,-4.2244,-4.2616,-4.2864,-4.3105,-4.3444,-4.3736,-4.4397,-4.5736,-4.57,-4.6269,-4.8104,-4.7847,-4.7755,-4.8251,-4.7756,-4.6916,-4.5751,-4.4869,-4.4027,-4.3169,-4.2574,-4.2202,-4.1999,-4.1474,-4.0967,-4.0476,-3.9164,-3.8262,-3.7764,-3.6692,-3.5943,-3.5504,-3.5504,-3.6196,-3.7397,-3.769,-3.8541,-3.9731,-3.9952,-4.024,-4.0443,-4.0172,-4.007,-4.0104,-4.0392,-4.0629,-4.0849,-4.1119,-4.1525,-4.2033,-4.2777,-4.2675,-4.2388,-4.2878,-4.2675,-4.2388,-4.2878,-4.3014,-4.3132,-4.3639,-4.3589,-4.3352,-4.3081,-4.3436,-4.3826,-4.3826,-4.4451,-4.506,-4.5314,-4.4708,-4.3883,-4.3019,-4.1898,-4.0758,0.0,-3.9424,-3.976,-4.0852,-4.195,-4.2437,-4.2092,-4.3017,-4.329,-4.2449,-4.2746,-4.309,-4.3329,-4.2716,-4.3196,-4.5011,-4.3706,-4.4092,-4.6241,-4.5735,-4.5407,-4.5196,-4.6615,-4.6979,-4.6464,-4.7953,-4.8612,-4.8629,-4.89,-4.9001,-4.9001,-4.9001,-4.9001,-4.9001,-4.9001,-4.9746,-5.0845,-5.1116,-5.1732,-5.2186,-4.1621,-4.2262,-4.2711,-4.2732,-4.3178,-4.3497,-4.3534,-4.4213,-4.5002,-4.5792,-4.6617,-4.7425,-4.8214,-4.8306,-4.8306,-4.8267,-4.7715,-4.7062,-4.6383,-4.5134,-4.4475,-4.4592,-4.3183,-4.2726,-4.3403,-4.1999,-4.1238,-4.1204,-3.89,-3.7822,-3.7764,-3.6196,-3.5504,-3.5504,-3.5504,-3.5958,-3.6722,-3.7456,-3.8262,-3.9032,-3.9782,-4.0527,-4.1119,-4.0409,-4.0121,-4.0223,-4.0899,-4.0696,-4.0189,-4.0899,-4.1153,-4.1271,-4.1999,-4.2202,-4.2185,-4.2219,-4.2202,-4.2185,-4.2236,-4.2236,-4.2252,-4.2286,-4.2811,-4.3115,-4.2405,-4.3403,-4.4468,-4.4468,-4.5094,-4.5855,-4.6549,-4.6109,-4.5312,-4.4495,-4.3021,-4.1412,-3.9737,-3.9553,-3.9553,-3.9553,-4.0036,-4.0988,-4.2509,-4.1878,-4.1624,-4.2299,-4.2297,-4.2596,-4.324,-4.2641,-4.312,-4.4963,-4.3658,-4.3795,-4.5652,-4.5503,-4.5196,-4.4643,-4.5935,-4.6258,-4.5754,-4.7208,-4.7885,-4.7953,-4.8646,-4.8968,-4.9001,-4.9001,-4.9001,-4.9001,-4.9001,-4.9458,-5.0185,-5.0947,-5.0879,-5.0349,-4.1041,-4.1979,-4.2826,-4.3214,-4.341,-4.3699,-4.4305,-4.458,-4.5002,-4.5792,-4.6617,-4.7425,-4.8214,-4.8306,-4.8114,-4.7656,-4.7044,-4.6383,-4.5783,-4.5007,-4.4555,-4.4626,-4.4198,-4.3809,-4.342,-4.2489,-4.1745,-4.1204,-3.89,-3.7822,-3.7764,-3.6196,-3.5504,-3.5504,-3.5504,-3.6258,-3.7515,-3.769,-3.8541,-3.9782,-4.002,-4.0527,-4.1187,-4.0984,-4.0916,-4.0865,-4.0493,-4.024,-4.0104,-4.0307,-4.0358,-4.0493,-4.1255,-4.1102,-4.0747,-4.1322,-4.1085,-4.0764,-4.1322,-4.1474,-4.161,-4.2151,-4.2033,-4.1728,-4.1525,-4.2202,-4.2878,-4.2878,-4.3927,-4.4925,-4.5111,-4.4482,-4.3843,-4.3647,-4.2696,-4.1869,-4.1428,-4.1346,-4.1346,-4.1346,-4.0913,-4.0506,-4.0308,-4.0935,-4.125,-4.0935,-4.1354,-4.1923,-4.2581,-4.1534,-4.1943,-4.4213,-4.2924,-4.3108,-4.4874,-4.4878,-4.4776,-4.4587,-4.5467,-4.5841,-4.5737,-4.6667,-4.7394,-4.7936,-4.8122,-4.8494,-4.9001,-4.9001,-4.9001,-4.9001,-4.9001,-4.9458,-5.0185,-5.0947,-5.0479,-4.9689,-4.122,-4.2226,-4.336,-4.438,-4.425,-4.4176,-4.4635,-4.5002,-4.5388,-4.5847,-4.6393,-4.6973,-4.7699,-4.7855,-4.7756,-4.7428,-4.6819,-4.6143,-4.5545,-4.4961,-4.4587,-4.4587,-4.4587,-4.4367,-4.3927,-4.3166,-4.2422,-4.1677,-3.9429,-3.811,-3.7764,-3.6196,-3.5668,-3.6006,-3.6006,-3.6814,-3.8302,-3.8668,-3.9279,-4.007,-4.007,-4.0713,0.0,-4.1322,-4.161,-4.2033,-4.095,-4.0358,-4.007,-4.007,-4.007,-4.0155,-4.0578,-4.0409,-4.0155,-4.0595,-4.0409,-4.0172,-4.0595,-4.0713,-4.0899,-4.1627,-4.1508,-4.1288,-4.161,-4.1999,-4.2286,-4.2286,-4.298,-4.3572,-4.3572,-4.3474,-4.3298,-4.3317,-4.2909,-4.2458,-4.2062,-4.1997,-4.1869,-4.1478,-4.1013,-4.0378,-3.9481,-4.0083,-4.0487,-4.0412,-4.0741,-4.1235,-4.1893,-4.0965,-4.1362,-4.3496,-4.2573,-4.2831,-4.457,-4.4587,-4.4587,-4.4587,-4.501,-4.5213,-4.5229,-4.5974,-4.6549,-4.6989,-4.7631,-4.8156,-4.8545,-4.8883,-4.9001,-4.9001,-4.9001,-4.9255,-4.9661,-5.0101,-5.0108,-4.9994,-4.2061,-4.3007,-4.4213,-4.5516,-4.5351,-4.5021,-4.5021,-4.5608,-4.6012,-4.5957,-4.619,-4.6517,-4.6955,-4.7156,-4.7299,-4.7299,-4.6664,-4.6063,-4.5545,-4.4961,-4.4587,-4.4587,-4.4587,-4.4587,-4.4587,-4.3809,-4.3047,-4.2286,-4.0115,-3.8669,-3.7921,-3.6492,-3.6117,-3.6737,-3.6737,-3.7541,-3.8962,-3.9782,-4.0138,-4.0223,-4.0223,-4.1119,-4.2354,-4.1627,-4.2219,-4.3234,-4.1847,-4.0865,-4.0206,-4.0104,-4.007,-4.007,-4.007,-4.007,-4.007,-4.007,-4.007,-4.007,-4.007,-4.007,-4.024,-4.0899,-4.1068,-4.1221,-4.1863,-4.2083,-4.2151,-4.2151,-4.2219,-4.2286,-4.2286,-4.2828,-4.3283,-4.3297,-4.3277,-4.3021,-4.2296,-4.2251,-4.1997,-4.1147,-4.0946,0.0,-3.9546,-3.9436,-3.9649,-4.0232,-4.0277,-4.0561,-4.122,-4.077,-4.1244,-4.2972,-4.243,-4.2953,-4.457,-4.4587,-4.4587,-4.4587,-4.4587,-4.4587,-4.4604,-4.5263,-4.5618,-4.5771,-4.7073,-4.7733,-4.797,-4.8595,-4.8917,-4.9001,-4.9001,-4.9001,-4.9001,-4.9001,-4.9706,-5.0554,-4.337,-4.4578,-4.5351,-4.4984,-4.5902,-4.6691,-4.6691,-4.6819,-4.6724,-4.6196,-4.6741,-4.7039,-4.656,-4.6529,-4.6571,-4.6571,-4.6014,-4.5597,-4.5511,-4.4961,-4.4587,-4.4587,-4.4587,-4.4587,-4.4587,-4.3809,-4.3047,-4.2286,-4.0669,-3.9467,-3.869,-3.7806,-3.7472,-3.7573,-3.7573,-3.8076,-3.8962,-3.9782,-4.0443,-4.1018,-4.1018,-4.1897,-4.3149,-4.2388,-4.2658,-4.3301,-4.2422,-4.1627,-4.0916,-4.029,-4.007,-4.007,-4.007,-4.007,-4.007,-4.007,-4.007,-4.007,-4.007,-4.007,-4.0104,-4.024,-4.0273,-4.0307,-4.0443,-4.095,-4.139,-4.139,-4.188,-4.2286,-4.2286,-4.2405,-4.2689,-4.3322,-4.3367,-4.3312,-4.3183,-4.3719,-4.3798,-4.297,-4.2189,-4.1175,-3.9781,-3.9476,-3.9469,-3.9589,-3.9589,-3.9873,-4.0531,-4.0593,-4.1398,-4.2956,-4.3019,-4.3545,-4.457,-4.4587,-4.4587,-4.4587,-4.4587,-4.4587,-4.4587,-4.4722,-4.5111,-4.572,-4.5974,-4.6786,-4.7936,-4.8054,-4.846,-4.9001,-4.9001,-4.9001,-4.9001,-4.9001,-4.9485,-5.0138,-4.4881,-4.5326,-4.5571,-4.5902,-4.6489,-4.6948,-4.7095,-4.7462,-4.7362,-4.6326,-4.6555,-4.6643,-4.6302,-4.6659,-4.691,-4.691,-4.6353,-4.5815,-4.5494,-4.4961,-4.4587,-4.4587,-4.4587,-4.4587,-4.4587,-4.4215,-4.3453,-4.2286,-4.1178,-4.0067,-3.8908,-3.8149,-3.7978,-3.8414,-3.8832,-3.9156,-3.9575,-4.0323,-4.0882,-4.1238,-4.1627,-4.2422,-4.3386,-4.3014,-4.3352,-4.391,-4.3149,-4.2642,-4.2185,-4.1052,-4.0663,-4.0595,-4.0206,-4.007,-4.007,-4.007,-4.007,-4.007,-4.007,-4.007,-4.007,-4.007,-4.007,-4.007,-4.007,-4.0358,-4.0629,-4.0629,-4.0899,-4.1271,-4.166,-4.2033,-4.2405,-4.2777,-4.3166,-4.3284,-4.2878,-4.3487,-4.3478,-4.2232,-4.2043,-4.1351,-3.9726,-3.9485,-3.9275,-3.8916,-3.9215,-3.9559,-3.9873,-4.0423,-4.1236,-4.2428,-4.3027,-4.3697,-4.457,-4.4587,-4.4587,-4.4587,-4.4587,-4.4587,-4.4587,-4.4587,-4.4773,-4.5145,-4.5534,-4.6329,-4.7394,-4.8173,-4.8697,-4.9001,-4.9001,-4.9001,-4.9001,-4.9001,-4.9221,-4.9552,-4.5906,-4.5909,-4.6012,-4.6728,-4.6948,-4.7113,-4.7333,-4.7902,-4.7855,-4.6597,-4.6483,-4.638,-4.6234,-4.6801,-4.724,-4.7396,-4.6664,-4.6046,-4.5684,-4.4995,-4.4587,-4.4587,-4.4587,-4.4587,-4.4587,-4.4587,-4.391,-4.2523,-4.1794,-4.0735,-3.9371,-3.8606,-3.8596,-3.9209,-4.0002,-4.0307,-4.0358,-4.1119,-4.1525,-4.1728,-4.2303,-4.298,-4.3673,-4.3673,-4.4045,-4.4502,-4.3876,-4.3673,-4.3453,-4.2134,-4.1457,-4.1068,-4.0307,-4.007,-4.007,-4.007,-4.007,-4.007,-4.007,-4.007,-4.007,-4.007,-4.007,-4.007,-4.007,-4.007,-4.007,-4.007,-4.007,-4.0307,-4.1068,-4.1542,-4.1863,-4.2033,-4.2557,-4.2794,-4.2354,-4.2929,-4.2919,-4.1555,-4.1786,-4.1388,-3.9649,-3.9646,-3.9379,-3.8491,-3.9017,-3.9349,-3.9215,-4.0286,-4.1217,-4.1773,-4.2802,-4.3639,-4.4333,-4.4164,-4.4164,-4.4333,-4.4333,-4.4418,-4.4587,-4.4587,-4.4587,-4.4604,-4.5213,-4.5974,-4.6904,-4.8392,-4.9001,-4.9001,-4.9001,-4.9001,-4.9001,-4.9001,-4.9001,-4.9063,-4.5485,-4.667,-4.759,-4.625,-4.7205,-4.8159,-4.8196,-4.8251,-4.8056,-4.738,-4.7277,-4.7042,-4.6465,-4.6469,-4.6724,-4.7357,-4.63,-4.578,-4.6267,-4.526,-4.4587,-4.4587,-4.4587,-4.4587,-4.4587,-4.4587,-4.4164,-4.3318,-4.2571,-4.1758,-4.0965,-4.0222,-3.9901,-4.0037,-4.0798,-4.1102,-4.1153,-4.188,-4.2591,-4.3217,-4.3284,-4.3775,-4.4468,-4.4468,-4.4519,-4.457,-4.4485,-4.4468,-4.435,-4.3504,-4.232,-4.1068,-4.0307,-4.007,-4.007,-4.007,-4.007,-4.007,-4.007,-4.007,-4.007,-4.007,-4.007,-4.007,-4.007,-4.007,-4.007,-4.007,-4.007,-4.0307,-4.1068,-4.0696,-4.051,-4.1187,-4.1373,-4.1627,-4.2202,-4.2929,-4.3306,-4.3125,-4.2545,-4.1548,-4.0019,-4.0435,-4.0149,-3.87,-3.9083,-3.914,-3.8527,-4.0685,-4.1646,-4.1132,-4.2593,-4.3411,-4.3521,-4.2844,-4.2844,-4.3521,-4.3521,-4.3893,-4.4587,-4.4587,-4.4587,-4.4587,-4.4654,-4.5483,-4.6904,-4.8392,-4.9001,-4.9001,-4.9001,-4.9001,-4.9001,-4.9001,-4.9001,-4.8979,-4.5581,-4.6504,-4.7186,-4.6709,-4.7553,-4.8306,-4.8306,-4.8306,-4.821,-4.7977,-4.7937,-4.7692,-4.7053,-4.7312,-4.7506,-4.7389,-4.6561,-4.6005,-4.59,-4.5052,-4.4587,-4.4587,-4.4587,-4.4587,-4.4587,-4.4587,-4.4198,-4.342,-4.2658,-4.1914,-4.1204,-4.0899,-4.0984,-4.1424,-4.1728,-4.1863,-4.1914,-4.2658,-4.3149,-4.3453,-4.3927,-4.4299,-4.4587,-4.4587,-4.4587,-4.4587,-4.4587,-4.4587,-4.4468,-4.3673,-4.2726,-4.1728,-4.0984,-4.0443,-4.007,-4.007,-4.007,-4.007,-4.007,-4.007,-4.007,-4.007,-4.007,-4.007,-4.007,-4.007,-4.007,-4.007,-4.007,-4.0172,-4.0476,-4.0646,-4.0696,-4.0544,-4.0916,-4.1305,-4.1593,-4.2269,-4.2723,-4.2624,-4.2384,-4.1716,-4.0619,-4.0735,-4.0246,-3.8738,-3.9557,-4.0047,-3.9772,-4.0745,-4.1643,-4.2346,-4.2595,-4.2963,-4.342,-4.2675,-4.2439,-4.2743,-4.32,-4.3589,-4.391,-4.4367,-4.4587,-4.4604,-4.506,-4.5838,-4.687,-4.7919,-4.8612,-4.9001,-4.9001,-4.9001,-4.9001,-4.9001,-4.9001,-4.8899,-4.5568,-4.6451,-4.7168,-4.7131,-4.7774,-4.8306,-4.8306,-4.8306,-4.8306,-4.8306,-4.8306,-4.813,-4.7693,-4.805,-4.8041,-4.7466,-4.6793,-4.6165,-4.5546,-4.4923,-4.4587,-4.4587,-4.4587,-4.4587,-4.4587,-4.4587,-4.4316,-4.3758,-4.2997,-4.2354,-4.1847,-4.1627,-4.1796,-4.2303,-4.2523,-4.2625,-4.2675,-4.3436,-4.3758,-4.3809,-4.435,-4.4587,-4.4587,-4.4587,-4.4587,-4.4587,-4.4587,-4.4587,-4.4485,-4.3944,-4.325,-4.2455,-4.1508,-4.0679,-4.007,-4.007,-4.007,-4.007,-4.007,-4.007,-4.007,-4.007,-4.007,-4.007,-4.007,-4.007,-4.007,-4.007,-4.007,-4.007,-4.007,-4.051,-4.0696,-4.0155,-4.0713,-4.1288,-4.1491,-4.1965,-4.2341,-4.2542,-4.2185,-4.1692,-4.1016,-4.0956,-4.043,-3.9061,-4.0118,-4.0507,-3.9792,-4.0498,-4.1316,-4.2334,-4.211,-4.2236,-4.276,-4.2016,-4.1745,-4.1982,-4.2726,-4.32,-4.3453,-4.4215,-4.4587,-4.4621,-4.5382,-4.6126,-4.6853,-4.7614,-4.8342,-4.9001,-4.9001,-4.9001,-4.9001,-4.9001,-4.9001,-4.8803,-4.5265,-4.6785,-4.8031,-4.726,-4.7774,-4.8306,-4.8306,-4.8306,-4.8306,-4.8306,-4.8306,-4.8306,-4.8306,-4.8306,-4.8057,-4.7458,-4.6795,-4.6174,-4.5563,-4.4936,-4.4587,-4.4587,-4.4587,-4.4587,-4.4587,-4.4587,-4.4587,-4.457,-4.3792,-4.3403,-4.3369,-4.2625,-4.2286,-4.232,-4.3064,-4.3403,-4.3453,-4.4231,-4.457,-4.457,-4.4587,-4.4587,-4.4587,-4.4587,-4.4587,-4.4587,-4.4587,-4.4587,-4.4587,-4.457,-4.4045,-4.3149,-4.166,-4.0679,-4.007,-4.007,-4.007,-4.007,-4.007,-4.007,-4.007,-4.007,-4.007,-4.007,-4.007,-4.007,-4.007,-4.007,-4.007,-4.007,-4.007,-4.0087,-4.0087,-4.007,-4.0713,-4.1457,-4.2168,-4.2286,-4.2574,-4.3318,-4.2117,-4.1238,-4.1186,-4.1186,-4.0802,-3.9939,-4.0573,-4.0,-3.7763,-3.9708,-4.0639,-4.0166,-4.0819,-4.1221,-4.1238,-4.0493,-4.0476,-4.1221,-4.1965,-4.2692,-4.3453,-4.4215,-4.4587,-4.4621,-4.5382,-4.6126,-4.6853,-4.7614,-4.8342,-4.9001,-4.9001,-4.9001,-4.9001,-4.9001,-4.9001,-4.8719,-4.4801,-4.6267,-4.7407,-4.715,-4.7774,-4.8306,-4.8306,-4.8306,-4.8306,-4.8306,-4.8306,-4.8306,-4.8306,-4.8306,-4.7856,-4.683,-4.6498,-4.5959,-4.4953,-4.471,-4.4587,-4.4587,-4.4587,-4.4587,-4.4587,-4.4587,-4.4587,-4.4587,-4.3792,-4.342,-4.3403,-4.3166,-4.3335,-4.3859,-4.4096,-4.4215,-4.4215,-4.4468,-4.4587,-4.4587,-4.4587,-4.4587,-4.4587,-4.4587,-4.4587,-4.4587,-4.4587,-4.4587,-4.4587,-4.4587,-4.4062,-4.3335,-4.2861,-4.2185,-4.1491,-4.1001,-4.0849,-4.073,-4.0223,-4.007,-4.007,-4.007,-4.007,-4.007,-4.007,-4.007,-4.007,-4.007,-4.007,-4.007,-4.007,-4.007,-4.007,-4.007,-4.029,-4.0696,-4.1457,-4.1542,-4.183,-4.2557,-4.1796,-4.1204,-4.1204,-4.1204,-4.0908,-4.0084,-4.0614,-4.068,-3.9968,-4.0112,-4.0647,-4.1577,-4.0847,-4.0679,-4.1204,-4.046,-4.0206,-4.046,-4.1694,-4.2963,-4.4215,-4.4468,-4.4587,-4.4587,-4.484,-4.5635,-4.6802,-4.7056,-4.7885,-4.9001,-4.9001,-4.9001,-4.8923,-4.8289,-4.808,-4.7803,-4.5059,-4.6452,-4.7572,-4.7572,-4.7976,-4.8306,-4.8306,-4.8306,-4.8306,-4.8306,-4.8306,-4.8306,-4.8306,-4.8306,-4.7898,-4.6882,-4.6777,-4.6268,-4.5026,-4.4971,-4.4869,-4.4626,-4.4587,-4.4587,-4.4587,-4.4587,-4.4587,-4.4587,-4.4096,-4.3859,-4.3859,-4.3859,-4.4113,-4.4587,-4.4587,-4.4587,-4.4587,-4.4587,-4.4587,-4.4587,-4.4587,-4.4587,-4.4587,-4.4587,-4.4587,-4.4587,-4.4587,-4.4587,-4.4587,-4.4587,-4.4265,-4.3859,-4.3859,-4.3521,-4.2946,-4.1914,-4.1424,-4.1102,-4.0629,-4.029,-4.007,-4.007,-4.007,-4.007,-4.007,-4.007,-4.007,-4.007,-4.007,-4.0171,-4.0368,-4.0254,-4.0171,-4.0368,-4.073,-4.0984,-4.117,-4.1441,-4.1677,-4.1863,-4.1238,-4.0781,-4.0781,-4.0781,-4.0609,-4.0137,-4.0446,-4.0641,-4.0641,-4.015,-4.037,-4.1457,-4.0561,-4.0307,-4.0781,-4.0307,-4.0223,-4.051,-4.2016,-4.3369,-4.4587,-4.4587,-4.4587,-4.4587,-4.4587,-4.5415,-4.6786,-4.6786,-4.7665,-4.9001,-4.9001,-4.8781,-4.8433,-4.7803,-4.7373,-4.6884,-4.5883,-4.715,-4.8233,-4.8306,-4.8306,-4.8306,-4.8306,-4.8306,-4.8306,-4.8306,-4.8306,-4.8306,-4.8306,-4.8306,-4.8097,-4.7515,-4.744,-4.6864,-4.5627,-4.5579,-4.532,-4.4776,-4.4665,-4.4682,-4.4682,-4.4626,-4.4587,-4.4587,-4.4587,-4.4587,-4.4587,-4.4587,-4.4587,-4.4587,-4.4587,-4.4587,-4.4587,-4.4587,-4.4587,-4.4587,-4.4587,-4.4587,-4.4587,-4.4587,-4.4587,-4.4587,-4.4587,-4.4587,-4.4587,-4.4587,-4.4587,-4.4587,-4.4587,-4.4587,-4.4299,-4.2794,-4.1847,-4.1271,-4.1221,-4.0646,-4.007,-4.007,-4.007,-4.007,-4.007,-4.007,-4.007,-4.007,-4.0121,-4.0336,-4.0827,-4.0497,-4.0336,-4.0827,-4.1663,-4.1965,-4.1238,-4.1762,-4.1948,-4.1221,-4.051,-4.007,-4.007,-4.007,-4.0104,-4.0155,-4.0104,-4.0104,-4.0155,-3.9997,-3.996,-4.0104,-4.007,-4.007,-4.007,-4.007,-4.0493,-4.1288,-4.2743,-4.3826,-4.4587,-4.4587,-4.4587,-4.4587,-4.4587,-4.5399,-4.6718,-4.6769,-4.7631,-4.8934,-4.8984,-4.845,-4.7655,-4.7523,-4.6952,-4.6048,-4.5773,-4.6673,-4.7591,-4.8196,-4.8306,-4.8306,-4.8306,-4.8306,-4.8306,-4.8306,-4.8306,-4.8306,-4.8306,-4.8306,-4.8226,-4.8119,-4.7674,-4.7047,-4.6253,-4.6165,-4.6094,-4.5965,-4.5545,-4.5267,-4.5267,-4.4814,-4.4587,-4.4587,-4.4587,-4.4587,-4.4587,-4.4587,-4.4587,-4.4587,-4.4587,-4.4587,-4.4587,-4.4587,-4.4587,-4.4587,-4.4587,-4.4587,-4.4587,-4.4587,-4.4587,-4.4587,-4.4587,-4.4587,-4.4587,-4.4587,-4.4587,-4.4587,-4.4587,-4.4587,-4.4401,-4.3436,-4.2625,-4.1914,-4.1356,-4.0646,-4.007,-4.007,-4.007,-4.007,-4.007,-4.007,-4.007,-4.007,-4.0417,-4.0733,-4.0856,-4.078,-4.0733,-4.0856,-4.1203,-4.1204,-4.0443,-4.1001,-4.1187,-4.0443,-4.0189,-4.007,-4.007,-4.007,-4.0307,-4.0899,-4.0409,-4.0341,-4.0916,-4.0373,-4.0087,-4.0087,-4.007,-4.007,-4.007,-4.007,-4.073,-4.2049,-4.298,-4.3826,-4.4587,-4.4587,-4.4587,-4.4587,-4.4587,-4.5111,-4.6007,-4.6566,-4.7344,-4.824,-4.8781,-4.8861,-4.8497,-4.7088,-4.6384,-4.5961,-4.5736,-4.6544,-4.7353,-4.8159,-4.8306,-4.8306,-4.8306,-4.8306,-4.8306,-4.8306,-4.8306,-4.8306,-4.8306,-4.8306,-4.8306,-4.8306,-4.8011,-4.7525,-4.6908,-4.6855,-4.6571,-4.6014,-4.5681,-4.5372,-4.5089,-4.4776,-4.4587,-4.4587,-4.4587,-4.4587,-4.4587,-4.4587,-4.4587,-4.4587,-4.4587,-4.4587,-4.4587,-4.4587,-4.4587,-4.4587,-4.4587,-4.4587,-4.4587,-4.4587,-4.4587,-4.4587,-4.4587,-4.4587,-4.4587,-4.4587,-4.4587,-4.4587,-4.4587,-4.4587,-4.4485,-4.4079,-4.3166,-4.2202,-4.1813,-4.0916,-4.007,-4.007,-4.007,-4.007,-4.007,-4.007,-4.0154,-4.0417,-4.0703,-4.1087,-4.1621,-4.1268,-4.0995,-4.1268,-4.1229,-4.0933,-4.0189,-4.073,-4.0933,-4.0172,-4.007,-4.007,-4.007,-4.007,-4.0257,-4.0663,-4.0307,-4.0257,-4.0679,-4.0307,-4.007,-4.007,-4.007,-4.007,-4.007,-4.0747,-4.1491,-4.2303,-4.342,-4.4181,-4.4587,-4.4587,-4.4587,-4.4587,-4.4587,-4.501,-4.5771,-4.6498,-4.7242,-4.7986,-4.8714,-4.8719,-4.8225,-4.7239,-4.633,-4.5488,-4.5735,-4.6434,-4.7224,-4.8122,-4.8306,-4.8306,-4.8306,-4.8306,-4.8306,-4.8306,-4.8306,-4.8306,-4.8306,-4.8306,-4.8306,-4.8306,-4.8306,-4.809,-4.7558,-4.7518,-4.6999,-4.5833,-4.5681,-4.5372,-4.4776,-4.4626,-4.4587,-4.4587,-4.4587,-4.4587,-4.4587,-4.4587,-4.4587,-4.4587,-4.4587,-4.4587,-4.4587,-4.4587,-4.4587,-4.4587,-4.4587,-4.4587,-4.4587,-4.4587,-4.4587,-4.4587,-4.4587,-4.4587,-4.4587,-4.4587,-4.4587,-4.4587,-4.4587,-4.4587,-4.4587,-4.4587,-4.3572,-4.2439,-4.232,-4.1204,-4.007,-4.007,-4.007,-4.007,-4.007,-4.007,-4.0237,-4.078,-4.0949,-4.1402,-4.248,-4.1941,-4.1488,-4.1884,-4.1722,-4.1188,-4.0392,-4.0798,-4.0933,-4.0172,-4.007,-4.007,-4.007,-4.007,-4.007,-4.007,-4.007,-4.007,-4.007,-4.007,-4.007,-4.007,-4.007,-4.0121,-4.024,-4.1728,-4.2472,-4.2472,-4.391,-4.4587,-4.4587,-4.4587,-4.4587,-4.4587,-4.4587,-4.4942,-4.5602,-4.6447,-4.7175,-4.7834,-4.868,-4.8513,-4.7803,-4.7655,-4.6625,-4.53,-4.56,-4.5992,-4.6526,-4.8049,-4.8306,-4.8306,-4.8306,-4.8306,-4.8306,-4.8306,-4.8306,-4.8306,-4.8306,-4.8306,-4.8306,-4.8306,-4.8306,-4.8267,-4.8169,-4.8132,-4.7838,-4.715,-4.6571,-4.5965,-4.5355,-4.4852,-4.4587,-4.4587,-4.4587,-4.4587,-4.4587,-4.4587,-4.4587,-4.4587,-4.4587,-4.4587,-4.4587,-4.4587,-4.4587,-4.4587,-4.4587,-4.4587,-4.4587,-4.4587,-4.4587,-4.4587,-4.4587,-4.4587,-4.4587,-4.4587,-4.4587,-4.4587,-4.4587,-4.4587,-4.4587,-4.4587,-4.3944,-4.3098,-4.2472,-4.1204,-4.007,-4.007,-4.007,-4.007,-4.007,-4.007,-4.0237,-4.078,-4.1313,-4.1895,-4.2577,-4.3098,-4.3268,-4.281,-4.2865,-4.253,-4.1222,-4.1136,-4.0933,-4.0172,-4.007,-4.007,-4.007,-4.007,-4.007,-4.007,-4.007,-4.007,-4.007,-4.007,-4.007,-4.007,-4.007,-4.0392,-4.1018,-4.2506,-4.325,-4.325,-4.4147,-4.4587,-4.4587,-4.4587,-4.4587,-4.4587,-4.4587,-4.4637,-4.4857,-4.6227,-4.6853,-4.7107,-4.8477,-4.894,-4.8719,-4.7868,-4.7456,-4.7104,-4.5013,-4.5368,-4.5792,-4.6838,-4.7243,-4.75,-4.7644,-4.8029,-4.8306,-4.8306,-4.8306,-4.8306,-4.8306,-4.8306,-4.8306,-4.8306,-4.8306,-4.8306,-4.8306,-4.7995,-4.7512,-4.691,-4.624,-4.5648,-4.5052,-4.472,-4.4587,-4.4587,-4.4587,-4.4587,-4.4587,-4.4587,-4.4587,-4.4587,-4.4587,-4.4587,-4.4587,-4.4587,-4.4587,-4.4587,-4.4587,-4.4587,-4.4587,-4.4587,-4.4587,-4.4587,-4.4587,-4.4587,-4.4587,-4.4587,-4.4587,-4.4587,-4.4587,-4.4587,-4.4587,-4.4587,-4.3741,-4.2658,-4.1914,-4.0916,-4.007,-4.007,-4.007,-4.007,-4.007,-4.0336,-4.0703,-4.1268,-4.1853,-4.2462,-4.3014,-4.3192,-4.3156,-4.2821,-4.2334,-4.1778,-4.1111,-4.0814,-4.046,-4.0121,-4.007,-4.007,-4.007,-4.007,-4.007,-4.007,-4.007,-4.007,-4.007,-4.007,-4.007,-4.007,-4.007,-4.0443,-4.1204,-4.2269,-4.3014,-4.342,-4.4215,-4.4587,-4.4587,-4.4587,-4.4587,-4.4587,-4.4587,-4.4587,-4.4688,-4.6177,-4.6786,-4.6938,-4.8426,-4.9001,-4.894,-4.8497,-4.8015,-4.7589,-4.4554,-4.4873,-4.5187,-4.5792,-4.6247,-4.6596,-4.6781,-4.7459,-4.8029,-4.8288,-4.8306,-4.8306,-4.8306,-4.8306,-4.8306,-4.8306,-4.8306,-4.8306,-4.8306,-4.7614,-4.6955,-4.6413,-4.5681,-4.5089,-4.4626,-4.4587,-4.4587,-4.4587,-4.4587,-4.4587,-4.4587,-4.4587,-4.4587,-4.4587,-4.4587,-4.4587,-4.4587,-4.4587,-4.4587,-4.4587,-4.4587,-4.4587,-4.4587,-4.4587,-4.4587,-4.4587,-4.4587,-4.4587,-4.4587,-4.4587,-4.4587,-4.4587,-4.4587,-4.4587,-4.4587,-4.4587,-4.3487,-4.2168,-4.161,-4.0781,-4.007,-4.007,-4.007,-4.007,-4.007,-4.048,-4.1087,-4.1664,-4.2302,-4.2864,-4.341,-4.3324,-4.3098,-4.2982,-4.2203,-4.1513,-4.1394,-4.0728,-4.0286,-4.0286,-4.0171,-4.007,-4.007,-4.007,-4.007,-4.007,-4.007,-4.007,-4.007,-4.007,-4.007,-4.007,-4.0257,-4.0696,-4.1457,-4.2185,-4.2929,-4.369,-4.4282,-4.4587,-4.4587,-4.4587,-4.4587,-4.4587,-4.4587,-4.4671,-4.4942,-4.6244,-4.6887,-4.7192,-4.8494,-4.9001,-4.9001,-4.9001,-4.8513,-4.8015,-4.4554,-4.4707,-4.5002,-4.5754,-4.5937,-4.5975,-4.5993,-4.645,-4.7163,-4.8157,-4.8306,-4.8306,-4.8306,-4.8306,-4.8306,-4.8306,-4.8306,-4.8306,-4.8306,-4.7132,-4.6478,-4.6383,-4.5267,-4.4626,-4.4587,-4.4587,-4.4587,-4.4587,-4.4587,-4.4587,-4.4587,-4.4587,-4.4587,-4.4587,-4.4587,-4.4587,-4.4587,-4.4587,-4.4587,-4.4587,-4.4587,-4.4587,-4.4587,-4.4587,-4.4587,-4.4587,-4.4587,-4.4587,-4.4587,-4.4587,-4.4587,-4.4587,-4.4587,-4.4587,-4.4587,-4.4587,-4.3487,-4.2286,-4.2219,-4.117,-4.007,-4.007,-4.007,-4.007,-4.007,-4.048,-4.1087,-4.1664,-4.2302,-4.2864,-4.341,-4.4068,-4.4364,-4.3815,-4.3696,-4.3458,-4.2855,-4.166,-4.0856,-4.0856,-4.0417,-4.007,-4.007,-4.007,-4.007,-4.007,-4.007,-4.007,-4.007,-4.007,-4.007,-4.007,-4.0747,-4.1474,-4.2202,-4.2963,-4.3724,-4.4485,-4.4553,-4.4587,-4.4587,-4.4587,-4.4587,-4.4587,-4.4587,-4.4976,-4.5686,-4.6464,-4.7208,-4.7919,-4.8697,-4.9001,-4.9001,-4.9001,-4.894,-4.894,-4.3915,-4.3973,-4.4048,-4.4358,-4.4413,-4.458,-4.5076,-4.5315,-4.5773,-4.6691,-4.6819,-4.68,-4.6801,-4.682,-4.6819,-4.6819,-4.6819,-4.6852,-4.6993,-4.6177,-4.5536,-4.5303,-4.4869,-4.4587,-4.4587,-4.4587,-4.4587,-4.4587,-4.4587,-4.4587,-4.4587,-4.4587,-4.4587,-4.4587,-4.4587,-4.4587,-4.4587,-4.4587,-4.4587,-4.4587,-4.4587,-4.4587,-4.4587,-4.4587,-4.4587,-4.4587,-4.4587,-4.4587,-4.4587,-4.4587,-4.4587,-4.4587,-4.4587,-4.4587,-4.4587,-4.4587,-4.3487,-4.2286,-4.2286,-4.1204,-4.007,-4.007,-4.0319,-4.0625,-4.0625,-4.1313,-4.208,-4.2302,-4.2808,-4.325,-4.3444,-4.3736,-4.3868,-4.3652,-4.3355,-4.3066,-4.2831,-4.203,-4.1313,-4.0949,-4.1059,-4.103,-4.0607,-4.0625,-4.0625,-4.0625,-4.0286,-4.007,-4.007,-4.007,-4.007,-4.007,-4.0358,-4.1085,-4.2286,-4.2574,-4.3335,-4.4587,-4.4587,-4.4587,-4.4587,-4.4587,-4.4587,-4.4587,-4.4587,-4.501,-4.5771,-4.6498,-4.7242,-4.7986,-4.8714,-4.9001,-4.9001,-4.9001,-4.9001,-4.9001,-4.3497,-4.3497,-4.3497,-4.3497,-4.3497,-4.3681,-4.425,-4.4342,-4.4599,-4.5421,-4.5516,-4.5627,-4.5864,-4.5901,-4.5902,-4.5902,-4.614,-4.634,-4.6459,-4.5918,-4.5257,-4.4665,-4.4587,-4.4587,-4.4587,-4.4587,-4.4587,-4.4587,-4.4587,-4.4587,-4.4587,-4.4587,-4.4587,-4.4587,-4.4587,-4.4587,-4.4587,-4.4587,-4.4587,-4.4587,-4.4587,-4.4587,-4.4587,-4.4587,-4.4587,-4.4587,-4.4587,-4.4587,-4.4587,-4.4587,-4.4587,-4.4587,-4.4587,-4.4587,-4.4536,-4.4282,-4.3301,-4.2236,-4.2016,-4.1035,-4.007,-4.007,-4.048,-4.0903,-4.0903,-4.1835,-4.2711,-4.2711,-4.3142,-4.3497,-4.3497,-4.3497,-4.3497,-4.3497,-4.3178,-4.2939,-4.2939,-4.2462,-4.1937,-4.1534,-4.1664,-4.1621,-4.1206,-4.1161,-4.1161,-4.1161,-4.0711,-4.0343,-4.0131,-4.0086,-4.007,-4.007,-4.007,-4.0798,-4.2286,-4.2286,-4.3064,-4.4587,-4.4587,-4.4587,-4.4587,-4.4587,-4.4587,-4.4587,-4.4587,-4.5145,-4.6075,-4.6583,-4.7378,-4.8308,-4.8798,-4.9001,-4.9001,-4.9001,-4.9001,-4.9001,-4.3497,-4.3497,-4.3497,-4.3497,-4.3497,-4.3497,-4.3497,-4.3497,-4.3789,-4.4591,-4.4689,-4.5002,-4.5772,-4.5883,-4.5883,-4.5883,-4.6636,-4.7057,-4.7075,-4.6657,-4.5883,-4.4682,-4.4587,-4.4587,-4.4587,-4.4587,-4.4587,-4.4587,-4.4587,-4.4587,-4.4587,-4.4587,-4.4587,-4.4587,-4.4587,-4.4587,-4.4587,-4.4587,-4.4587,-4.4587,-4.4587,-4.4587,-4.4587,-4.4587,-4.4587,-4.4587,-4.4643,-4.457,-4.4587,-4.4643,-4.457,-4.4587,-4.4587,-4.4587,-4.4418,-4.3656,-4.2878,-4.2134,-4.1407,-4.0646,-4.007,-4.0138,-4.0497,-4.0903,-4.0903,-4.1835,-4.2711,-4.2711,-4.3142,-4.3497,-4.3497,-4.3497,-4.3497,-4.3497,-4.3497,-4.3497,-4.3497,-4.305,-4.2693,-4.2711,-4.2162,-4.1793,-4.181,-4.181,-4.181,-4.181,-4.1407,-4.0876,-4.0141,-4.0097,-4.0121,-4.007,-4.007,-4.0798,-4.2286,-4.2286,-4.3064,-4.4587,-4.4587,-4.4587,-4.4587,-4.4587,-4.4587,-4.4587,-4.4587,-4.5415,-4.6786,-4.6786,-4.7665,-4.9001,-4.9001,-4.9001,-4.9001,-4.9001,-4.9001,-4.9001,-4.3497,-4.3497,-4.3497,-4.3497,-4.3497,-4.3497,-4.3497,-4.3497,-4.3605,-4.3807,-4.3881,-4.3938,-4.4193,-4.423,-4.4433,-4.5021,-4.5296,-4.551,-4.5745,-4.5769,-4.5407,-4.4626,-4.4587,-4.4587,-4.4587,-4.4587,-4.4587,-4.4587,-4.4587,-4.4587,-4.4587,-4.4587,-4.4587,-4.4587,-4.4587,-4.4587,-4.4587,-4.4587,-4.4587,-4.4587,-4.4587,-4.4587,-4.4587,-4.4587,-4.4587,-4.4682,-4.5089,-4.4944,-4.4682,-4.5089,-4.4944,-4.4587,-4.4587,-4.4587,-4.4418,-4.3656,-4.2878,-4.2134,-4.1407,-4.0646,-4.0204,-4.0577,-4.1087,-4.1621,-4.208,-4.2752,-4.325,-4.325,-4.341,-4.3497,-4.3497,-4.3497,-4.3497,-4.3497,-4.3497,-4.3497,-4.3497,-4.3375,-4.3142,-4.2732,-4.2884,-4.2865,-4.248,-4.244,-4.244,-4.244,-4.1932,-4.1165,-4.0158,-4.0092,-4.0092,-4.0121,-4.007,-4.0798,-4.2286,-4.2286,-4.3064,-4.4587,-4.4587,-4.4587,-4.4587,-4.4587,-4.4587,-4.4587,-4.4587,-4.5415,-4.6786,-4.6786,-4.7665,-4.9001,-4.9001,-4.9001,-4.9001,-4.9001,-4.9001,-4.9001,-4.3497,-4.3497,-4.3497,-4.3497,-4.3497,-4.3497,-4.3497,-4.3497,-4.3497,-4.3497,-4.3497,-4.3497,-4.3497,-4.3773,-4.4048,-4.4213,-4.4525,-4.4944,-4.5534,-4.547,-4.5233,-4.4981,-4.472,-4.4587,-4.4587,-4.4587,-4.4587,-4.4587,-4.4587,-4.4587,-4.4587,-4.4587,-4.4587,-4.4587,-4.4587,-4.4587,-4.4587,-4.4587,-4.4587,-4.4587,-4.4587,-4.4587,-4.4587,-4.4587,-4.4587,-4.4626,-4.4998,-4.4906,-4.4682,-4.5052,-4.4906,-4.4587,-4.4587,-4.4587,-4.4418,-4.3656,-4.2878,-4.2134,-4.1407,-4.0646,-4.0303,-4.1059,-4.1534,-4.1937,-4.2577,-4.3124,-4.3497,-4.3497,-4.3497,-4.3497,-4.3497,-4.3497,-4.3497,-4.3497,-4.3497,-4.3497,-4.3497,-4.3497,-4.3375,-4.305,-4.3286,-4.3375,-4.305,-4.3014,-4.3014,-4.3014,-4.2663,-4.1948,-4.0857,-4.062,-4.0418,-4.0121,-4.007,-4.0798,-4.2286,-4.2286,-4.3064,-4.4587,-4.4587,-4.4587,-4.4587,-4.4587,-4.4587,-4.4587,-4.4587,-4.5415,-4.6786,-4.6786,-4.7665,-4.9001,-4.9001,-4.9001,-4.9001,-4.9001,-4.9001,-4.9001,-4.3497,-4.3497,-4.3497,-4.3497,-4.3497,-4.3497,-4.3497,-4.3497,-4.3497,-4.3497,-4.3497,-4.3516,-4.3589,-4.4268,-4.4433,-4.3754,-4.4378,-4.5241,-4.623,-4.5561,-4.5181,-4.5407,-4.4804,-4.4468,-4.4468,-4.4536,-4.4587,-4.4587,-4.4587,-4.4587,-4.4587,-4.4587,-4.4587,-4.4587,-4.4587,-4.4587,-4.4587,-4.4587,-4.4587,-4.4587,-4.4587,-4.4587,-4.4587,-4.4587,-4.4587,-4.4626,-4.4682,-4.4626,-4.4587,-4.4587,-4.4587,-4.4587,-4.4587,-4.4587,-4.4418,-4.3572,-4.2828,-4.2117,-4.1322,-4.0646,-4.0417,-4.1552,-4.1853,-4.2021,-4.2655,-4.3142,-4.3497,-4.3497,-4.3497,-4.3497,-4.3497,-4.3497,-4.3497,-4.3497,-4.3497,-4.3497,-4.3497,-4.3497,-4.3497,-4.3497,-4.3497,-4.3497,-4.3497,-4.3497,-4.3497,-4.3497,-4.3488,-4.3048,-4.2008,-4.1542,-4.0982,-4.0238,-4.0171,-4.0883,-4.2286,-4.2286,-4.3064,-4.4587,-4.4587,-4.4587,-4.4587,-4.4587,-4.4587,-4.4587,-4.4587,-4.5415,-4.6786,-4.6786,-4.7665,-4.9001,-4.9001,-4.9001,-4.9001,-4.9001,-4.9001,-4.9001,-4.3497,-4.3497,-4.3497,-4.3497,-4.3497,-4.3497,-4.3497,-4.3497,-4.3497,-4.3497,-4.3497,-4.3736,-4.4378,-4.4617,-4.4892,-4.5333,-4.5535,-4.6063,-4.7066,-4.5365,-4.4437,-4.4626,-4.4002,-4.3673,-4.3673,-4.4265,-4.4587,-4.4587,-4.4587,-4.4587,-4.4587,-4.4587,-4.4587,-4.4587,-4.4587,-4.4587,-4.4587,-4.4587,-4.4587,-4.4587,-4.4587,-4.4587,-4.4587,-4.4587,-4.4587,-4.4682,-4.5142,-4.4998,-4.4587,-4.4587,-4.4587,-4.4587,-4.4587,-4.4587,-4.4316,-4.2929,-4.2422,-4.1999,-4.0679,-4.0536,-4.092,-4.1621,-4.2162,-4.2637,-4.3214,-4.341,-4.3497,-4.3497,-4.3497,-4.3497,-4.3497,-4.3497,-4.3497,-4.3497,-4.3497,-4.3497,-4.3497,-4.3497,-4.3497,-4.3497,-4.3497,-4.3497,-4.3497,-4.3497,-4.3497,-4.3497,-4.3501,-4.3397,-4.3159,-4.249,-4.1775,-4.1017,-4.0802,-4.1248,-4.2269,-4.2286,-4.3064,-4.4587,-4.4587,-4.4587,-4.4587,-4.4587,-4.4587,-4.4587,-4.4587,-4.5415,-4.6786,-4.6786,-4.7665,-4.9001,-4.9001,-4.9001,-4.9001,-4.9001,-4.9001,-4.9001,-4.3497,-4.3497,-4.3497,-4.3497,-4.3497,-4.3497,-4.3497,-4.3497,-4.3497,-4.3497,-4.3497,-4.3644,-4.4085,-4.447,-4.4874,-4.5296,-4.4984,-4.5297,-4.66,-4.533,-4.4751,-4.5262,-4.498,-4.4663,-4.4249,-4.5061,-4.5178,-4.4587,-4.4906,-4.4852,-4.4643,-4.4906,-4.4869,-4.4626,-4.4906,-4.5052,-4.4998,-4.472,-4.4776,-4.4998,-4.472,-4.4587,-4.4587,-4.4587,-4.4587,-4.4626,-4.4961,-4.4852,-4.4587,-4.4587,-4.4814,-4.4998,-4.4665,-4.4814,-4.4722,-4.3274,-4.2574,-4.2138,-4.1288,-4.0995,-4.1133,-4.1997,-4.248,-4.2826,-4.3375,-4.3497,-4.3497,-4.3497,-4.3497,-4.3497,-4.3497,-4.3497,-4.3497,-4.3497,-4.3497,-4.3497,-4.3497,-4.3497,-4.3497,-4.3497,-4.3497,-4.3497,-4.3497,-4.3497,-4.3497,-4.3497,-4.3497,-4.3395,-4.3132,-4.2747,-4.2068,-4.1071,-4.1336,-4.1724,-4.2269,-4.2642,-4.342,-4.4587,-4.4587,-4.4587,-4.4587,-4.4587,-4.4587,-4.4587,-4.4587,-4.5415,-4.6786,-4.6786,-4.7665,-4.9001,-4.9001,-4.9001,-4.9001,-4.9001,-4.9001,-4.9001,-4.3497,-4.3497,-4.3497,-4.3497,-4.3497,-4.3497,-4.3497,-4.3497,-4.3497,-4.3497,-4.3497,-4.3534,-4.3681,-4.4305,-4.4764,-4.4892,-4.403,-4.4176,-4.5792,-4.521,-4.5183,-4.5995,-4.615,-4.5864,-4.5022,-4.5906,-4.5915,-4.4906,-4.532,-4.5232,-4.4759,-4.5178,-4.5125,-4.4776,-4.5284,-4.5545,-4.5648,-4.5142,-4.5142,-4.5459,-4.4961,-4.4665,-4.4587,-4.4587,-4.4587,-4.4587,-4.4587,-4.4587,-4.4626,-4.472,-4.5089,-4.5407,-4.4906,-4.5196,-4.5321,-4.3671,-4.2921,-4.2518,-4.2023,-4.1563,-4.1446,-4.244,-4.2788,-4.2939,-4.341,-4.3497,-4.3497,-4.3497,-4.3497,-4.3497,-4.3497,-4.3497,-4.3497,-4.3497,-4.3497,-4.3497,-4.3497,-4.3497,-4.3497,-4.3497,-4.3497,-4.3497,-4.3497,-4.3497,-4.3497,-4.3497,-4.3497,-4.3304,-4.2864,-4.2826,-4.2284,-4.1087,-4.1824,-4.2236,-4.2286,-4.3047,-4.3809,-4.4587,-4.4587,-4.4587,-4.4587,-4.4587,-4.4587,-4.4587,-4.4587,-4.5415,-4.6786,-4.6786,-4.7665,-4.9001,-4.9001,-4.9001,-4.9001,-4.9001,-4.9001,-4.9001,-4.3497,-4.3497,-4.3497,-4.3497,-4.3497,-4.3497,-4.3497,-4.3497,-4.3497,-4.3497,-4.3497,-4.3754,-4.447,-4.4635,-4.4984,-4.5681,-4.436,-4.4176,-4.5792,-4.474,-4.4411,-4.5206,-4.5374,-4.505,-4.4289,-4.5687,-4.6336,-4.6143,-4.5732,-4.5459,-4.5372,-4.4906,-4.4961,-4.5355,-4.5459,-4.5783,-4.6288,-4.6192,-4.5915,-4.5511,-4.5407,-4.5052,-4.4587,-4.4587,-4.4587,-4.4587,-4.4587,-4.4587,-4.4665,-4.5178,-4.5407,-4.5511,-4.5407,-4.5783,-4.5765,-4.3218,-4.3113,-4.343,-4.158,-4.1753,-4.248,-4.2655,-4.305,-4.341,-4.3479,-4.3497,-4.3497,-4.3497,-4.3497,-4.3497,-4.3497,-4.3497,-4.3497,-4.3497,-4.3497,-4.3497,-4.3497,-4.3497,-4.3497,-4.3497,-4.3497,-4.3497,-4.3497,-4.3497,-4.3497,-4.3497,-4.3497,-4.3463,-4.341,-4.341,-4.2865,-4.1707,-4.2405,-4.2648,-4.2269,-4.3047,-4.3809,-4.4587,-4.4587,-4.4587,-4.4587,-4.4587,-4.4587,-4.4587,-4.4587,-4.5415,-4.6786,-4.6786,-4.7665,-4.9001,-4.9001,-4.9001,-4.9001,-4.9001,-4.9001,-4.9001,-4.3497,-4.3497,-4.3497,-4.3497,-4.3497,-4.3497,-4.3497,-4.3497,-4.3497,-4.3497,-4.3497,-4.3626,-4.3993,-4.403,-4.4176,-4.4525,-4.3901,-4.3975,-4.5149,-4.5113,-4.4983,-4.4892,-4.5805,-4.5956,-4.5102,-4.5771,-4.6566,-4.7452,-4.6161,-4.5699,-4.6014,-4.5732,-4.5732,-4.6014,-4.6383,-4.6728,-4.6955,-4.6571,-4.6478,-4.6495,-4.5783,-4.532,-4.5089,-4.472,-4.4587,-4.4587,-4.4587,-4.4587,-4.4665,-4.5267,-4.5732,-4.6014,-4.6014,-4.643,-4.6542,-4.4519,-4.3985,-4.3864,-4.2792,-4.2624,-4.2788,-4.305,-4.3321,-4.3497,-4.3497,-4.3497,-4.3497,-4.3497,-4.3497,-4.3497,-4.3497,-4.3497,-4.3497,-4.3497,-4.3497,-4.3497,-4.3497,-4.3497,-4.3497,-4.3497,-4.3497,-4.3497,-4.3497,-4.3497,-4.3497,-4.3497,-4.3497,-4.3497,-4.3497,-4.3497,-4.3177,-4.243,-4.3147,-4.3341,-4.2912,-4.3673,-4.4231,-4.4587,-4.4587,-4.4587,-4.4587,-4.4587,-4.4587,-4.4604,-4.5026,-4.5585,-4.6244,-4.7073,-4.7817,-4.8443,-4.8849,-4.9001,-4.9001,-4.9001,-4.9001,-4.9001]},{"header":{"parameterUnit":"m.s-1","parameterCategory":1,"la1":30.6,"la2":28.766,"lo1":-90.7593,"lo2":-88.6598,"dy":0.0162,"dx":0.0183,"nx":116,"ny":114,"refTime":"2024-05-27T12:00:00:Z","depth":0,"parameterNumber":3,"parameterNumberName":"V-component_of_WINDS"},"data":[0.0,0.0,0.0,0.0,0.0,0.0,0.0,0.0,0.0,0.0,0.0,0.0,0.0,0.0,0.0,0.0,0.0,0.0,0.0,0.0,0.0,0.0,0.0,0.0,0.0,0.0,0.0,0.0,0.0,0.0,0.0,0.0,0.0,0.0,0.0,0.0,0.0,0.0,0.0,0.0,0.0,0.0,0.0,0.0,0.0,0.0,0.0,0.0,0.0,0.0,0.0,0.0,0.0,0.0,0.0,0.0,0.0,0.0,0.0,0.0,0.0,0.0,0.0,0.0,0.0,0.0,0.0,0.0,0.0,0.0,0.0,0.0,0.0,0.0,0.0,0.0,0.0,0.0,0.0,0.0,0.0,0.0,0.0,0.0,0.0,0.0,0.0,0.0,0.0,0.0,0.0,0.0,0.0,0.0,0.0,0.0,0.0,0.0,0.0,0.0,0.0,0.0,0.0,0.0,0.0,0.0,0.0,0.0,0.0,0.0,0.0,0.0,0.0,0.0,0.0,0.0,0.0,0.0,0.0,0.0,0.0,0.0,0.0,0.0,0.0,0.0,0.0,0.0,0.0,0.0,0.0,0.0,0.0,0.0,0.0,0.0,0.0,0.0,0.0,0.0,0.0,0.0,0.0,0.0,0.0,0.0,0.0,0.0,0.0,0.0,0.0,0.0,0.0,0.0,0.0,0.0,0.0,0.0,0.0,0.0,0.0,0.0,0.0,0.0,0.0,0.0,0.0,0.0,0.0,0.0,0.0,0.0,0.0,0.0,0.0,0.0,0.0,0.0,0.0,0.0,0.0,0.0,0.0,0.0,0.0,0.0,0.0,0.0,0.0,0.0,0.0,0.0,0.0,0.0,0.0,0.0,0.0,0.0,0.0,0.0,0.0,0.0,0.0,0.0,0.0,0.0,0.0,0.0,0.0,0.0,0.0,0.0,0.0,0.0,0.0,0.0,0.0,0.0,0.0,0.0,0.0,0.0,0.0,0.0,0.0,0.0,0.0,0.0,0.0,0.0,0.0,0.0,0.0,0.0,0.0,0.0,0.0,0.0,0.0,0.0,0.0,0.0,0.0,0.0,0.0,0.0,0.0,0.0,0.0,0.0,0.0,0.0,0.0,0.0,0.0,0.0,0.0,0.0,0.0,0.0,0.0,0.0,0.0,0.0,0.0,0.0,0.0,0.0,0.0,0.0,0.0,0.0,0.0,0.0,0.0,0.0,0.0,0.0,0.0,0.0,0.0,0.0,0.0,0.0,0.0,0.0,0.0,0.0,0.0,0.0,0.0,0.0,0.0,0.0,0.0,0.0,0.0,0.0,0.0,0.0,0.0,0.0,0.0,0.0,0.0,0.0,0.0,0.0,0.0,0.0,0.0,0.0,0.0,0.0,0.0,0.0,0.0,0.0,0.0,0.0,0.0,0.0,0.0,0.0,0.0,0.0,0.0,0.0,0.0,0.0,0.0,0.0,0.0,0.0,0.0,0.0,0.0,0.0,0.0,0.0,0.0,0.0,0.0,0.0,0.0,0.0,0.0,0.0,0.0,0.0,0.0,0.0,0.0,0.0,0.0,0.0,0.0,0.0,0.0,0.0,0.0,0.0,0.0,0.0,0.0,0.0,0.0,0.0,0.0,0.0,0.0,0.0,0.0,0.0,0.0,0.0,0.0,0.0,0.0,0.0,0.0,0.0,0.0,0.0,0.0,0.0,0.0,0.0,0.0,0.0,0.0,0.0,0.0,0.0,0.0,0.0,0.0,0.0,0.0,0.0,0.0,0.0,0.0,0.0,0.0,0.0,0.0,0.0,0.0,0.0,0.0,0.0,0.0,0.0,0.0,0.0,0.0,0.0,0.0,0.0,0.0,0.0,0.0,0.0,0.0,0.0,0.0,0.0,0.0,0.0,0.0,0.0,0.0,0.0,0.0,0.0,0.0,0.0,0.0,0.0,0.0,0.0,0.0,0.0,0.0,0.0,0.0,0.0,0.0,0.0,0.0,0.0,0.0,0.0,0.0,0.0,0.0,0.0,0.0,0.0,0.0,0.0,0.0,0.0,0.0,0.0,0.0,0.0,0.0,0.0,0.0,0.0,0.0,0.0,0.0,0.0,0.0,0.0,0.0,0.0,0.0,0.0,0.0,0.0,0.0,0.0,0.0,0.0,0.0,0.0,0.0,0.0,0.0,0.0,0.0,0.0,0.0,0.0,0.0,0.0,0.0,0.0,0.0,0.0,0.0,0.0,0.0,0.0,0.0,0.0,0.0,0.0,0.0,0.0,0.0,0.0,0.0,0.0,0.0,0.0,0.0,0.0,0.0,0.0,0.0,0.0,0.0,0.0,0.0,0.0,0.0,0.0,0.0,0.0,0.0,0.0,0.0,0.0,0.0,0.0,0.0,0.0,0.0,0.0,0.0,0.0,0.0,0.0,0.0,0.0,0.0,0.0,0.0,0.0,0.0,0.0,0.0,0.0,0.0,0.0,0.0,0.0,0.0,0.0,0.0,0.0,0.0,0.0,0.0,0.0,0.0,0.0,0.0,0.0,0.0,0.0,0.0,0.0,0.0,0.0,0.0,0.0,0.0,0.0,0.0,0.0,0.0,0.0,0.0,0.0,0.0,0.0,0.0,0.0,0.0,0.0,0.0,0.0,0.0,0.0,0.0,0.0,0.0,0.0,0.0,0.0,0.0,0.0,0.0,0.0,0.0,0.0,0.0,0.0,0.0,0.0,0.0,0.0,0.0,0.0,0.0,0.0,0.0,0.0,0.0,0.0,0.0,0.0,0.0,0.0,0.0,0.0,0.0,0.0,0.0,0.0,0.0,0.0,0.0,0.0,0.0,0.0,0.0,0.0,0.0,0.0,0.0,0.0,0.0,0.0,0.0,0.0,0.0,0.0,0.0,0.0,0.0,0.0,0.0,0.0,0.0,0.0,0.0,0.0,0.0,0.0,0.0,0.0,0.0,0.0,0.0,0.0,0.0,0.0,0.0,0.0,0.0,0.0,0.0,0.0,0.0,0.0,0.0,0.0,0.0,0.0,0.0,0.0,0.0,0.0,0.0,0.0,0.0,0.0,0.0,0.0,0.0,0.0,0.0,0.0,0.0,0.0,0.0,0.0,0.0,0.0,0.0,0.0,0.0,0.0,0.0,0.0,0.0,0.0,0.0,0.0,0.0,0.0,0.0,0.0,0.0,0.0,0.0,0.0,0.0,0.0,0.0,0.0,0.0,0.0,0.0,0.0,0.0,0.0,0.0,0.0,0.0,0.0,0.0,0.0,0.0,0.0,0.0,0.0,0.0,0.0,0.0,0.0,0.0,0.0,0.0,0.0,0.0,0.0,0.0,0.0,0.0,0.0,0.0,0.0,0.0,0.0,0.0,0.0,0.0,0.0,0.0,0.0,0.0,0.0,0.0,0.0,0.0,0.0,0.0,0.0,0.0,0.0,0.0,0.0,0.0,0.0,0.0,0.0,0.0,0.0,0.0,0.0,0.0,0.0,0.0,0.0,0.0,0.0,0.0,0.0,0.0,0.0,0.0,0.0,0.0,0.0,0.0,0.0,0.0,0.0,0.0,0.0,0.0,0.0,0.0,0.0,0.0,0.0,0.0,0.0,0.0,0.0,0.0,0.0,0.0,0.0,0.0,0.0,0.0,0.0,0.0,0.0,0.0,0.0,0.0,0.0,0.0,0.0,0.0,0.0,0.0,0.0,0.0,0.0,0.0,0.0,0.0,0.0,0.0,0.0,0.0,0.0,0.0,0.0,0.0,0.0,0.0,0.0,0.0,0.0,0.0,0.0,0.0,0.0,0.0,0.0,0.0,0.0,0.0,0.0,0.0,0.0,0.0,0.0,0.0,0.0,0.0,0.0,0.0,0.0,0.0,0.0,0.0,0.0,0.0,0.0,0.0,0.0,0.0,0.0,0.0,0.0,0.0,0.0,0.0,0.0,0.0,0.0,0.0,0.0,0.0,0.0,0.0,0.0,0.0,0.0,0.0,0.0,0.0,0.0,0.0,0.0,0.0,0.0,0.0,0.0,0.0,0.0,0.0,0.0,0.0,0.0,0.0,0.0,0.0,0.0,0.0,0.0,0.0,0.0,0.0,0.0,0.0,0.0,0.0,0.0,0.0,0.0,0.0,0.0,0.0,0.0,0.0,0.0,0.0,0.0,0.0,0.0,0.0,0.0,0.0,0.0,0.0,0.0,0.0,0.0,0.0,0.0,0.0,0.0,0.0,0.0,0.0,0.0,0.0,0.0,0.0,0.0,0.0,0.0,0.0,0.0,0.0,0.0,0.0,0.0,0.0,0.0,0.0,0.0,0.0,0.0,0.0,0.0,0.0,0.0,0.0,0.0,0.0,0.0,0.0,0.0,0.0,0.0,0.0,0.0,0.0,0.0,0.0,0.0,0.0,0.0,0.0,0.0,0.0,0.0,0.0,0.0,0.0,0.0,0.0,0.0,0.0,0.0,0.0,0.0,0.0,0.0,0.0,0.0,0.0,0.0,0.0,0.0,0.0,0.0,0.0,0.0,0.0,0.0,0.0,0.0,0.0,0.0,0.0,0.0,0.0,0.0,0.0,0.0,0.0,0.0,0.0,0.0,0.0,0.0,0.0,0.0,0.0,0.0,0.0,0.0,0.0,0.0,0.0,0.0,0.0,0.0,0.0,0.0,0.0,0.0,0.0,0.0,0.0,0.0,0.0,0.0,0.0,0.0,0.0,0.0,0.0,0.0,0.0,0.0,0.0,0.0,0.0,0.0,0.0,0.0,0.0,0.0,0.0,0.0,0.0,0.0,0.0,0.0,0.0,0.0,0.0,0.0,0.0,0.0,0.0,0.0,0.0,0.0,0.0,0.0,0.0,0.0,0.0,0.0,0.0,0.0,0.0,0.0,0.0,0.0,0.0,0.0,0.0,0.0,0.0,0.0,0.0,0.0,0.0,0.0,0.0,0.0,0.0,0.0,0.0,0.0,0.0,0.0,0.0,0.0,0.0,0.0,0.0,0.0,0.0,0.0,0.0,0.0,0.0,0.0,0.0,0.0,0.0,0.0,0.0,0.0,0.0,0.0,0.0,0.0,0.0,0.0,0.0,0.0,0.0,0.0,0.0,0.0,0.0,0.0,0.0,0.0,0.0,0.0,0.0,0.0,0.0,0.0,0.0,0.0,0.0,0.0,0.0,0.0,0.0,0.0,0.0,0.0,0.0,0.0,0.0,0.0,0.0,0.0,0.0,0.0,0.0,0.0,0.0,0.0,0.0,0.0,0.0,0.0,0.0,0.0,0.0,0.0,0.0,0.0,0.0,0.0,0.0,0.0,0.0,0.0,0.0,0.0,0.0,0.0,0.0,0.0,0.0,0.0,0.0,0.0,0.0,0.0,0.0,0.0,0.0,0.0,0.0,0.0,0.0,0.0,0.0,0.0,0.0,0.0,0.0,0.0,0.0,0.0,0.0,0.0,0.0,0.0,0.0,0.0,0.0,0.0,0.0,0.0,0.0,0.0,0.0,0.0,0.0,0.0,0.0,0.0,0.0,0.0,0.0,0.0,0.0,0.0,0.0,0.0,0.0,0.0,0.0,0.0,0.0,0.0,0.0,0.0,0.0,0.0,0.0,0.0,0.0,0.0,0.0,0.0,0.0,0.0,0.0,0.0,0.0,0.0,0.0,0.0,0.0,0.0,0.0,0.0,0.0,0.0,0.0,0.0,0.0,0.0,0.0,0.0,0.0,0.0,0.0,0.0,0.0,0.0,0.0,0.0,0.0,0.0,0.0,0.0,0.0,0.0,0.0,0.0,0.0,0.0,0.0,0.0,0.0,0.0,0.0,0.0,0.0,0.0,0.0,0.0,0.0,0.0,0.0,0.0,0.0,0.0,0.0,0.0,0.0,0.0,0.0,0.0,0.0,0.0,0.0,0.0,0.0,0.0,0.0,0.0,0.0,0.0,0.0,0.0,0.0,0.0,0.0,0.0,0.0,0.0,0.0,0.0,0.0,0.0,0.0,0.0,0.0,0.0,0.0,0.0,0.0,0.0,0.0,0.0,0.0,0.0,0.0,0.0,0.0,0.0,0.0,0.0,0.0,0.0,0.0,0.0,0.0,0.0,-2.5098,-2.4648,0.0,0.0,0.0,0.0,0.0,0.0,0.0,0.0,0.0,0.0,0.0,0.0,0.0,0.0,0.0,0.0,0.0,0.0,0.0,0.0,0.0,0.0,0.0,-2.5245,-2.5149,-2.5005,-2.5,-2.4945,-2.4813,0.0,0.0,0.0,0.0,0.0,-2.5263,-2.5428,-2.5398,-2.5168,-2.4374,-2.3116,-2.1477,-2.1523,-2.2041,-2.2912,0.0,0.0,0.0,0.0,0.0,0.0,0.0,0.0,0.0,0.0,0.0,0.0,0.0,0.0,0.0,0.0,0.0,0.0,0.0,0.0,0.0,0.0,0.0,0.0,0.0,0.0,0.0,0.0,0.0,0.0,0.0,0.0,0.0,0.0,0.0,0.0,0.0,0.0,0.0,0.0,0.0,0.0,0.0,0.0,0.0,0.0,0.0,0.0,0.0,0.0,0.0,0.0,0.0,0.0,0.0,0.0,0.0,0.0,0.0,0.0,0.0,0.0,0.0,0.0,0.0,0.0,0.0,0.0,0.0,0.0,-2.6299,-2.5879,0.0,0.0,0.0,0.0,0.0,0.0,0.0,0.0,0.0,0.0,0.0,0.0,0.0,0.0,0.0,0.0,0.0,0.0,0.0,0.0,0.0,-2.3447,-2.513,-2.5329,-2.5222,-2.4976,-2.5066,-2.5039,-2.4783,-2.4861,0.0,0.0,0.0,-2.5158,-2.5185,-2.5351,-2.5194,-2.4676,-2.3037,-2.1259,-1.9358,-1.841,-1.9107,-2.1119,-2.1864,0.0,0.0,0.0,0.0,0.0,0.0,0.0,0.0,0.0,0.0,0.0,0.0,0.0,0.0,0.0,0.0,0.0,0.0,0.0,0.0,0.0,0.0,0.0,0.0,0.0,0.0,0.0,0.0,0.0,0.0,0.0,0.0,0.0,0.0,0.0,0.0,0.0,0.0,0.0,0.0,0.0,0.0,0.0,0.0,0.0,0.0,0.0,0.0,0.0,0.0,0.0,0.0,0.0,0.0,0.0,0.0,0.0,0.0,0.0,0.0,0.0,0.0,0.0,-2.6289,-2.6592,-2.7353,-2.7432,-2.7656,-2.7978,-2.7695,-2.7441,-2.7236,-2.7236,0.0,0.0,0.0,0.0,0.0,0.0,0.0,0.0,0.0,0.0,0.0,0.0,0.0,0.0,0.0,0.0,0.0,0.0,0.0,-2.3466,-2.5197,-2.5182,-2.4966,-2.4754,-2.4803,-2.4783,-2.4645,-2.4856,0.0,0.0,-2.5356,-2.5417,-2.5535,-2.5351,-2.49,-2.419,-2.0829,-1.8538,-1.7279,-1.6324,-1.6579,-1.7917,-1.9712,-2.0926,-2.1674,0.0,0.0,0.0,0.0,0.0,0.0,0.0,0.0,0.0,0.0,0.0,0.0,0.0,0.0,0.0,0.0,0.0,0.0,0.0,0.0,0.0,0.0,0.0,0.0,0.0,0.0,0.0,0.0,0.0,0.0,0.0,0.0,0.0,0.0,0.0,0.0,0.0,0.0,0.0,0.0,0.0,-2.5499,-2.377,0.0,0.0,0.0,0.0,0.0,0.0,0.0,0.0,0.0,0.0,0.0,0.0,0.0,-2.5376,-2.5644,-2.6025,-2.6455,-2.6943,-2.7627,-2.8203,-2.8682,-2.9062,-2.9268,-2.9336,-2.9639,0.0,-2.8125,-2.8125,0.0,0.0,0.0,0.0,0.0,0.0,0.0,0.0,0.0,0.0,0.0,0.0,0.0,0.0,0.0,0.0,0.0,0.0,0.0,0.0,0.0,-2.4766,-2.4268,-2.3686,-2.3622,-2.3562,-2.3427,-2.3995,-2.4538,-2.4991,-2.5153,-2.5317,-2.5476,-2.5111,-2.3579,-2.0829,-1.7675,-1.576,-1.5099,-1.4327,-1.4778,-1.6303,-1.7544,-1.895,-2.0473,-2.1068,0.0,0.0,0.0,0.0,0.0,0.0,0.0,0.0,0.0,0.0,0.0,0.0,0.0,0.0,0.0,0.0,0.0,0.0,0.0,0.0,0.0,0.0,0.0,0.0,0.0,0.0,0.0,0.0,0.0,0.0,0.0,0.0,0.0,0.0,0.0,0.0,0.0,0.0,0.0,-2.5047,-2.3941,-2.2919,-2.2848,-2.3058,0.0,0.0,0.0,0.0,0.0,0.0,0.0,0.0,0.0,-2.5781,-2.581,-2.625,-2.7168,-2.7363,-2.7793,-2.8457,-2.8828,-2.9111,-2.9297,-2.9726,-2.9922,-2.9941,-3.0391,-3.0264,-2.9717,-2.9209,-2.876,-2.8437,0.0,0.0,0.0,0.0,-2.9154,-2.9684,0.0,0.0,0.0,0.0,0.0,0.0,0.0,0.0,0.0,0.0,0.0,0.0,-2.4473,-2.3823,-2.297,-2.1984,-2.2011,-2.2055,-2.2036,-2.2996,-2.3898,-2.4676,-2.4851,-2.5019,-2.524,-2.3952,-2.1412,-1.7607,-1.5029,-1.357,-1.3204,-1.2764,-1.346,-1.5071,-1.5716,-1.707,-1.9053,-1.9997,-2.0942,0.0,0.0,0.0,0.0,0.0,0.0,0.0,0.0,0.0,0.0,0.0,0.0,0.0,0.0,0.0,0.0,0.0,0.0,0.0,0.0,0.0,0.0,0.0,0.0,0.0,0.0,0.0,0.0,0.0,0.0,0.0,0.0,0.0,0.0,0.0,0.0,0.0,0.0,-2.3952,-2.3135,-2.2693,-2.2127,-2.2167,0.0,0.0,0.0,0.0,0.0,0.0,-2.5195,-2.5352,-2.5859,-2.6846,-2.6875,-2.7441,-2.8603,-2.8613,-2.8994,-2.9726,-2.9726,-2.9795,-2.9922,-3.0234,-3.0371,-3.0391,-3.0742,-3.0889,-3.083,-3.0049,-2.9541,-2.9199,-2.8779,-2.8613,-2.8662,-2.8975,-2.8955,-2.9085,0.0,0.0,0.0,0.0,0.0,0.0,0.0,0.0,0.0,0.0,0.0,-2.3103,-2.3266,-2.2127,-2.0855,-1.9587,-2.0018,-2.0447,-2.0775,-2.2145,-2.3467,-2.4653,-2.4531,-2.4562,-2.4829,-2.124,-1.8175,-1.5756,-1.3606,-1.233,-1.1861,-1.1877,-1.2589,-1.3909,-1.4514,-1.5704,-1.741,-1.8979,-2.0107,-2.0845,0.0,0.0,0.0,0.0,0.0,0.0,0.0,0.0,0.0,0.0,0.0,0.0,0.0,0.0,0.0,0.0,0.0,0.0,0.0,0.0,0.0,0.0,0.0,0.0,0.0,0.0,0.0,0.0,0.0,0.0,0.0,0.0,0.0,0.0,0.0,0.0,0.0,0.0,0.0,-2.3144,-2.3038,0.0,0.0,0.0,0.0,-2.4355,-2.4766,-2.5215,-2.5674,-2.6094,-2.6894,-2.8154,-2.8193,-2.8613,-2.9492,-2.9502,-2.9726,-3.0166,-3.0166,-3.0391,-3.083,-3.085,-3.0859,-3.0859,-3.0879,-3.0889,-3.085,-3.0361,-3.0156,-3.0088,-2.9668,-2.9502,-2.9512,-2.9531,-2.9775,-3.0107,0.0,0.0,0.0,0.0,0.0,-2.1042,-2.1283,-2.2206,-2.3152,-2.3946,-2.34,-2.2804,-2.2459,-2.0488,-1.8755,-1.7655,-1.7757,-1.8289,-1.9202,-2.0829,-2.2385,-2.3854,-2.4073,-2.3515,-2.22,-1.9214,-1.6718,-1.4697,-1.2917,-1.1944,-1.1811,-1.1778,-1.2502,-1.3815,-1.4422,-1.5431,-1.6777,-1.809,-1.9316,-2.0443,-2.1343,-2.2373,0.0,0.0,0.0,0.0,0.0,0.0,0.0,0.0,0.0,0.0,0.0,0.0,0.0,0.0,0.0,0.0,0.0,0.0,0.0,0.0,0.0,0.0,0.0,0.0,0.0,0.0,0.0,0.0,0.0,0.0,0.0,0.0,0.0,0.0,0.0,0.0,0.0,-2.3467,-2.282,0.0,-2.4059,-2.4453,-2.4795,-2.5234,-2.6502,-2.7165,-2.7045,-2.8166,-2.8844,-2.8672,-2.8965,-2.9394,-2.9971,-2.9971,-3.0195,-3.0644,-3.0644,-3.0732,-3.0889,-3.0889,-3.0889,-3.0889,-3.0889,-3.0889,-3.0879,-3.0713,-3.0644,-3.0635,-3.0478,-3.042,-3.042,-3.042,-3.0518,-3.075,0.0,0.0,0.0,0.0,-2.0735,-2.1257,-2.177,-2.2696,-2.3635,-2.4377,-2.3398,-2.2246,-2.1235,-1.8789,-1.675,-1.5555,-1.5938,-1.6836,-1.8265,-2.0213,-2.2048,-2.3586,-2.3471,-2.2275,-1.9933,-1.753,-1.5449,-1.3736,-1.2231,-1.1687,-1.2138,-1.2159,-1.2956,-1.4378,-1.4982,-1.5772,-1.6735,-1.8051,-1.9236,-2.0289,-2.1311,-2.2293,-2.3289,0.0,0.0,0.0,0.0,0.0,0.0,0.0,0.0,0.0,0.0,0.0,0.0,0.0,0.0,0.0,0.0,0.0,0.0,0.0,0.0,0.0,0.0,0.0,0.0,0.0,0.0,0.0,0.0,0.0,0.0,0.0,0.0,0.0,0.0,-2.3263,-2.2979,-2.3711,-2.317,-2.3381,-2.4711,-2.5127,-2.572,-2.6781,-2.81,-2.878,-2.8535,-2.9797,-3.0216,-2.9326,-2.9629,-2.999,-3.043,-3.043,-3.0586,-3.0889,-3.0889,-3.0889,-3.0889,-3.0889,-3.0889,-3.0889,-3.0889,-3.0889,-3.0889,-3.0889,-3.0889,-3.0889,-3.0889,-3.0889,-3.0889,-3.0889,-3.0889,-3.0995,0.0,0.0,0.0,-2.0312,-2.035,-2.0858,-2.2291,-2.2547,-2.3179,-2.4791,-2.327,-2.1347,-1.9553,-1.6996,-1.4804,-1.331,-1.4671,-1.6305,-1.8031,-2.0438,-2.2451,-2.3874,-2.2718,-2.0826,-1.8289,-1.615,-1.4327,-1.2832,-1.1536,-1.1576,-1.2846,-1.2867,-1.3825,-1.5548,-1.6151,-1.6747,-1.737,-1.8941,-1.9858,-2.0335,-2.1579,-2.2547,-2.3383,0.0,0.0,0.0,0.0,0.0,0.0,0.0,0.0,0.0,0.0,0.0,0.0,0.0,0.0,0.0,0.0,0.0,0.0,0.0,0.0,0.0,0.0,0.0,0.0,0.0,0.0,0.0,0.0,0.0,0.0,0.0,0.0,0.0,-2.4023,-2.3854,-2.3799,-2.3828,-2.4199,-2.4805,-2.5674,-2.5781,-2.6703,-2.8901,-2.9516,-2.9979,-3.0317,-3.08,-3.0833,-3.0176,-3.0205,-3.043,-3.0889,-3.0889,-3.0889,-3.0889,-3.0889,-3.0889,-3.0889,-3.0889,-3.0889,-3.0889,-3.0889,-3.0889,-3.0889,-3.0889,-3.0889,-3.0889,-3.0889,-3.0889,-3.0889,-3.0889,-3.0889,-3.0889,0.0,0.0,-2.0312,-2.0312,-2.1312,-2.2246,-2.2671,-2.3755,-2.4659,-2.5027,-2.2455,-2.0065,-1.8762,-1.5761,-1.3599,-1.3035,-1.4588,-1.6514,-1.8677,-2.0824,-2.2195,-2.2589,-2.1271,-1.9288,-1.6769,-1.5475,-1.4406,-1.3518,-1.315,-1.3414,-1.418,-1.4586,-1.5283,-1.6194,-1.6722,-1.7732,-1.8979,-1.9411,-2.0218,-2.1243,-2.1595,-2.266,-2.4116,0.0,0.0,0.0,0.0,0.0,0.0,0.0,0.0,0.0,0.0,0.0,0.0,0.0,0.0,0.0,0.0,0.0,0.0,0.0,0.0,0.0,0.0,0.0,0.0,0.0,0.0,0.0,0.0,0.0,0.0,0.0,-2.4519,-2.3969,-2.3857,-2.3811,-2.4023,-2.4648,-2.5107,-2.5596,-2.6152,-2.7632,-2.8894,-2.9436,-3.1095,-3.1717,-3.0821,-3.1458,-3.1349,-3.0185,-3.0527,-3.0762,-3.0889,-3.0889,-3.0889,-3.0889,-3.0889,-3.0889,-3.0889,-3.0889,-3.0889,-3.0889,-3.0889,-3.0889,-3.0889,-3.0889,-3.0889,-3.0889,-3.0889,-3.0889,-3.0889,-3.0889,-3.0889,-3.0889,0.0,-2.0312,-2.0408,-2.0735,-2.162,-2.2504,-2.3225,-2.4197,-2.4846,-2.4898,-2.2285,-1.9821,-1.8253,-1.5568,-1.3724,-1.3383,-1.5286,-1.744,-1.9578,-2.1563,-2.239,-2.1824,-2.0391,-1.8559,-1.628,-1.5498,-1.4762,-1.4171,-1.4406,-1.4801,-1.5413,-1.596,-1.6767,-1.7758,-1.8074,-1.895,-2.0215,-2.0522,-2.11,-2.1845,-2.2141,-2.2937,-2.3974,-2.4777,-2.5285,-2.5585,-2.5458,-2.5403,-2.5423,-2.5541,0.0,0.0,0.0,0.0,0.0,0.0,0.0,0.0,0.0,0.0,0.0,0.0,0.0,0.0,0.0,0.0,0.0,0.0,0.0,0.0,0.0,0.0,0.0,0.0,-2.42,-2.3961,-2.4045,-2.4053,-2.4307,-2.499,-2.6088,-2.7016,-2.7471,-2.9316,-3.0996,-3.1884,-3.2654,-3.2845,-3.2405,-3.2289,-3.1697,-3.0478,-3.0752,-3.0889,-3.0889,-3.0889,-3.0889,-3.0889,-3.0889,-3.0889,-3.0889,-3.0889,-3.0889,-3.0889,-3.0889,-3.0889,-3.0889,-3.0889,-3.0889,-3.0889,0.0,0.0,0.0,0.0,-3.0889,-3.0889,0.0,-2.0504,-2.0812,-2.1523,-2.1735,-2.2312,-2.386,-2.4225,-2.4399,-2.4599,-2.2538,-2.0267,-1.8178,-1.6193,-1.4817,-1.4266,-1.6574,-1.8895,0.0,0.0,-2.2831,-2.1444,-2.0047,-1.8438,-1.6534,-1.6034,-1.5506,-1.4959,-1.5481,-1.6046,-1.6693,-1.7302,-1.8341,-1.9718,-1.9808,-2.0338,-2.1212,-2.1893,-2.2228,-2.2337,-2.3041,-2.3341,-2.3584,-2.526,-2.5317,-2.4596,-2.5241,-2.5537,-2.5592,-2.5571,0.0,0.0,0.0,0.0,0.0,0.0,0.0,0.0,0.0,0.0,0.0,0.0,0.0,0.0,0.0,0.0,0.0,0.0,0.0,0.0,0.0,0.0,0.0,0.0,-2.4028,-2.3955,-2.4424,-2.4585,-2.4834,-2.5088,-2.7129,-2.86,-2.901,-3.0833,-3.2937,-3.484,-3.38,-3.3409,-3.4159,-3.2848,0.0,0.0,0.0,-3.0889,-3.0889,-3.0889,-3.0889,-3.0889,-3.0889,-3.0889,-3.0889,-3.0889,-3.0889,-3.0889,-3.0889,-3.0889,-3.0889,-3.0889,-3.0889,-3.0889,-3.0889,-3.0889,-3.0889,-3.0889,-3.0889,-3.0889,0.0,-2.1831,-2.237,-2.2524,-2.3129,-2.3706,-2.4052,-2.4716,-2.5072,-2.479,-2.2802,-2.0753,-1.9034,-1.7454,-1.6265,-1.574,-1.8119,-2.0787,0.0,0.0,-2.3066,-2.1458,-2.0517,-1.9092,-1.7106,-1.6959,-1.682,-1.6727,-1.7143,-1.7675,-1.8345,-1.9486,-2.0202,-2.0511,-2.1152,-2.1759,-2.2312,-2.2613,-2.2929,-2.328,-2.3858,-2.4277,-2.4622,-2.5139,-2.5794,-2.6321,-2.6014,-2.6287,-2.6831,-2.6656,-2.6711,-2.6968,-2.7707,0.0,0.0,0.0,0.0,0.0,0.0,0.0,0.0,0.0,0.0,0.0,0.0,0.0,0.0,0.0,0.0,0.0,0.0,0.0,0.0,-2.5837,-2.4722,-2.4062,-2.4834,-2.5754,-2.6196,-2.5643,-2.7503,-2.8947,-2.9042,-3.2327,-3.4198,-3.347,-3.3904,-3.368,-3.2674,-3.1653,-3.1014,-3.0889,-3.0889,-3.0889,-3.0889,-3.0889,-3.0889,-3.0889,-3.0889,0.0,-3.0889,-3.0889,-3.0889,-3.0889,-3.0889,-3.0889,-3.0889,-3.0889,-3.0889,-3.0889,-3.0889,-3.0889,-3.0889,-3.0889,-3.0889,-3.0889,-2.2793,-2.2821,-2.2975,-2.3379,-2.3841,-2.4283,-2.4678,-2.5159,-2.5294,-2.486,-2.3428,-2.1926,-2.0534,-1.9489,-1.8781,-1.854,-2.0552,0.0,0.0,-2.4148,-2.3254,-2.2048,-2.123,-2.0182,-1.881,-1.8821,-1.8803,-1.8782,-1.9231,-1.9669,-2.013,-2.1029,-2.1636,-2.1979,-2.238,-2.2782,-2.3227,-2.3505,-2.3783,-2.3981,-2.4418,-2.4731,-2.4912,-2.4964,-2.5364,-2.5858,-2.597,-2.6525,-2.7245,-2.758,-2.7904,-2.8199,-2.8503,-2.8113,-2.7691,0.0,0.0,0.0,0.0,0.0,0.0,0.0,0.0,0.0,0.0,0.0,0.0,0.0,0.0,-2.8571,-2.836,0.0,-2.7185,-2.688,-2.652,-2.6441,-2.6915,-2.7618,-2.7857,-2.7125,-2.9386,-3.1072,-3.1319,-3.4252,-3.574,-3.4462,-3.4441,-3.3879,-3.27,-3.1532,-3.0889,-3.0889,-3.0889,-3.0889,-3.0889,-3.0889,-3.0889,-3.0889,-3.0889,-3.0889,-3.0889,-3.0889,-3.0889,-3.0889,-3.0889,-3.0889,-3.0889,-3.0889,-3.0889,-3.0889,-3.0889,-3.0889,-3.0889,-3.0889,-3.0889,-3.0889,-2.4322,-2.3821,-2.3599,-2.4225,-2.4379,-2.463,-2.5274,-2.5438,-2.5321,-2.4905,-2.415,-2.3235,-2.2118,-2.1601,-2.1346,-2.1418,0.0,0.0,0.0,-2.4032,-2.3294,-2.2677,-2.205,-2.1446,-2.0812,-2.0816,-2.0831,-2.0814,-2.1317,-2.1619,-2.179,-2.2389,-2.2944,-2.3454,-2.35,-2.3713,-2.4011,-2.4379,-2.4631,-2.4798,-2.5101,-2.5337,-2.5482,-2.5425,-2.5178,-2.4988,-2.5849,-2.6679,-2.7498,-2.8309,-2.9013,-2.9476,-2.9034,-2.8712,-2.8513,-2.8785,-2.8752,0.0,0.0,0.0,0.0,0.0,0.0,0.0,0.0,-2.7868,-2.8014,-2.8586,-2.889,-2.881,-2.8089,-2.847,-2.8681,-2.7969,-2.8437,-2.8813,-2.8903,-2.9523,-2.9732,-2.9298,-3.141,-3.3148,-3.3768,-3.5685,-3.6541,-3.5603,-3.4724,-3.3768,-3.2737,-3.1546,-3.0889,-3.0889,-3.0889,-3.0889,-3.0889,-3.0889,-3.0889,-3.0889,-3.0889,-3.0889,-3.0889,-3.0889,-3.0889,-3.0889,-3.0889,-3.0889,-3.0889,-3.0889,-3.0889,-3.0889,-3.0889,-3.0889,-3.0889,-3.0889,-3.0889,-3.0889,0.0,-2.5178,-2.5139,-2.5159,-2.5178,-2.5207,-2.5303,-2.5371,-2.5304,-2.5015,-2.4736,-2.4164,-2.3145,-2.2934,-2.2971,-2.3265,0.0,0.0,-2.415,-2.3508,-2.3018,-2.2868,-2.2849,-2.2646,-2.2264,-2.2317,-2.2351,-2.2339,-2.2823,-2.3085,-2.3206,-2.3911,-2.4279,-2.4357,-2.4599,-2.4714,-2.471,-2.4923,-2.5428,-2.6116,-2.6314,-2.6871,-2.7556,-2.7556,-2.6553,-2.5291,-2.6351,-2.7272,-2.8096,-2.8653,-2.9416,-3.0021,-2.9495,-2.9067,-2.8985,-3.017,0.0,-2.9575,-3.0467,-2.9203,-2.7539,-2.7229,-2.7026,-2.7104,0.0,-2.8381,-2.8949,-2.953,-2.968,-2.9842,-3.0173,-2.9484,-2.9178,-2.9945,-2.932,-2.8925,-2.9261,-3.0777,-3.1955,-3.237,-3.2675,-3.3279,-3.4341,-3.5306,-3.5627,-3.4629,-3.3712,-3.2582,-3.1218,-3.0995,-3.0889,-3.0889,-3.0889,-3.0889,-3.0889,-3.0889,-3.0889,-3.0889,-3.0889,-3.0889,-3.0889,-3.0889,-3.0889,-3.0889,-3.0889,-3.0889,-3.0889,-3.0889,-3.0889,-3.0889,-3.0889,-3.0889,-3.0889,-3.0889,-3.0889,-3.0889,0.0,-2.537,-2.5322,-2.5303,-2.5322,-2.537,-2.537,-2.5427,-2.5418,-2.5311,-2.5249,-2.504,-2.4596,-2.4485,-2.4486,-2.4636,0.0,0.0,-2.3022,-2.2401,-2.203,-2.1917,-2.2453,-2.2959,-2.3372,-2.3584,-2.3767,-2.3879,-2.4087,-2.4233,-2.4353,-2.5166,-2.5561,-2.5576,-2.615,-2.6332,-2.6205,-2.6337,-2.6576,-2.6891,-2.7022,-2.7343,-2.7775,-2.7775,-2.74,-2.6992,-2.7842,-2.84,0.0,0.0,-2.9906,-3.0015,-2.968,-2.9381,-2.9285,-2.9898,-2.9692,0.0,-2.9324,-2.892,-2.8228,-2.7234,-2.7516,-2.8168,-2.8799,-2.9508,-3.0286,-3.1216,-3.1415,-3.1588,-3.2248,-3.2198,-3.2188,-3.2377,-3.2281,-3.2068,-3.1653,-3.2439,-3.3359,-3.3887,-3.3558,-3.366,-3.4695,-3.5378,-3.5063,-3.3301,-3.313,-3.2426,-3.1005,-3.0889,-3.0889,-3.0889,-3.0889,-3.0889,-3.0889,-3.0889,-3.0889,-3.0889,-3.0889,-3.0889,-3.0889,-3.0889,-3.0889,-3.0889,-3.0889,-3.0889,-3.0889,-3.0889,-3.0889,-3.0889,-3.0889,-3.0889,-3.0889,-3.0889,-3.0889,-3.0889,0.0,-2.5341,-2.5303,-2.5303,-2.537,-2.5409,-2.5409,-2.5466,-2.5486,-2.5465,-2.5515,-2.5524,-2.5447,-2.5428,-2.537,-2.5301,-2.4277,0.0,0.0,-2.1005,-2.0575,-2.0129,-2.1279,-2.2441,-2.355,-2.4159,-2.4659,-2.5011,-2.5116,-2.5332,-2.5671,-2.6311,-2.6597,-2.6629,-2.7094,-2.7225,-2.7059,-2.711,-2.7194,-2.7343,-2.7821,-2.8164,-2.8446,-2.8632,-2.8785,-2.8917,-2.9024,-2.9093,0.0,0.0,-3.0175,-3.0039,-2.9784,-2.9603,-2.9537,-2.966,-2.9483,-2.9126,-2.8721,-2.8771,-2.87,-2.7623,-2.8213,-2.9127,-2.9726,-3.046,-3.135,-3.2386,-3.2593,-3.2842,-3.3675,-3.4098,-3.4423,-3.4498,-3.4835,-3.4799,-3.393,-3.4183,-3.4477,-3.4396,-3.3968,-3.3805,-3.4016,-3.4429,-3.4067,-3.2511,-3.2447,-3.1988,-3.1005,-3.0889,-3.0889,-3.0889,-3.0889,-3.0889,-3.0889,-3.0889,-3.0889,-3.0889,-3.0889,-3.0889,-3.0889,-3.0889,-3.0889,-3.0889,-3.1334,-3.1556,-3.1556,-3.1998,-3.2102,-3.2102,-3.1662,-3.1556,-3.1441,-3.0995,-3.0889,-3.0889,0.0,0.0,-2.5303,-2.5303,-2.537,-2.5409,-2.5409,-2.5466,-2.5484,-2.5408,-2.5404,-2.539,-2.5303,-2.537,-2.5301,-2.5022,-2.4212,-2.2422,-1.939,-1.9256,-1.8683,-1.7377,-1.9212,-2.0968,-2.2411,-2.3743,-2.4796,-2.5587,-2.5899,-2.6505,-2.7333,-2.7352,-2.7361,-2.7339,-2.6995,-2.6777,-2.671,-2.6728,-2.6933,-2.7423,-2.8914,-2.9814,-3.0295,-3.0945,-3.107,-3.0742,-2.9454,0.0,0.0,-2.9627,-3.0023,-3.0221,-2.9815,-2.9735,0.0,-2.9941,-2.9892,-2.9715,-2.9442,-2.8898,-2.8419,-2.8322,-2.8651,-2.932,-3.0455,-3.1185,-3.1778,-3.2469,-3.2593,-3.2966,-3.4154,-3.4389,-3.4789,-3.5898,-3.6105,-3.6019,-3.55,-3.5924,-3.5596,-3.3767,-3.4029,-3.3634,-3.1901,-3.1682,-3.207,-3.2983,-3.1757,-3.1005,-3.0889,-3.0889,-3.0889,-3.0889,-3.0889,-3.0889,-3.0889,-3.0889,-3.0889,-3.0889,-3.0889,-3.0889,-3.0889,-3.0889,-3.0889,-3.1005,-3.2426,-3.3077,-3.3191,-3.4637,-3.5178,-3.5068,-3.3631,-3.3077,-3.2851,-3.1441,-3.0889,-3.0889,0.0,0.0,0.0,-2.537,-2.5428,-2.5465,-2.5473,-2.5517,-2.5523,-2.5415,-2.5365,0.0,0.0,0.0,0.0,0.0,-2.4418,-2.2952,-2.0818,-1.9073,-1.7534,-1.6136,-1.6528,-1.7369,-1.8733,-2.1299,-2.3077,-2.4022,-2.5372,-2.619,-2.648,-2.7571,-2.7996,-2.7911,-2.8793,-2.9101,-2.8976,-2.8976,-2.952,-3.0414,-3.0385,-3.0907,-3.1599,-3.1269,-3.0889,-3.0395,0.0,0.0,0.0,-2.9832,-3.0083,-3.0169,-2.9809,0.0,-2.9225,-2.803,-2.8325,-2.8767,-2.7679,-2.7839,-2.8284,-2.8316,-2.8736,-2.9659,-3.1361,-3.2313,-3.3343,-3.4927,-3.5265,-3.5534,-3.635,-3.6888,-3.7054,-3.6696,-3.6688,-3.6497,-3.5579,-3.492,-3.4198,-3.3541,-3.2733,-3.1612,-3.0138,-3.0997,-3.1166,-3.0102,-3.0597,-3.0392,-2.9285,-3.0274,-3.0889,-3.0889,-3.0889,-3.0889,-3.0889,-3.0889,-3.0889,-3.0889,-3.0889,-3.0889,-3.0889,-3.0889,-3.1441,-3.2426,-3.2861,-3.3631,-3.4626,-3.5068,-3.5288,-3.5178,-3.3631,-3.3077,-3.2964,-3.1441,-3.0889,-3.0889,0.0,0.0,0.0,0.0,0.0,0.0,0.0,0.0,0.0,0.0,0.0,0.0,0.0,0.0,0.0,0.0,0.0,-2.3447,0.0,0.0,-1.7871,-1.5984,-1.6173,-1.6811,-1.7826,-2.0588,-2.2573,-2.3731,-2.5279,-2.6322,-2.6862,-2.8102,-2.861,-2.8541,-2.9609,-2.9871,-2.9553,-2.9553,-2.9847,-3.0314,-3.0331,-3.0761,-3.1374,-3.1117,-3.0927,0.0,0.0,0.0,0.0,-2.9889,-2.9985,-3.0088,-2.9475,-2.875,-2.8009,-2.723,-2.7211,-2.733,-2.6876,-2.7344,-2.7992,-2.829,-2.9015,-3.0259,-3.2236,-3.3317,-3.444,-3.6214,-3.6859,-3.7244,-3.7933,-3.8323,-3.8269,-3.7416,-3.7035,-3.6469,-3.5219,-3.3594,-3.2294,-3.1649,-3.0214,-2.8916,-2.778,-2.8643,-2.9041,-2.8482,-2.9403,-2.9776,-2.9285,-3.0274,-3.0889,-3.0889,-3.0889,-3.0889,-3.0889,-3.0889,-3.0889,-3.0889,-3.0889,-3.0889,-3.0889,-3.0889,-3.1652,-3.3077,-3.3631,-3.4736,-3.6162,-3.6607,-3.6834,-3.6715,-3.4626,-3.3856,-3.3631,-3.1662,-3.0889,-3.0889,0.0,0.0,0.0,0.0,0.0,0.0,0.0,0.0,0.0,0.0,0.0,0.0,0.0,0.0,0.0,0.0,0.0,0.0,0.0,0.0,0.0,-1.6922,-1.8047,-1.8995,-1.9533,-2.1499,-2.3233,-2.4639,-2.5683,-2.6889,-2.8246,-2.8902,-2.918,-2.9162,-2.9386,-2.9158,-2.8656,-2.8656,-2.8174,-2.7544,-2.9004,-2.9694,-3.0,-3.0642,0.0,0.0,0.0,0.0,0.0,-2.9917,-2.9897,-2.999,-2.8752,-2.7345,-2.6329,-2.7402,-2.655,-2.5576,-2.691,-2.7334,-2.7587,-2.8225,-2.9431,-3.0989,-3.3036,-3.4059,-3.5019,-3.6397,-3.7279,-3.8014,-3.8626,-3.8686,-3.8453,-3.7908,-3.7034,-3.5932,-3.4374,-3.2111,-3.0028,-2.8229,-2.692,-2.59,-2.4887,-2.5013,-2.6091,-2.8024,-2.8298,-2.9039,-3.0528,-3.0772,-3.0889,-3.0889,-3.0889,-3.0889,-3.0889,-3.0889,-3.0889,-3.0889,-3.0889,-3.0889,-3.0889,-3.1005,-3.1767,-3.3293,-3.4736,-3.6271,-3.769,-3.9129,-3.9697,-3.9258,-3.6391,-3.5288,-3.4858,-3.1998,-3.0889,-3.0889,0.0,0.0,0.0,0.0,0.0,0.0,0.0,0.0,0.0,0.0,0.0,0.0,0.0,0.0,0.0,0.0,0.0,0.0,0.0,0.0,0.0,0.0,0.0,-1.8481,-1.9065,-2.1407,0.0,0.0,0.0,-2.7322,-2.7283,-2.8583,-2.8963,-2.8559,-2.9172,-2.9333,-2.9205,-2.9205,-2.9609,-3.0284,0.0,-3.0954,-3.1623,0.0,0.0,0.0,0.0,0.0,0.0,0.0,0.0,0.0,0.0,-2.6606,-2.6284,-2.5411,-2.5195,-2.5219,-2.5176,-2.5822,-2.6804,-2.8108,-2.9,-3.0317,-3.2913,-3.3668,-3.45,-3.6995,-3.7632,-3.787,-3.8046,-3.8845,-3.8608,-3.5932,-3.4857,-3.3731,-3.1993,-2.9042,-2.6974,-2.6811,-2.5822,-2.4762,-2.3503,-2.3848,-2.4201,-2.4778,-2.7091,-2.8051,-2.7323,-2.954,-3.0889,-3.0889,-3.0889,-3.0889,-3.0889,-3.0889,-3.0889,-3.0889,-3.0889,-3.0889,-3.0889,-3.2092,-3.3304,-3.4847,-3.6271,-3.7808,-3.9141,-3.9581,-3.9025,-3.7914,-3.6054,-3.4626,-3.3417,-3.1546,-3.0889,-3.0889,0.0,0.0,0.0,0.0,0.0,0.0,0.0,0.0,0.0,0.0,0.0,0.0,0.0,0.0,0.0,0.0,0.0,0.0,0.0,0.0,0.0,0.0,0.0,-2.165,-2.1675,-2.3749,-2.4981,0.0,0.0,0.0,0.0,-2.8968,-2.9327,-2.9039,-2.9717,-3.0091,-3.0197,-3.0068,0.0,0.0,0.0,0.0,0.0,0.0,0.0,0.0,0.0,0.0,0.0,0.0,0.0,-2.851,-2.6251,-2.5124,-2.4441,-2.3436,0.0,-2.3316,-2.3688,-2.4431,-2.558,-2.7427,-2.8633,-3.005,-3.2837,-3.3789,-3.4664,-3.6817,-3.7573,-3.7822,-3.7822,-3.8213,-3.7676,-3.4906,-3.3101,-3.1121,-2.8659,-2.5872,-2.3899,-2.3374,-2.3129,-2.2743,-2.1982,-2.2281,-2.2466,-2.2466,-2.5497,-2.7314,-2.7073,-2.953,-3.0889,-3.0889,-3.0889,-3.0889,-3.0889,-3.0889,-3.0889,-3.0889,-3.0889,-3.0889,-3.0889,-3.1767,-3.3314,-3.53,-3.6162,-3.7701,-3.9697,-3.9697,-3.8804,-3.7358,-3.5836,-3.4403,-3.2964,-3.1441,-3.0889,-3.0889,0.0,0.0,0.0,0.0,0.0,0.0,0.0,0.0,0.0,0.0,-2.6526,0.0,0.0,0.0,0.0,0.0,0.0,0.0,0.0,0.0,0.0,0.0,0.0,-2.633,-2.5747,-2.7016,-2.7603,0.0,0.0,0.0,0.0,0.0,0.0,0.0,0.0,0.0,0.0,0.0,0.0,0.0,0.0,0.0,0.0,0.0,0.0,0.0,0.0,0.0,0.0,0.0,-2.7823,-2.693,-2.5107,-2.3406,-2.2009,-2.1718,-2.119,-2.0976,-2.2347,-2.3242,-2.4313,-2.6628,-2.8338,-3.0084,-3.2883,-3.4075,-3.5069,-3.6352,-3.716,-3.7632,-3.7632,-3.7274,-3.6339,-3.4254,-3.1529,-2.854,-2.5303,-2.3055,-2.127,-1.9898,-2.0314,-2.0688,-2.0728,-2.0962,-2.1109,-2.1109,-2.4155,-2.6591,-2.8051,-2.9893,-3.0889,-3.0889,-3.0889,-3.0889,-3.0889,-3.0889,-3.0889,-3.0889,-3.0889,-3.0889,-3.0898,-3.1112,-3.254,-3.5068,-3.5398,-3.7037,-3.9465,-3.9581,-3.8804,-3.7358,-3.5836,-3.4515,-3.3191,-3.1777,-3.1218,-3.1218,0.0,0.0,0.0,0.0,0.0,0.0,0.0,0.0,0.0,0.0,-2.7042,-2.8042,0.0,0.0,0.0,0.0,0.0,0.0,0.0,0.0,0.0,0.0,0.0,-2.8203,-2.8576,-2.8588,-2.8547,0.0,0.0,0.0,0.0,0.0,0.0,0.0,0.0,0.0,0.0,0.0,0.0,0.0,0.0,0.0,0.0,0.0,0.0,0.0,0.0,0.0,0.0,0.0,-2.8997,-2.702,-2.3595,-2.2184,-2.162,-2.1008,-2.0711,-2.0731,-2.133,-2.2484,-2.406,-2.6248,-2.8329,-3.051,-3.2954,-3.4027,0.0,-3.6322,-3.6722,-3.6783,-3.6783,-3.6903,-3.5957,-3.2797,-2.9954,-2.7331,-2.4718,-2.1997,-2.0319,-2.0441,-2.0601,-2.0768,-2.1009,-2.1082,-2.1109,-2.1109,-2.4155,-2.6098,-2.6349,-2.9285,-3.0889,-3.0889,-3.0889,-3.0889,-3.0889,-3.0889,-3.0889,-3.0889,-3.0889,-3.0889,-3.0889,-3.2207,-3.2964,-3.3631,-3.6042,-3.7358,-3.8019,-3.9245,-3.8804,-3.7358,-3.5836,-3.5178,-3.4736,-3.3304,-3.2747,-3.2747,0.0,0.0,0.0,0.0,0.0,0.0,0.0,-2.6427,-2.6927,-2.6718,-2.8001,-2.8741,-2.8208,-2.8837,-2.9316,0.0,0.0,0.0,0.0,0.0,0.0,0.0,0.0,-2.9638,-2.9958,-3.0236,-3.0376,-3.0419,0.0,0.0,0.0,-3.137,-3.1275,0.0,0.0,0.0,0.0,0.0,0.0,0.0,0.0,0.0,0.0,0.0,0.0,0.0,0.0,0.0,0.0,0.0,-2.9344,-2.6408,-2.296,-2.0986,-2.0019,-1.9952,-1.9889,-2.0164,-2.1327,-2.2411,-2.3949,-2.717,-2.8961,-3.0735,-3.3428,0.0,0.0,-3.5806,-3.6054,-3.6054,-3.6054,-3.5766,-3.4724,-3.2014,-2.8998,-2.5956,-2.3039,-2.1174,-1.9811,-1.9473,-2.0296,-2.0955,-2.1096,-2.1109,-2.1481,-2.2341,-2.4648,-2.5976,-2.5976,-2.9166,-3.0889,-3.0889,-3.0889,-3.0889,-3.0889,-3.0889,-3.0889,-3.0889,-3.0889,-3.0889,-3.0889,-3.1662,-3.2426,-3.3191,-3.5387,-3.6811,-3.7571,-3.9129,-3.8804,-3.7465,-3.6703,-3.5945,-3.5178,-3.4515,-3.4292,-3.4181,0.0,0.0,0.0,0.0,0.0,0.0,0.0,-2.6346,-2.707,-2.7388,-2.8569,-2.9197,-2.8644,-2.9805,-3.0667,0.0,0.0,0.0,0.0,0.0,0.0,0.0,0.0,0.0,-3.0852,0.0,0.0,-3.2189,-3.2628,0.0,0.0,0.0,0.0,0.0,-3.2522,-3.2644,0.0,0.0,0.0,0.0,0.0,-3.5334,0.0,0.0,0.0,0.0,0.0,0.0,0.0,0.0,-2.9855,-2.64,-2.352,-2.0748,-1.8795,-1.942,-1.9644,-1.996,-2.1457,-2.259,-2.4276,-2.802,-2.9709,-3.1129,-3.3888,-3.4592,-3.4846,-3.5385,-3.5504,-3.5484,-3.5406,-3.4754,-3.3574,0.0,-2.8636,-2.5506,-2.2328,-2.1114,-2.0219,-1.905,-2.0187,-2.1109,-2.1109,-2.1481,-2.1971,-2.2959,-2.4893,-2.6349,-2.6961,-2.953,-3.0889,-3.0889,-3.0889,-3.0889,-3.0889,-3.0889,-3.0889,-3.0889,-3.0889,-3.0889,-3.0889,-3.0889,-3.1546,-3.2758,-3.4181,-3.5727,-3.7133,-3.8582,-3.8687,-3.7914,-3.7583,-3.7026,-3.6174,-3.5836,-3.5727,-3.5508,0.0,0.0,0.0,0.0,0.0,0.0,0.0,-2.6193,-2.6757,-2.6557,-2.7995,-2.935,-3.0107,-3.1062,-3.1648,0.0,0.0,0.0,0.0,0.0,0.0,0.0,0.0,0.0,0.0,0.0,0.0,-3.3072,-3.2783,0.0,0.0,0.0,0.0,0.0,0.0,-3.29,-3.2845,-3.3793,0.0,0.0,0.0,0.0,0.0,0.0,0.0,0.0,0.0,0.0,0.0,0.0,0.0,-2.8202,-2.6116,-2.2605,-1.9433,-2.037,0.0,0.0,-2.1326,-2.3187,-2.5577,-2.7981,-3.0093,-3.2117,-3.4031,0.0,-3.5429,-3.5489,-3.5504,-3.5406,-3.5042,-3.4604,-3.3487,-3.1009,-2.9266,-2.7231,-2.424,-2.2935,-2.1868,-2.0995,-2.0963,-2.1109,-2.1109,-2.2466,-2.2834,-2.1481,-2.4278,-2.7323,-3.0274,-3.0762,-3.0889,-3.0889,-3.0889,-3.0889,-3.0889,-3.0889,-3.0889,-3.0889,-3.0889,-3.0889,-3.0889,-3.0889,-3.1005,-3.1218,-3.2644,-3.4181,-3.5617,-3.7145,-3.8465,-3.9362,-3.8019,-3.8243,-3.9141,-3.7796,-3.7252,-3.7145,0.0,0.0,0.0,0.0,0.0,0.0,-2.5488,-2.6298,-2.6977,-2.7171,-2.8884,-3.0524,-3.1723,-3.2725,-3.2993,-3.2249,0.0,0.0,0.0,0.0,0.0,0.0,0.0,0.0,0.0,0.0,-3.3291,-3.3922,-3.3995,0.0,0.0,0.0,0.0,0.0,0.0,-3.2897,-3.1775,-3.3595,0.0,0.0,0.0,0.0,0.0,0.0,0.0,0.0,0.0,0.0,0.0,0.0,0.0,0.0,-2.9167,-2.6432,0.0,0.0,-2.1955,-2.2209,-2.3279,-2.4307,-2.5961,-2.9561,-3.1158,-3.2356,-3.4579,-3.531,-3.5359,-3.4691,-3.461,-3.4448,-3.4072,-3.3643,-3.2802,-3.0918,-2.9332,-2.7284,-2.4223,-2.3053,-2.2038,-2.1044,-2.1002,-2.1481,-2.2466,-2.3201,-2.4178,-2.5375,-2.7692,-2.953,-3.0889,-3.0889,-3.0889,-3.0889,-3.0889,-3.0889,-3.0889,-3.0889,-3.0889,-3.0889,-3.0889,-3.0889,-3.0889,-3.0889,-3.0889,-3.1005,-3.2426,-3.3406,-3.4181,-3.6476,-3.7796,-3.8465,-3.8687,-3.9141,-3.9581,-3.9025,-3.8243,-3.7252,0.0,0.0,0.0,0.0,0.0,-2.5885,-2.5788,-2.6517,-2.7325,-2.8106,-2.9551,-3.1177,-3.2909,-3.3749,-3.4029,-3.3655,-3.2645,0.0,0.0,0.0,0.0,0.0,0.0,0.0,0.0,0.0,-3.4011,-3.4296,-3.4335,-3.4514,0.0,0.0,-3.3773,-3.2812,0.0,0.0,0.0,0.0,0.0,0.0,0.0,0.0,0.0,0.0,0.0,0.0,0.0,0.0,0.0,0.0,0.0,0.0,0.0,0.0,0.0,0.0,-2.3356,-2.3499,-2.4307,-2.5089,-2.6538,-2.9978,-3.1231,-3.2152,-3.4172,-3.4624,-3.4467,-3.3913,-3.3802,-3.3663,-3.3014,-3.2738,-3.1915,-3.0027,-2.904,-2.7377,-2.403,-2.3299,-2.2609,-2.0997,-2.1478,-2.2341,-2.345,-2.4054,-2.5627,-2.8911,-2.9776,-3.0392,-3.0889,-3.0889,-3.0889,-3.0889,-3.0889,-3.0889,-3.0889,-3.0889,-3.0889,-3.0889,-3.0889,-3.0889,-3.0889,-3.0889,-3.0889,-3.1005,-3.1988,-3.2747,-3.3293,-3.5376,-3.6692,-3.7571,-3.8687,-3.9362,-3.9697,-3.9697,-3.9025,-3.7914,0.0,0.0,0.0,0.0,0.0,0.0,-2.6205,-2.6771,-2.7723,-2.9197,-2.9635,-3.084,-3.3499,-3.3857,-3.4545,-3.6115,-3.4742,0.0,0.0,0.0,0.0,0.0,0.0,0.0,0.0,0.0,-3.4172,-3.4119,-3.3248,-3.2906,-3.3076,-3.1979,-3.1661,-3.1991,0.0,0.0,0.0,0.0,0.0,0.0,0.0,0.0,0.0,0.0,0.0,0.0,0.0,0.0,0.0,0.0,0.0,0.0,0.0,0.0,0.0,0.0,-2.5015,-2.4769,-2.3583,-2.525,-2.749,-2.8472,-2.9948,-3.1462,-3.2393,-3.2593,-3.2773,-3.3294,-3.3418,-3.3063,-3.2022,-3.1822,-3.0893,-2.8129,-2.8247,-2.7485,-2.3928,-2.4105,-2.3754,-2.14,-2.2584,-2.3574,-2.3574,-2.5016,-2.7323,-3.0645,-2.9403,-2.9157,-3.0772,-3.0889,-3.0889,-3.0889,-3.0889,-3.0889,-3.0889,-3.0889,-3.0889,-3.0889,-3.0889,-3.0889,-3.0889,-3.0889,-3.0889,-3.0889,-3.0889,-3.1767,-3.3077,-3.3077,-3.4836,-3.7465,-3.7465,-3.8465,-3.9697,-3.9697,-3.9697,-3.9258,0.0,0.0,0.0,0.0,0.0,0.0,0.0,-2.7076,-2.7757,-2.8746,-2.9953,-3.1389,-3.3082,-3.4218,-3.5216,-3.6104,-3.5267,0.0,0.0,0.0,0.0,0.0,0.0,0.0,0.0,-3.5731,-3.4897,-3.3058,-3.1589,-3.0637,-3.016,-2.9009,-2.9015,-2.9914,-3.0021,-3.0356,0.0,0.0,0.0,0.0,0.0,0.0,0.0,0.0,0.0,0.0,0.0,0.0,0.0,0.0,0.0,0.0,0.0,0.0,0.0,0.0,0.0,0.0,-2.4563,-2.5549,-2.7128,-2.8831,-3.0215,-3.1462,-3.2393,-3.2593,-3.2557,-3.2434,-3.1806,-3.1105,-3.087,-3.0206,-2.9049,-2.7236,-2.7152,-2.6163,-2.2906,-2.2882,-2.2632,-2.101,-2.3417,-2.4778,-2.3698,-2.7099,-2.9285,-2.9157,-2.9776,-3.0392,-3.0889,-3.0889,-3.0889,-3.0889,-3.0889,-3.0889,-3.0889,-3.0889,-3.0889,-3.0889,-3.0889,-3.0889,-3.0889,-3.0889,-3.0889,-3.0889,-3.0889,-3.1112,-3.1662,-3.2633,-3.4292,-3.6054,-3.7145,-3.836,-3.9697,-3.9697,-3.8372,-3.6607,0.0,0.0,0.0,0.0,0.0,0.0,0.0,-2.7074,-2.7716,-2.8453,-2.973,-3.1075,-3.248,-3.3902,-3.5165,-3.616,-3.6385,0.0,0.0,0.0,0.0,0.0,0.0,0.0,-3.6408,-3.5875,-3.4132,-3.1172,-2.8851,-2.7371,-2.6671,-2.5647,-2.6321,-2.8356,-2.8817,-2.9851,0.0,0.0,0.0,0.0,0.0,0.0,0.0,0.0,0.0,0.0,0.0,0.0,0.0,0.0,0.0,0.0,0.0,0.0,0.0,0.0,-2.5559,-2.5197,0.0,-2.5925,-2.7429,-2.8675,-2.9808,-3.0833,-3.1415,-3.1373,-3.1135,-3.1121,-3.0318,-2.9545,-2.9404,-2.8821,-2.7809,-2.5954,-2.5937,-2.5138,-2.2276,-2.226,-2.2293,-2.1885,-2.4277,-2.5863,-2.5391,-2.8692,-3.0518,-2.9403,-3.0274,-3.0889,-3.0889,-3.0889,-3.0889,-3.0889,-3.0889,-3.0889,-3.0889,-3.0889,-3.0889,-3.0889,-3.0889,-3.0889,-3.0889,-3.0889,-3.0889,-3.0889,-3.0889,-3.0889,0.0,-3.253,-3.3968,-3.5398,-3.6918,-3.836,-3.9697,-3.9697,-3.8594,-3.6823,0.0,0.0,0.0,0.0,0.0,0.0,0.0,-2.6825,-2.7513,-2.8289,-2.8992,-3.004,-3.1735,-3.3059,-3.4557,-3.6303,0.0,0.0,0.0,0.0,0.0,0.0,0.0,0.0,-3.6463,-3.4748,-3.213,-2.8586,-2.5129,-2.3126,-2.2585,-2.1939,-2.3457,-2.681,-2.815,-3.0214,0.0,0.0,0.0,0.0,0.0,0.0,0.0,0.0,0.0,0.0,0.0,0.0,0.0,0.0,0.0,0.0,0.0,0.0,0.0,0.0,0.0,0.0,0.0,-2.6458,-2.7988,-2.812,-2.8901,-2.9714,-2.9752,-2.9217,0.0,-2.9425,-2.887,-2.8192,-2.762,-2.7679,-2.708,-2.4323,-2.4649,-2.4401,-2.209,-2.2282,-2.2751,-2.3375,-2.4893,-2.6582,-2.7931,-2.9776,-3.0889,-3.0762,-3.0889,-3.0889,-3.0889,-3.0889,-3.0889,-3.0889,-3.0889,-3.0889,-3.0889,-3.0889,-3.0889,-3.0889,-3.0889,-3.0889,-3.0889,-3.0889,-3.0889,-3.0889,-3.0889,-3.1005,-3.1112,-3.253,-3.4069,-3.5617,-3.6918,-3.836,-3.9697,-3.9697,-3.9581,-3.9037,0.0,0.0,0.0,0.0,0.0,0.0,0.0,0.0,0.0,0.0,-2.8158,-2.9247,-3.098,-3.2513,-3.4181,0.0,0.0,0.0,0.0,0.0,0.0,0.0,0.0,0.0,-3.6942,-3.3456,-2.9953,-2.6414,-2.1229,-1.7997,-1.6715,-1.7282,-1.9306,-2.2421,-2.4859,-2.7576,0.0,0.0,0.0,0.0,0.0,0.0,0.0,0.0,0.0,0.0,-3.0725,-3.0432,0.0,0.0,0.0,0.0,0.0,0.0,0.0,0.0,-2.481,-2.4949,-2.59,0.0,-2.7082,-2.7915,-2.8307,-2.8614,0.0,-2.8209,-2.7776,-2.8661,0.0,-2.5789,-2.6289,-2.5766,-2.4431,-2.2061,-2.2844,-2.3312,-2.209,-2.2468,-2.2515,-2.1804,-2.4278,-2.5619,-2.4786,-2.8444,-3.0392,-2.9039,-3.0147,-3.0889,-3.0889,-3.0889,-3.0889,-3.0889,-3.0889,-3.0889,-3.0889,-3.0889,-3.0889,-3.0889,-3.0889,-3.0889,-3.0889,-3.0889,-3.0889,-3.0889,-3.0889,-3.1546,-3.2644,-3.2964,-3.4615,-3.7026,-3.7358,-3.836,-3.9697,-3.9697,-3.8267,-3.6391,0.0,0.0,0.0,0.0,0.0,0.0,0.0,0.0,0.0,0.0,0.0,-2.8171,-3.0011,-3.1822,0.0,0.0,0.0,0.0,0.0,0.0,0.0,0.0,0.0,-3.6486,-3.5572,-3.1633,-2.7463,-2.3172,-1.8244,-1.4888,-1.3195,-1.4395,-1.6783,-2.0211,-2.4905,-2.7961,0.0,0.0,0.0,0.0,0.0,0.0,0.0,0.0,0.0,0.0,-2.9945,-2.9792,0.0,-2.9232,-2.8256,-2.7278,0.0,0.0,0.0,0.0,-2.3984,-2.423,-2.5424,-2.6668,-2.7894,-2.8949,-2.9012,-2.888,-2.9095,0.0,0.0,0.0,0.0,0.0,0.0,-2.3732,-2.2989,-2.1027,-2.167,-2.2391,-2.1997,-2.3116,-2.349,-2.2107,-2.5035,-2.647,-2.4901,-2.8435,-3.0518,-2.9658,-3.0401,-3.0889,-3.0889,-3.0889,-3.0889,-3.0889,-3.0889,-3.0889,-3.0889,-3.0889,-3.0889,-3.0889,-3.0889,-3.0889,-3.0889,-3.0889,-3.0889,-3.0889,-3.0889,-3.1767,-3.318,-3.3856,-3.5497,-3.7571,-3.8243,-3.9025,-3.9697,-3.9697,-3.8699,-3.7382,0.0,0.0,0.0,0.0,0.0,0.0,0.0,0.0,0.0,0.0,0.0,0.0,0.0,0.0,0.0,0.0,0.0,0.0,0.0,0.0,0.0,0.0,-3.6968,-3.4812,-3.3158,-2.9029,-2.4507,-1.9638,-1.5605,-1.2614,-1.0779,-1.2551,-1.5542,-1.9764,-2.6035,-2.8863,0.0,0.0,0.0,0.0,0.0,0.0,0.0,0.0,0.0,0.0,0.0,0.0,0.0,-2.8244,-2.7125,-2.604,-2.5135,0.0,0.0,0.0,0.0,0.0,-2.4553,-2.6649,-2.8715,-2.983,-2.9522,-2.9071,-2.8861,0.0,0.0,0.0,0.0,0.0,0.0,-2.2182,-2.2231,-2.0572,-2.119,-2.1919,-2.1678,-2.3834,-2.4825,-2.2998,-2.6005,-2.7652,-2.6377,-2.9065,-3.081,-3.0889,-3.0889,-3.0889,-3.0889,-3.0889,-3.0889,-3.0889,-3.0889,-3.0889,-3.0889,-3.0889,-3.0889,-3.0889,-3.0889,-3.0889,-3.0889,-3.0889,-3.0995,-3.1218,-3.1218,-3.2092,-3.3519,-3.4736,-3.6162,-3.7583,-3.8908,-3.9478,-3.9697,-3.9697,-3.9581,-3.9141,0.0,0.0,0.0,0.0,0.0,0.0,0.0,0.0,0.0,0.0,0.0,0.0,0.0,0.0,0.0,0.0,0.0,0.0,0.0,0.0,0.0,-3.675,-3.4436,-3.2282,-3.0497,-2.4436,-1.9832,-1.6993,-1.2501,-0.9584,-0.8431,-1.1426,-1.6044,-2.1864,-2.4395,-2.6075,-2.7067,-2.8246,0.0,0.0,-2.9804,0.0,0.0,0.0,0.0,0.0,0.0,0.0,0.0,-2.7115,-2.5965,-2.5026,-2.4846,0.0,0.0,0.0,0.0,0.0,-2.4941,-2.5959,-2.6886,-2.7457,-2.713,-2.6436,-2.5635,0.0,0.0,0.0,0.0,0.0,0.0,-2.173,-2.2097,-1.9577,-2.1564,-2.2714,-2.0441,-2.3669,-2.5354,-2.287,-2.5403,-2.732,-2.7534,-2.9229,-3.0469,-3.0859,-3.0889,-3.0889,-3.0889,-3.0889,-3.0889,-3.0889,-3.0889,-3.0889,-3.0889,-3.0889,-3.0889,-3.0889,-3.0889,-3.0889,-3.0889,-3.0889,-3.1546,-3.2747,-3.2747,-3.3631,-3.4958,-3.5178,-3.6162,-3.7571,-3.7796,-3.8582,-3.9697,-3.9697,-3.8908,-3.7465,0.0,0.0,0.0,0.0,0.0,0.0,0.0,0.0,0.0,0.0,0.0,0.0,0.0,0.0,0.0,0.0,0.0,0.0,0.0,0.0,-3.4348,-3.3431,-3.1016,-2.9026,-2.7654,-2.241,-1.8004,-1.4579,-1.1217,-0.9194,-0.8804,-1.3189,-1.7159,-2.0929,-2.3602,-2.506,-2.5727,-2.7364,-2.8137,0.0,0.0,0.0,0.0,0.0,0.0,0.0,0.0,0.0,0.0,0.0,-2.5264,-2.4692,-2.4092,0.0,0.0,0.0,0.0,0.0,-2.3991,-2.4727,-2.5312,-2.5624,-2.5747,-2.5688,-2.5185,-2.3624,0.0,0.0,0.0,0.0,0.0,-2.2079,-2.25,-2.1727,-2.3492,-2.4659,-2.3392,-2.5837,-2.7066,-2.4959,-2.6882,-2.8134,-2.7497,-2.8918,-2.9951,-3.0166,-3.0176,-3.0176,-3.0176,-3.0391,-3.0843,-3.1726,-3.1206,-3.1334,-3.2092,-3.1334,-3.0889,-3.0889,-3.0889,-3.0889,-3.0889,-3.0889,-3.1652,-3.3077,-3.2311,-3.3201,-3.5288,-3.4403,-3.5497,-3.7465,-3.7465,-3.836,-3.9697,-3.9697,-3.8804,-3.7133,0.0,0.0,0.0,0.0,0.0,0.0,0.0,0.0,0.0,0.0,0.0,0.0,0.0,0.0,0.0,0.0,0.0,0.0,0.0,-3.3073,-3.1844,-3.078,-2.8337,-2.6252,-2.4562,-2.0443,-1.6536,-1.3022,-1.0668,-0.9815,-1.0594,-1.5192,-1.8115,-1.9619,-2.2919,-2.4435,-2.4543,-2.6777,-2.7742,0.0,0.0,0.0,0.0,0.0,0.0,0.0,0.0,0.0,0.0,0.0,0.0,0.0,0.0,0.0,0.0,-2.3135,-2.3135,-2.3144,-2.3261,-2.376,-2.4278,-2.4409,0.0,-2.4967,-2.4758,-2.2798,-2.1172,0.0,0.0,0.0,0.0,-2.2575,-2.3187,-2.4166,-2.538,-2.5936,-2.5626,-2.745,-2.8205,-2.6625,-2.8151,-2.8843,-2.7667,-2.8716,-2.9453,-2.956,-2.957,-2.957,-2.957,-3.0201,-3.1024,-3.2217,-3.1491,-3.161,-3.291,-3.1492,-3.0781,-3.0889,-3.0889,-3.0889,-3.0889,-3.0889,-3.1652,-3.3077,-3.1872,-3.2654,-3.4736,-3.3519,-3.4392,-3.6476,-3.6811,-3.8137,-3.9697,-3.9349,-3.8243,-3.6811,0.0,0.0,0.0,0.0,0.0,0.0,0.0,0.0,0.0,0.0,0.0,0.0,0.0,0.0,0.0,0.0,0.0,0.0,0.0,-3.1131,-3.0288,-2.9644,-2.7634,-2.4864,-2.1124,-1.7062,-1.4285,-1.2657,-1.0529,-1.0798,-1.3501,-1.6227,-1.8247,-1.9615,-2.2127,-2.3251,-2.3387,-2.5683,-2.6644,-2.6764,-2.8901,0.0,0.0,0.0,0.0,0.0,0.0,0.0,0.0,0.0,0.0,0.0,0.0,0.0,-2.3135,-2.3135,-2.3135,-2.3164,-2.3622,-2.3829,-2.389,-2.4349,-2.389,-2.3233,-2.2528,-2.0837,-1.9555,-2.0069,-1.9949,-2.0243,-2.1939,-2.2888,-2.3921,-2.5637,-2.6036,-2.5599,-2.4156,-2.6527,-2.7774,-2.6309,-2.746,-2.8535,-2.8697,-2.8855,-2.9131,-2.9541,-2.957,-2.957,-2.957,-3.076,-3.1527,-3.1625,-3.1558,-3.1777,-3.2295,-3.0897,-3.0459,-3.0889,-3.0889,-3.0889,-3.0889,-3.0889,-3.1652,-3.3067,-3.2964,-3.3077,-3.3304,-3.3191,-3.318,-3.3508,-3.4958,-3.7156,-3.9569,-3.8137,-3.6703,-3.5288,0.0,0.0,0.0,0.0,0.0,0.0,0.0,0.0,0.0,0.0,0.0,0.0,0.0,0.0,0.0,0.0,0.0,0.0,0.0,-2.736,-2.6771,-2.6222,-2.5694,-2.4012,-2.0903,-1.7898,-1.5212,-1.2974,-1.3179,-1.4141,-1.5987,-1.7865,-1.9364,-2.066,-2.1544,-2.2446,-2.3212,-2.4766,-2.6069,-2.7115,-2.8256,0.0,0.0,0.0,0.0,0.0,0.0,0.0,0.0,0.0,-2.3135,-2.3135,-2.3135,-2.3135,-2.3135,-2.3135,-2.3135,-2.3144,-2.3281,-2.3772,-2.4215,-2.4372,-2.3881,0.0,0.0,-2.2475,-2.2477,-2.2654,-2.3521,-2.4548,-2.5485,-2.6125,-2.6658,-2.7365,-2.7501,-2.7276,-2.6717,-2.7618,-2.8067,-2.7501,-2.795,-2.8359,-2.8516,-2.8535,-2.8594,-2.876,-2.9605,-3.0013,-3.0013,-3.1635,-3.2933,-3.3856,-3.321,-3.3358,-3.4396,-3.3009,-3.2614,-3.3093,-3.1637,-3.0889,-3.0889,-3.0889,-3.1652,-3.3077,-3.2092,-3.2207,-3.3077,-3.2092,-3.2311,-3.3293,-3.5715,-3.7358,-3.8243,-3.769,-3.6042,-3.3856,0.0,0.0,0.0,0.0,0.0,0.0,0.0,0.0,0.0,0.0,0.0,0.0,0.0,0.0,0.0,0.0,0.0,0.0,-2.5148,-2.5062,-2.4744,-2.4259,-2.4546,-2.3599,-2.108,-1.9415,-1.7392,-1.489,-1.6062,-1.7063,-1.7975,-1.8993,-1.9968,-2.0736,-2.1085,-2.177,-2.2659,-2.414,-2.5452,-2.6599,-2.7452,-2.8357,0.0,0.0,0.0,0.0,0.0,0.0,0.0,0.0,-2.3135,-2.3135,-2.3135,-2.3135,-2.3135,-2.3135,-2.3164,-2.3281,-2.3281,-2.3801,-2.4202,-2.4369,0.0,0.0,-2.3657,-2.3502,-2.3586,-2.4275,-2.5946,-2.7314,-2.7617,-2.8008,-2.8291,-2.8291,-2.8291,-2.8291,-2.8291,-2.8291,-2.8291,-2.8291,-2.8291,-2.8291,-2.8291,-2.8291,-2.8495,-2.89,-2.9807,-3.0514,-3.0916,-3.2565,-3.3873,-3.4885,-3.4208,-3.436,-3.5568,-3.4095,-3.3782,-3.4419,-3.2822,-3.1846,-3.1546,-3.1112,-3.1441,-3.2311,-3.1325,-3.1431,-3.2311,-3.1334,-3.1988,-3.3968,-3.6042,-3.7358,-3.8137,-3.7145,-3.5497,-3.3631,0.0,0.0,0.0,0.0,0.0,0.0,0.0,0.0,0.0,0.0,0.0,0.0,0.0,0.0,0.0,0.0,0.0,0.0,-2.4209,-2.4713,-2.4744,-2.4166,-2.4546,-2.3654,-2.1382,-2.1293,-2.0466,-1.8596,-1.8962,-1.9239,-1.9497,-1.9497,-1.9497,-1.9571,-2.0704,-2.1319,-2.1484,-2.3803,-2.4777,-2.4928,-2.6486,-2.6868,-2.6552,0.0,0.0,0.0,0.0,0.0,0.0,0.0,-2.3135,-2.3135,-2.3135,-2.3135,-2.3144,-2.3135,-2.3398,-2.3759,-2.3769,-2.3769,-2.392,-2.4336,0.0,0.0,-2.4971,-2.3087,-2.192,-2.431,-2.638,-2.7666,-2.7666,-2.8008,-2.8291,-2.8291,-2.8291,-2.8291,-2.8291,-2.8291,-2.8291,-2.8291,-2.8291,-2.8291,-2.8291,-2.8291,-2.89,-3.0214,-3.0317,-3.0927,-3.223,-3.3662,-3.4385,-3.4385,-3.4385,-3.4623,-3.5023,-3.3697,-3.3447,-3.4408,-3.4408,-3.3912,-3.3077,-3.1546,-3.0889,-3.0889,-3.0889,-3.0889,-3.0889,-3.0889,-3.2654,-3.5288,-3.5288,-3.7049,-3.9245,-3.6391,-3.5288,-3.4858,0.0,0.0,0.0,0.0,0.0,0.0,0.0,0.0,0.0,0.0,0.0,0.0,0.0,0.0,0.0,0.0,0.0,0.0,-2.1742,-2.2084,-2.2392,-2.2601,-2.2958,-2.2985,-2.258,-2.2589,-2.1919,-2.0501,-2.0616,-2.073,-2.0755,-1.9943,-1.9497,-1.9497,-1.9903,-2.0506,-2.1415,-2.2977,-2.4308,-2.5413,-2.5424,-2.6139,-2.7064,0.0,0.0,0.0,0.0,0.0,0.0,0.0,0.0,0.0,-2.3135,-2.3368,-2.3505,-2.3164,-2.3398,-2.3762,-2.342,-2.3739,0.0,-2.4375,0.0,0.0,0.0,-2.5166,0.0,-2.6616,-2.6464,-2.6527,-2.7835,-2.7416,-2.7051,-2.8174,-2.8291,-2.8291,-2.8291,-2.8291,-2.8291,-2.8291,-2.8291,-2.8291,-2.8291,-2.8291,-2.89,-3.0214,-3.1122,-3.2342,-3.3674,-3.5066,-3.5763,-3.5763,-3.5763,-3.5837,-3.5997,-3.5587,-3.5734,-3.6315,-3.5647,-3.4567,-3.3077,-3.2644,-3.1872,-3.0889,-3.0889,-3.0889,-3.0889,-3.0889,-3.1988,-3.3744,-3.3744,-3.4292,-3.4947,-3.4069,-3.3088,-3.2113,0.0,0.0,0.0,0.0,0.0,0.0,0.0,0.0,0.0,0.0,0.0,0.0,0.0,0.0,0.0,0.0,0.0,0.0,0.0,-2.124,-2.1611,-2.1875,-2.2451,-2.2881,-2.3135,-2.3135,-2.2765,-2.2031,-2.2031,-2.1756,-2.1293,-2.0034,-1.9222,-1.878,-1.932,-1.9926,-2.066,-2.2406,-2.372,-2.4574,-2.4456,-2.4928,-2.5641,0.0,0.0,0.0,0.0,0.0,0.0,0.0,0.0,0.0,-2.3135,0.0,0.0,-2.3386,-2.3691,-2.4009,-2.3898,-2.4237,0.0,-2.4866,-2.5342,-2.5781,-2.5957,-2.6328,-2.6787,-2.7305,-2.7008,-2.6868,-2.8126,-2.7609,-2.7276,-2.8184,-2.8291,-2.8291,-2.8291,-2.8291,-2.8291,-2.8291,-2.8291,-2.8291,-2.8291,-2.8804,-2.9608,-3.1019,-3.2342,-3.3761,-3.5078,-3.5966,-3.6358,-3.6358,-3.6358,-3.6358,-3.6358,-3.6358,-3.6634,-3.7199,-3.6812,-3.5596,-3.3566,-3.3209,-3.2322,-3.0889,-3.0889,-3.0889,-3.1005,-3.1546,-3.2311,-3.3191,-3.3744,-3.3957,-3.3845,-3.3293,-3.253,-3.1662,0.0,0.0,0.0,0.0,0.0,0.0,0.0,0.0,0.0,0.0,-2.2477,0.0,0.0,0.0,0.0,0.0,0.0,0.0,0.0,-2.1539,-2.1855,-2.1768,-2.2619,-2.3135,-2.3135,-2.3135,-2.3135,-2.3135,-2.3135,-2.2403,-2.1114,-2.0034,-1.8772,-1.7591,-1.8956,-1.9496,-1.9634,-2.2064,-2.3135,-2.3144,-2.3515,-2.3495,-2.3184,-2.3574,0.0,0.0,0.0,0.0,0.0,0.0,0.0,0.0,-2.3251,-2.3261,-2.3349,-2.3692,-2.4137,-2.4576,-2.4938,-2.509,0.0,-2.5625,-2.5723,0.0,-2.6357,-2.6768,-2.706,-2.7021,-2.7552,-2.8126,-2.8281,-2.8184,-2.8174,-2.8291,-2.8291,-2.8291,-2.8291,-2.8291,-2.8291,-2.8291,-2.8291,-2.8291,-2.8291,-2.9503,-3.0824,-3.223,-3.3563,-3.4981,-3.6358,-3.6358,-3.6358,-3.6358,-3.6358,-3.6358,-3.6358,-3.6358,-3.6609,-3.7111,-3.7663,-3.671,-3.4415,-3.3698,-3.2426,-3.0889,-3.0889,-3.0889,-3.1005,-3.253,-3.2964,-3.3077,-3.4515,-3.4969,-3.4748,-3.3417,-3.2861,-3.2758,0.0,0.0,0.0,0.0,0.0,0.0,0.0,0.0,0.0,0.0,0.0,0.0,0.0,0.0,0.0,0.0,0.0,0.0,0.0,-2.0402,-2.124,-2.101,-2.2322,-2.3135,-2.3135,-2.3135,-2.3135,-2.3135,-2.3135,-2.2041,-1.9852,-1.9579,-1.8311,-1.6292,-1.8488,-1.9496,-1.9634,-2.2064,-2.3135,-2.3144,-2.3164,-2.3164,-2.3154,-2.3242,-2.3223,0.0,0.0,0.0,0.0,0.0,0.0,0.0,-2.4102,-2.4348,-2.4645,-2.4326,-2.4555,-2.489,-2.4619,-2.5055,0.0,0.0,-2.6184,-2.6768,-2.6865,-2.7217,-2.7432,-2.709,-2.6446,-2.6444,-2.8009,-2.7384,-2.6943,-2.8067,-2.8291,-2.8291,-2.8291,-2.8291,-2.8291,-2.8291,-2.8291,-2.8291,-2.8291,-2.9503,-3.0824,-3.223,-3.3563,-3.4981,-3.6358,-3.6358,-3.6358,-3.6358,-3.6358,-3.6358,-3.6358,-3.6358,-3.642,-3.6546,-3.7098,-3.6493,-3.4894,-3.4814,-3.3427,-3.0889,-3.0889,-3.0889,-3.1005,-3.253,-3.2426,-3.1546,-3.2975,-3.2871,-3.1777,-3.1441,-3.1325,-3.1334,0.0,0.0,0.0,0.0,0.0,0.0,0.0,0.0,0.0,0.0,0.0,0.0,0.0,0.0,0.0,0.0,0.0,0.0,0.0,-1.9434,-2.0287,-2.0968,-2.2378,-2.3135,-2.3135,-2.3135,-2.3135,-2.3135,-2.3135,-2.1854,-1.9497,-1.9662,-1.873,-1.707,-1.8917,-2.0079,-2.0823,-2.246,-2.3135,-2.3135,-2.3135,-2.3135,-2.3135,-2.3135,-2.3135,-2.3144,-2.3388,0.0,0.0,0.0,0.0,0.0,0.0,0.0,-2.4759,-2.4759,-2.4915,-2.5101,-2.4994,0.0,0.0,-2.6506,0.0,-2.7334,-2.7334,-2.7656,-2.7842,-2.7412,-2.6998,-2.7128,-2.8135,-2.7618,-2.7394,-2.8184,-2.8291,-2.8291,-2.8291,-2.8291,-2.8291,-2.8291,-2.8291,-2.8291,-2.8291,-3.011,-3.1531,-3.223,-3.4154,-3.5667,-3.6358,-3.6358,-3.6358,-3.6358,-3.6358,-3.6358,-3.6358,-3.6358,-3.6358,-3.637,-3.6923,-3.6197,-3.4406,-3.4029,-3.2765,-3.0889,-3.0889,-3.0889,-3.1005,-3.253,-3.2197,-3.0995,-3.253,-3.2207,-3.0889,-3.0889,-3.0889,-3.0889,0.0,0.0,0.0,0.0,0.0,0.0,0.0,0.0,0.0,0.0,0.0,0.0,0.0,0.0,0.0,0.0,0.0,0.0,0.0,-1.8491,-1.9711,-2.156,-2.2589,-2.3135,-2.3135,-2.3135,-2.3135,-2.3135,-2.3135,-2.1989,-1.9962,-1.9884,-1.9501,-1.8716,-1.9312,-2.0509,-2.1998,-2.2593,-2.295,-2.3135,-2.3135,-2.3135,-2.3135,-2.3135,-2.3135,-2.3144,-2.3164,-2.3495,-2.3782,-2.3899,0.0,0.0,0.0,0.0,-2.4598,-2.4985,-2.512,-2.5246,-2.5616,0.0,-2.7061,-2.7885,-2.8321,0.0,-2.8172,-2.845,-2.8502,-2.7947,-2.8057,-2.8291,-2.8291,-2.8291,-2.8291,-2.8291,-2.8291,-2.8291,-2.8291,-2.8291,-2.8291,-2.8291,-2.8291,-2.8398,-2.8591,-3.0824,-3.2431,-3.2644,-3.4945,-3.6358,-3.6358,-3.6358,-3.6358,-3.6358,-3.6358,-3.6358,-3.6358,-3.6358,-3.6358,-3.637,-3.663,-3.5677,-3.3592,-3.2489,-3.1574,-3.0771,-3.0859,-3.0889,-3.1005,-3.253,-3.2197,-3.0995,-3.253,-3.2207,-3.0889,-3.0889,-3.0889,-3.0889,0.0,0.0,0.0,0.0,0.0,0.0,0.0,0.0,0.0,0.0,-1.8151,-1.8225,-1.8004,-1.7115,0.0,0.0,0.0,0.0,-1.5832,0.0,0.0,-2.2765,-2.3047,-2.3135,-2.3135,-2.3135,-2.3135,-2.3135,-2.3135,-2.2602,-2.166,-2.0475,-2.0095,-2.0391,-1.8954,-1.9674,-2.1998,-2.1662,-2.212,-2.3135,-2.3135,-2.3135,-2.3135,-2.3135,-2.3135,-2.3154,-2.3515,-2.374,-2.388,-2.4165,-2.4347,0.0,0.0,0.0,-2.4985,-2.5101,-2.5363,-2.5625,0.0,0.0,-2.8807,0.0,-3.0542,-3.1331,0.0,-2.9974,-2.9692,-2.8426,-2.8252,-2.8291,-2.8291,-2.8291,-2.8291,-2.8291,-2.8291,-2.8291,-2.8291,-2.8291,-2.8291,-2.8291,-2.8291,-2.8804,-2.9911,-3.1429,-3.2844,-3.408,-3.5571,-3.6358,-3.6358,-3.6358,-3.6358,-3.6358,-3.6358,-3.6358,-3.6358,-3.6358,-3.6358,-3.6358,-3.5247,-3.4234,-3.3079,-3.1795,-3.0809,-3.0312,-3.0713,-3.0889,-3.1005,-3.253,-3.2197,-3.0995,-3.253,-3.2207,-3.0889,-3.0889,-3.0889,-3.0889,0.0,0.0,0.0,0.0,0.0,0.0,0.0,0.0,0.0,0.0,0.0,-1.7443,-1.7188,-1.6551,0.0,0.0,0.0,0.0,-1.6323,-1.8383,0.0,-2.2031,-2.2765,-2.3135,-2.3135,-2.3135,-2.3387,-2.4049,-2.3387,-2.3555,-2.4274,-2.2447,-2.1394,-2.0948,-1.9926,-2.0537,-2.2213,-2.1563,-2.2031,-2.3135,-2.3135,-2.3291,-2.3477,-2.3232,-2.3271,-2.3495,-2.3398,-2.3612,-2.3849,-2.4023,-2.4185,-2.4408,-2.4408,0.0,0.0,0.0,-2.5489,0.0,-2.8174,-2.8747,-2.9111,0.0,-3.0572,-3.0824,-2.9513,-2.9713,-2.9911,-2.8601,-2.8291,-2.8291,-2.8291,-2.8291,-2.8291,-2.8291,-2.8291,-2.8291,-2.8291,-2.8291,-2.8291,-2.8291,-2.9006,-2.9608,-3.0214,-3.2252,-3.3761,-3.4385,-3.5667,-3.6358,-3.6358,-3.6358,-3.6358,-3.6358,-3.6358,-3.6358,-3.6358,-3.6358,-3.6061,-3.5271,-3.4678,-3.3381,-3.1456,-3.1106,-3.0666,-3.0205,-3.041,-3.0644,-3.1005,-3.1546,-3.1441,-3.1005,-3.1662,-3.1431,-3.0889,-3.0889,-3.0889,-3.0889,0.0,0.0,0.0,0.0,0.0,0.0,0.0,0.0,0.0,0.0,0.0,0.0,-1.6306,0.0,0.0,0.0,0.0,0.0,-1.7566,0.0,0.0,0.0,-2.2589,-2.3135,-2.3135,-2.3387,-2.3963,-2.4787,-2.3963,-2.4429,-2.6034,-2.422,-2.284,-2.1824,-2.0868,-2.1139,-2.2371,-2.1378,-2.1823,-2.3301,-2.3301,-2.3496,-2.3769,-2.3524,-2.3624,-2.3929,-2.3437,-2.3505,-2.375,-2.3632,-2.3847,-2.4092,-2.4092,-2.4112,0.0,0.0,0.0,0.0,0.0,0.0,-2.9437,-3.0662,-3.1055,-3.088,-2.9587,-3.012,-3.0317,-2.8601,-2.8291,-2.8291,-2.8291,-2.8291,-2.8291,-2.8291,-2.8291,-2.8291,-2.8291,-2.8291,-2.8291,-2.8291,-2.9513,-3.0421,-3.0824,-3.2955,-3.4581,-3.4872,-3.5858,-3.6358,-3.6358,-3.6358,-3.6358,-3.6358,-3.6358,-3.6358,-3.6358,-3.6358,-3.5763,-3.4385,-3.408,-3.2644,-3.0328,-3.0274,-3.0116,-2.9883,-3.0098,-3.0391,-3.0723,-3.084,-3.0889,-3.0889,-3.0889,-3.0889,-3.0889,-3.0889,-3.0889,-3.0889,0.0,0.0,0.0,0.0,0.0,0.0,0.0,0.0,0.0,0.0,0.0,0.0,-1.5463,-1.5201,-1.4905,-1.4609,-1.4509,0.0,0.0,0.0,0.0,0.0,0.0,0.0,-2.3135,-2.4125,-2.4702,-2.4787,-2.4702,-2.5194,-2.6024,-2.4884,-2.4108,-2.3448,-2.1001,-2.0824,-2.2483,-2.0729,-2.1401,-2.375,-2.375,-2.3769,-2.3857,-2.4175,-2.4331,-2.4275,-2.3929,-2.375,-2.374,-2.3271,-2.3154,-2.3154,-2.3154,-2.3495,-2.3867,0.0,0.0,0.0,0.0,-2.9405,0.0,-3.2359,-3.3161,-3.3262,-3.233,-3.2129,-3.1429,-2.8794,-2.8291,-2.8291,-2.8291,-2.8291,-2.8291,-2.8291,-2.8291,-2.8291,-2.8291,-2.8291,-2.8291,-2.8291,-2.9513,-3.0824,-3.2028,-3.3563,-3.4969,-3.6168,-3.6358,-3.6358,-3.6358,-3.6358,-3.6358,-3.6358,-3.6358,-3.6358,-3.6358,-3.6358,-3.5763,-3.4385,-3.3055,-3.1622,-3.0214,-2.9026,-2.8672,-2.9033,-2.9844,-3.0205,-3.0264,-3.0713,-3.0889,-3.0889,-3.0889,-3.0889,-3.0889,-3.0889,-3.0889,-3.0889,0.0,0.0,0.0,0.0,0.0,0.0,0.0,0.0,0.0,0.0,0.0,0.0,0.0,-1.5304,-1.5124,-1.483,-1.4977,0.0,0.0,0.0,0.0,0.0,0.0,0.0,-2.3135,-2.4211,-2.5126,-2.588,-2.5126,-2.5455,-2.6693,-2.5169,-2.3908,-2.2934,-2.2047,-2.19,-2.2371,-2.123,-2.1329,-2.2184,-2.2472,-2.2732,-2.3084,-2.3074,-2.3862,-2.4801,-2.4351,-2.4156,-2.4078,-2.3711,-2.3555,-2.3506,-2.3223,-2.3251,-2.3515,-2.4682,-2.6223,-2.7999,0.0,0.0,0.0,-3.1863,-3.1693,-3.0975,-3.0637,-3.0804,-3.0514,-2.8698,-2.8291,-2.8291,-2.8291,-2.8291,-2.8291,-2.8291,-2.8291,-2.8389,-2.8662,-2.8701,-2.8799,-2.9082,-3.0841,-3.2196,-3.271,-3.4552,-3.587,-3.6358,-3.6358,-3.6358,-3.6358,-3.6358,-3.6358,-3.6358,-3.6358,-3.6358,-3.6358,-3.6358,-3.5259,-3.3055,-3.2543,-3.1122,-2.9006,-2.8495,-2.8369,-2.8555,-2.9121,-2.9687,-3.0205,-3.0371,-3.0625,-3.0889,-3.0889,-3.0889,-3.0889,-3.0889,-3.0889,-3.0889,0.0,0.0,0.0,0.0,0.0,0.0,0.0,0.0,-1.5618,-1.5424,0.0,0.0,0.0,0.0,-1.5284,-1.499,-1.5231,-1.6471,-1.896,-1.938,0.0,0.0,0.0,0.0,-2.3135,-2.4211,-2.5378,-2.6483,-2.5378,-2.5615,-2.703,-2.5115,-2.3808,-2.3177,-2.3038,-2.2767,-2.2474,-2.1933,-2.1626,-2.1545,-2.1868,-2.1915,-2.1869,-2.2518,-2.3483,-2.4485,-2.4612,-2.4675,-2.4588,-2.4108,-2.3906,-2.3721,-2.3408,-2.3261,-2.3495,-2.5315,-2.6842,-2.8211,-3.0126,0.0,0.0,0.0,-3.0398,-2.92,-2.9617,-2.9982,-2.9735,-2.8572,-2.8291,-2.8291,-2.8291,-2.8291,-2.8291,-2.8291,-2.8291,-2.8437,-2.8857,-2.8916,-2.9292,-3.0269,-3.2052,-3.3364,-3.3708,-3.5526,-3.6558,-3.637,-3.6358,-3.6358,-3.6358,-3.6358,-3.6358,-3.6358,-3.6358,-3.6358,-3.6358,-3.5953,-3.4557,-3.2331,-3.1825,-3.0421,-2.8291,-2.8291,-2.8291,-2.831,-2.8584,-2.9111,-2.9795,-3.0078,-3.0371,-3.0674,-3.083,-3.0889,-3.0889,-3.0889,-3.0889,-3.0889,0.0,0.0,0.0,0.0,0.0,0.0,0.0,0.0,-1.5411,-1.5411,0.0,0.0,0.0,0.0,0.0,-1.5017,-1.5335,-1.6478,-1.8977,-1.9389,-2.0584,0.0,0.0,0.0,-2.3135,-2.4211,-2.5378,-2.6472,-2.5378,-2.5604,-2.6997,-2.4798,-2.3994,-2.4385,-2.3975,-2.3357,-2.2586,-2.2483,-2.2267,-2.196,-2.2245,-2.1405,-2.0362,-2.2726,-2.3546,-2.3423,-2.4688,-2.5088,-2.5019,-2.458,-2.416,-2.3849,-2.3771,-2.3475,-2.3553,-2.5781,-2.6841,-2.7808,0.0,0.0,0.0,-3.1082,-2.9698,-2.8094,-2.9824,-2.9919,-2.9363,-2.8493,-2.8271,-2.8281,-2.8291,-2.8291,-2.8291,-2.8291,-2.8291,-2.8447,-2.8877,-2.8935,-2.9739,-3.1584,-3.2994,-3.4268,-3.5106,-3.648,-3.696,-3.642,-3.637,-3.6358,-3.6358,-3.6358,-3.6358,-3.6358,-3.6358,-3.6358,-3.6358,-3.5078,-3.3662,-3.223,-3.0916,-2.9608,-2.8291,-2.8291,-2.8291,-2.8291,-2.8291,-2.8525,-2.8965,-2.9814,-3.0176,-3.0244,-3.0693,-3.0879,-3.0889,-3.0889,-3.0889,-3.0889,0.0,0.0,0.0,0.0,0.0,-1.864,-1.6088,-1.5712,-1.5712,0.0,0.0,0.0,-1.5818,-1.5758,-1.5678,-1.5598,-1.6493,-1.7727,-1.9257,-2.0245,-2.1489,-2.3047,-2.3135,-2.3135,-2.3135,-2.4211,-2.4957,-2.5294,-2.4957,-2.502,-2.5402,-2.3981,-2.3545,-2.3965,-2.3838,-2.3667,-2.3472,-2.3076,-2.1935,-2.0509,-2.0516,-2.015,-1.9582,-2.1238,-2.2563,-2.3735,-2.5043,-2.5557,-2.5488,-2.5039,-2.4859,-2.4647,-2.4038,-2.4,-2.4416,-2.5123,-2.6797,-2.8359,-2.7813,0.0,0.0,0.0,0.0,0.0,-2.8036,-2.8092,-2.7809,-2.7849,-2.7842,-2.793,-2.8232,-2.8291,-2.8291,-2.8291,-2.8291,-2.8545,-2.9287,-3.0348,-3.1381,-3.2595,-3.4657,-3.598,-3.624,-3.6813,-3.7123,-3.6973,-3.6584,-3.6358,-3.6358,-3.6358,-3.6358,-3.6358,-3.6358,-3.6358,-3.6358,-3.5078,-3.3662,-3.223,-3.0916,-2.9608,-2.8291,-2.8291,-2.8291,-2.8291,-2.8291,-2.8359,-2.8506,-2.9053,-2.9639,-3.0205,-3.0342,-3.0596,-3.0889,-3.0889,-3.0889,-3.0889,0.0,0.0,0.0,-1.9951,-1.8999,-1.798,-1.6096,-1.5343,-1.5242,0.0,0.0,0.0,-1.5832,-1.5832,-1.5832,-1.5832,-1.6943,-1.8234,-1.9405,-2.0666,-2.1845,-2.3047,-2.3135,-2.3135,-2.3135,-2.3714,-2.4296,-2.4787,-2.4296,-2.4296,-2.4787,-2.3627,-2.3271,-2.3516,-2.3516,-2.3516,-2.3496,-2.3242,-2.1814,-1.9734,-2.0038,-1.9557,-1.8973,-2.0767,-2.2275,-2.377,-2.5168,-2.5742,-2.5693,-2.5439,-2.5283,-2.499,-2.4068,-2.4176,-2.4724,-2.5333,-2.6789,-2.8032,-2.7346,-2.7335,-2.7453,-2.6943,0.0,0.0,-2.682,-2.6724,-2.666,-2.7275,-2.7539,-2.7744,-2.7988,-2.8174,-2.8291,-2.8291,-2.8291,-2.8594,-2.9453,-3.085,-3.2367,-3.3849,-3.5779,-3.714,-3.7557,-3.7506,-3.7425,-3.7199,-3.6671,-3.6358,-3.6358,-3.6358,-3.6358,-3.6358,-3.6358,-3.6156,-3.5571,-3.4166,-3.2855,-3.1429,-3.012,-2.9112,-2.8291,-2.8291,-2.8291,-2.8291,-2.8291,-2.8291,-2.831,-2.8555,-2.916,-2.9951,-3.0127,-3.0478,-3.0889,-3.0889,-3.0889,-3.0889,0.0,0.0,-2.2315,-1.9951,-1.8501,-1.7294,-1.6001,-1.4848,-1.4561,0.0,-1.5832,-1.5832,-1.5832,-1.5832,-1.5832,-1.5832,-1.7131,-1.8319,-1.9405,-2.0755,-2.1943,-2.3047,-2.3135,-2.3135,-2.3135,-2.3135,-2.3637,-2.4617,-2.3637,-2.3637,-2.4628,-2.3551,-2.3135,-2.3135,-2.3135,-2.3135,-2.3135,-2.3135,-2.1765,-1.9729,-2.0284,-1.9766,-1.8839,-2.0982,-2.249,-2.3523,-2.5091,-2.5742,-2.5742,-2.5742,-2.5479,-2.4958,-2.4206,-2.4215,-2.4814,-2.6237,-2.693,-2.7273,-2.7946,-2.7572,-2.679,-2.6088,-2.5168,0.0,-2.5918,-2.5947,-2.5957,-2.6719,-2.7217,-2.7539,-2.7588,-2.7939,-2.8203,-2.8154,-2.8232,-2.8682,-2.9597,-3.1028,-3.2879,-3.5207,-3.6788,-3.8061,-3.8905,-3.8442,-3.7864,-3.7312,-3.6709,-3.6358,-3.6358,-3.6358,-3.6358,-3.6358,-3.6263,-3.5571,-3.4385,-3.2844,-3.1531,-3.0317,-2.89,-2.8291,-2.8291,-2.8291,-2.8291,-2.8291,-2.8291,-2.8291,-2.8291,-2.8291,-2.8769,-2.9541,-2.9961,-3.041,-3.082,-3.0869,-3.0889,-3.0889,0.0,-2.3135,-2.2315,-1.9951,-1.9289,-1.8372,-1.6103,-1.5635,-1.5534,-1.5737,-1.5832,-1.5832,-1.5832,-1.5832,-1.5832,-1.5832,-1.7848,-1.9222,-1.9497,-2.1587,-2.2862,-2.3047,-2.3135,-2.3135,-2.3135,-2.3135,-2.3222,-2.3474,-2.3222,-2.3222,-2.3474,-2.3222,-2.3135,-2.3135,-2.3135,-2.3135,-2.3135,-2.3135,-2.2315,-2.0944,-2.1103,-2.0832,-2.0598,-2.1891,-2.2885,-2.379,-2.5197,-2.5742,-2.5742,-2.5742,-2.5479,-2.5092,-2.4918,-2.527,-2.5978,-2.7217,-2.7626,-2.7623,-2.7844,-2.7093,-2.6088,-2.5017,-2.4864,0.0,-2.4824,-2.5283,-2.5781,-2.5957,-2.6338,-2.6738,-2.708,-2.75,-2.7676,-2.7324,-2.7842,-2.8886,-3.0453,-3.2403,-3.4328,-3.6227,-3.8092,-3.9312,-3.9546,-3.9032,-3.8467,-3.7889,-3.6923,-3.6358,-3.6358,-3.6358,-3.6358,-3.6358,-3.5367,-3.4678,-3.4385,-3.1938,-3.0514,-3.0317,-2.89,-2.8291,-2.8291,-2.8291,-2.8291,-2.8291,-2.8291,-2.8291,-2.8291,-2.8291,-2.8594,-2.9092,-2.9521,-2.9951,-3.0371,-3.0752,-3.0889,-3.0889,-2.3135,-2.3135,-2.2315,-1.9951,-1.8991,-1.788,-1.6096,-1.5242,-1.5045,-1.573,-1.5832,-1.5832,-1.5832,-1.5832,-1.5832,-1.5832,-1.749,-1.8864,-1.9497,-2.1212,-2.2492,-2.3047,-2.3135,-2.3135,-2.3135,-2.3135,-2.3135,-2.3135,-2.3135,-2.3135,-2.3135,-2.3714,-2.3637,-2.3135,-2.3714,-2.3627,-2.3135,-2.3135,-2.2775,-2.2138,-2.1717,-2.1613,-2.1917,-2.2503,-2.3574,-2.4815,-2.543,-2.5742,-2.5635,-2.5489,-2.5373,-2.5315,-2.49,-2.5283,-2.6033,-2.6525,-2.6875,-2.7041,-2.6533,-2.6399,-2.6072,-2.4473,-2.459,0.0,0.0,-2.5088,-2.5469,-2.5693,-2.6084,-2.6455,-2.666,-2.7051,-2.7266,-2.7051,-2.8151,-2.9487,-3.0788,-3.2716,-3.4715,-3.6505,-3.8472,-3.9697,-3.9697,-3.9195,-3.8517,-3.7663,-3.6835,-3.6358,-3.6358,-3.6358,-3.6358,-3.6358,-3.5078,-3.4068,-3.3353,-3.0543,-2.9232,-2.9313,-2.7912,-2.7609,-2.8291,-2.8291,-2.8291,-2.8291,-2.8291,-2.8291,-2.8291,-2.8291,-2.8418,-2.8672,-2.9316,-2.9824,-3.0254,-3.0723,-3.0889,-3.0889,-2.3135,-2.3135,-2.2315,-1.9951,-1.8601,-1.7394,-1.6001,-1.4949,-1.4657,-1.5635,-1.5832,-1.5852,-1.5905,-1.5912,-1.5939,-1.5992,-1.7122,-1.8302,-1.9512,-2.0689,-2.1937,-2.3047,-2.3135,-2.3135,-2.3135,-2.3135,-2.3135,-2.3135,-2.3135,-2.3135,-2.3135,-2.4296,-2.4296,-2.3464,-2.4628,-2.4457,-2.3474,-2.3474,-2.3299,-2.3076,-2.2333,-2.2327,-2.2823,-2.3121,-2.4228,-2.5615,-2.5703,-2.5742,-2.5625,-2.5353,-2.5479,-2.5606,-2.4859,-2.5111,-2.571,-2.5795,-2.6163,-2.6383,-2.5547,-2.5929,-2.6115,-2.4601,-2.4687,-2.5176,0.0,0.0,0.0,-2.5557,-2.5957,-2.6269,-2.6269,-2.6611,-2.6865,-2.6777,-2.8269,-2.9842,-3.0626,-3.2644,-3.4705,-3.6398,-3.8308,-3.9256,-3.9038,-3.854,-3.7954,-3.7249,-3.6671,-3.6358,-3.6358,-3.6358,-3.6263,-3.6061,-3.4667,-3.3093,-3.1447,-2.8834,-2.7593,-2.7603,-2.6559,-2.6821,-2.8174,-2.8252,-2.8291,-2.8291,-2.8291,-2.8291,-2.8291,-2.8291,-2.8291,-2.8369,-2.9141,-2.9707,-3.0127,-3.0596,-3.081,-3.0889,-2.3135,-2.3135,-2.2315,-1.9951,-1.9389,-1.8472,-1.6197,-1.5635,-1.5635,-1.5825,-1.5832,-1.5925,-1.6192,-1.6219,-1.6326,-1.6587,-1.7675,-1.8796,-1.9796,-2.1006,-2.2161,-2.3067,-2.3135,-2.3135,-2.3135,-2.3135,-2.3135,-2.3135,-2.3135,-2.3135,-2.3135,-2.4296,-2.4702,-2.4617,-2.5808,-2.563,-2.4628,-2.4628,-2.4049,-2.3057,-2.3008,-2.32,-2.3725,-2.4132,-2.4662,-2.5195,-2.5596,-2.5742,-2.5732,-2.5625,-2.5625,-2.5635,-2.5606,-2.5616,-2.5887,-2.7034,-2.6601,-2.6001,-2.6993,-2.6591,-2.5732,-2.5537,-2.5586,-2.5557,-2.5156,0.0,-2.5566,-2.5215,0.0,-2.581,-2.581,0.0,0.0,-2.5947,-2.7598,-2.9232,-3.0197,-3.263,-3.487,-3.6227,-3.7465,-3.7767,-3.6507,-3.5913,-3.6074,-3.7089,-3.6671,-3.6358,-3.6358,-3.6358,-3.587,-3.4678,-3.2926,-3.0732,-2.8121,-2.6267,-2.5408,-2.5331,-2.5563,-2.6402,-2.7754,-2.8125,-2.8291,-2.8291,-2.8291,-2.8291,-2.8291,-2.8291,-2.8291,-2.834,-2.8809,-2.9258,-2.9697,-3.0117,-3.0537,-3.0889,-2.3135,-2.3135,-2.2315,-1.9951,-1.9497,-1.8672,-1.6197,-1.5832,-1.5892,-1.6066,-1.5939,-1.6005,-1.6473,-1.6373,-1.6386,-1.668,-1.7193,-1.8116,-1.9768,-2.0407,-2.1452,-2.3067,-2.3135,-2.3135,-2.3135,-2.3135,-2.3135,-2.3135,-2.3135,-2.3474,-2.4135,-2.521,-2.5797,-2.5797,-2.6953,-2.6449,-2.4787,-2.4787,-2.4125,-2.3135,-2.3135,-2.3252,-2.3457,-2.3887,-2.4316,-2.4717,-2.4902,-2.5072,-2.5353,-2.4994,-2.5246,-2.5625,-2.5479,-2.5499,-2.5771,-2.6104,-2.5958,-2.5712,-2.5748,-2.5714,-2.5674,-2.541,-2.5547,-2.5684,-2.5498,-2.5605,-2.5684,-2.5498,0.0,0.0,0.0,0.0,0.0,0.0,-2.8402,-2.9891,-3.0697,-3.2951,-3.5058,-3.6282,-3.6442,-3.6281,-3.5657,-3.5354,-3.5731,-3.7077,-3.6671,-3.6358,-3.6358,-3.6358,-3.5763,-3.4483,-3.2673,-3.0356,-2.7629,-2.499,-2.4123,-2.4977,-2.4508,-2.5468,-2.7685,-2.8096,-2.8291,-2.8291,-2.8291,-2.8291,-2.8291,-2.8291,-2.8291,-2.831,-2.8486,-2.8965,-2.9619,-3.0039,-3.0488,-3.0889,-2.2677,-2.2589,-2.1854,-1.9405,-1.9047,-1.8311,-1.6103,-1.5832,-1.5939,-1.6233,-1.6086,-1.6172,-1.676,-1.664,-1.6627,-1.6921,-1.6947,-1.7889,-2.0061,-2.0136,-2.1084,-2.3318,-2.3262,-2.3193,-2.332,-2.3203,-2.3135,-2.3135,-2.3387,-2.3963,-2.4872,-2.6295,-2.6964,-2.6964,-2.8108,-2.7522,-2.5692,-2.5368,-2.4628,-2.3551,-2.3222,-2.3135,-2.3184,-2.3623,-2.4053,-2.4414,-2.4414,-2.4598,-2.489,-2.463,-2.5035,-2.547,-2.5324,-2.5479,-2.5664,-2.5369,-2.543,-2.5596,-2.4951,-2.5254,-2.5635,-2.5176,-2.54,-2.5674,-2.543,-2.5566,-2.5742,-2.5742,-2.583,0.0,0.0,0.0,-2.6289,-2.7587,0.0,-3.0273,-3.1092,-3.3138,-3.4788,-3.5592,-3.5198,-3.4963,-3.5119,-3.502,-3.5525,-3.6851,-3.6584,-3.6358,-3.6358,-3.6358,-3.5559,-3.3871,-3.2339,-3.0063,-2.6975,-2.3896,-2.3176,-2.4651,-2.367,-2.4765,-2.751,-2.8047,-2.8291,-2.8291,-2.8291,-2.8291,-2.8291,-2.8291,-2.8291,-2.8291,-2.8291,-2.8818,-2.9609,-2.9912,-3.0391,-3.1005,-2.1569,-2.1382,-2.0576,-1.8141,-1.7777,-1.7318,-1.6015,-1.5832,-1.5939,-1.6233,-1.6266,-1.648,-1.7074,-1.723,-1.7241,-1.7528,-1.7555,-1.8537,-2.0793,-2.0549,-2.1605,-2.4283,-2.3584,-2.333,-2.376,-2.3359,-2.3135,-2.3135,-2.4211,-2.4787,-2.4872,-2.7023,-2.8016,-2.8096,-2.9197,-2.9106,-2.7924,-2.6883,-2.5797,-2.4628,-2.3551,-2.3135,-2.3184,-2.3623,-2.4053,-2.4414,-2.4414,-2.4434,-2.4521,-2.4941,-2.5088,-2.5166,-2.5596,-2.5732,-2.5732,-2.5713,-2.5723,-2.5732,-2.5703,-2.5713,-2.5635,-2.5176,-2.54,-2.5518,-2.4648,-2.5117,-2.5742,-2.5742,-2.6074,-2.6494,-2.6904,-2.6641,-2.6745,-2.7959,-2.8892,0.0,0.0,-3.2806,-3.3935,-3.3972,-3.3764,-3.3827,-3.4362,-3.4409,-3.4993,-3.6288,-3.637,-3.6358,-3.6358,-3.6358,-3.515,-3.2431,-3.1499,-2.9088,-2.509,-2.286,-2.24,-2.3737,-2.315,-2.4359,-2.706,-2.791,-2.8291,-2.8291,-2.8291,-2.8291,-2.8291,-2.8291,-2.8291,-2.8291,-2.8291,-2.8818,-2.957,-2.959,-3.0146,-3.1112,-2.1569,-2.0666,-1.9579,-1.7963,-1.7692,-1.7225,-1.6015,-1.5832,-1.6005,-1.6493,-1.6393,-1.6573,-1.7348,-1.7268,-1.7268,-1.7555,-1.8401,-1.9478,-2.0933,-2.1684,-2.2772,-2.4331,-2.4141,-2.3926,-2.3799,-2.3643,-2.3428,-2.3135,-2.4211,-2.521,-2.5975,-2.7441,-2.8518,-2.9275,-2.9624,-2.8791,-2.7046,-2.6637,-2.5389,-2.3637,-2.3222,-2.3135,-2.3154,-2.3301,-2.3447,-2.3564,-2.3564,-2.376,-2.4023,-2.417,-2.4404,-2.4707,-2.5156,-2.5098,-2.4922,-2.5205,-2.5088,-2.4922,-2.5215,-2.5293,-2.5332,-2.5478,-2.54,-2.5215,-2.4922,-2.5078,-2.5293,-2.5293,-2.5644,-2.6006,-2.6143,-2.6711,-2.7639,-2.8827,-2.9874,-3.1045,0.0,-3.2959,-3.3208,-3.2629,-3.3122,-3.3375,-3.2875,-3.3767,-3.4836,-3.575,-3.6157,-3.6358,-3.6358,-3.6019,-3.4627,-3.1959,-3.0993,-2.8515,-2.457,-2.3542,-2.3276,-2.3701,-2.4074,-2.5194,-2.7041,-2.79,-2.8291,-2.8291,-2.8291,-2.8291,-2.8291,-2.8291,-2.8291,-2.8291,-2.8291,-2.8818,-2.957,-2.957,-3.0137,-3.1218,-2.0935,-1.9679,-1.8588,-1.787,-1.7318,-1.6763,-1.592,-1.5919,-1.6159,-1.6647,-1.6633,-1.684,-1.7508,-1.7415,-1.7382,-1.7562,-1.8812,-2.0036,-2.1213,-2.2371,-2.3533,-2.4798,-2.458,-2.4365,-2.4248,-2.3945,-2.3652,-2.3369,-2.4711,-2.5808,-2.6565,-2.8028,-2.9106,-2.9792,-2.9792,-2.8791,-2.7046,-2.6637,-2.5389,-2.3637,-2.3299,-2.3232,-2.335,-2.3193,-2.3135,-2.3154,-2.332,-2.3457,-2.3584,-2.374,-2.3975,-2.4268,-2.4697,-2.4639,-2.4473,-2.4756,-2.4639,-2.4473,-2.4756,-2.4834,-2.4902,-2.5195,-2.5166,-2.5029,-2.4873,-2.5078,-2.5303,-2.5303,-2.5664,-2.6016,-2.6162,-2.6731,-2.7554,-2.8744,-2.9886,-3.1134,0.0,-3.3081,-3.2922,-3.235,-3.3071,-3.3305,-3.2444,-3.3609,-3.4744,-3.5462,-3.5868,-3.6157,-3.6358,-3.5843,-3.436,-3.1811,-3.0746,-2.8497,-2.5107,-2.419,-2.389,-2.4412,-2.4656,-2.5507,-2.6826,-2.7685,-2.8066,-2.8076,-2.8232,-2.8291,-2.8291,-2.8291,-2.8291,-2.8291,-2.8291,-2.8721,-2.9355,-2.9512,-3.0777,-3.2768,-1.9852,-1.8596,-1.7692,-1.7591,-1.6574,-1.5832,-1.5845,-1.6092,-1.638,-1.6667,-1.6967,-1.7261,-1.7549,-1.7582,-1.7582,-1.7687,-1.8916,-2.0341,-2.1752,-2.2626,-2.3897,-2.5616,-2.4932,-2.4668,-2.5059,-2.4248,-2.3809,-2.3789,-2.5625,-2.6483,-2.6565,-2.8791,-2.9792,-2.9792,-2.9792,-2.9118,-2.7924,-2.6964,-2.5808,-2.4628,-2.3551,-2.3398,-2.374,-2.333,-2.3164,-2.3223,-2.3613,-2.3496,-2.3203,-2.3613,-2.376,-2.3828,-2.4248,-2.4365,-2.4355,-2.4375,-2.4365,-2.4355,-2.4385,-2.4385,-2.4394,-2.4414,-2.4717,-2.4893,-2.4482,-2.5059,-2.5674,-2.5674,-2.6035,-2.6475,-2.6875,-2.6621,-2.6824,-2.7939,-2.8882,-3.0226,-3.2612,-3.2896,-3.2896,-3.2896,-3.3446,-3.3489,-3.2766,-3.3912,-3.4926,-3.5336,-3.5491,-3.5742,-3.6282,-3.578,-3.4299,-3.1777,-3.0712,-2.8987,-2.6357,-2.4706,-2.4412,-2.5645,-2.4811,-2.5116,-2.6416,-2.7256,-2.7646,-2.7685,-2.8086,-2.8271,-2.8291,-2.8291,-2.8291,-2.8291,-2.8291,-2.8555,-2.8975,-2.9414,-3.1948,-3.5255,-2.1025,-1.9131,-1.7412,-1.648,-1.6015,-1.5905,-1.6126,-1.6226,-1.638,-1.6667,-1.6967,-1.7261,-1.7549,-1.7582,-1.7989,-1.9013,-2.0333,-2.1752,-2.3076,-2.431,-2.5208,-2.5635,-2.5518,-2.5293,-2.5068,-2.4531,-2.4102,-2.3789,-2.5625,-2.6483,-2.6565,-2.8791,-2.9792,-2.9792,-2.9792,-2.8712,-2.6883,-2.6637,-2.5389,-2.3551,-2.3222,-2.3398,-2.3779,-2.3662,-2.3623,-2.3594,-2.3379,-2.3232,-2.3154,-2.3271,-2.3301,-2.3379,-2.3818,-2.373,-2.3525,-2.3857,-2.3721,-2.3535,-2.3857,-2.3945,-2.4023,-2.4336,-2.4268,-2.4092,-2.3975,-2.4365,-2.4756,-2.4756,-2.5361,-2.5937,-2.6045,-2.6728,-2.7396,-2.7672,-2.8664,-2.959,-3.0237,-3.0316,-3.0316,-3.0316,-3.1252,-3.222,-3.2933,-3.4045,-3.4613,-3.4349,-3.47,-3.5177,-3.573,-3.4851,-3.3363,-3.1247,-3.0195,-2.8398,-2.5908,-2.5391,-2.5333,-2.5742,-2.5855,-2.6068,-2.6406,-2.6943,-2.7363,-2.7676,-2.7783,-2.7998,-2.8291,-2.8291,-2.8291,-2.8291,-2.8291,-2.8555,-2.8975,-2.9414,-3.185,-3.4631,-2.0889,-1.858,-1.6753,-1.6263,-1.6106,-1.6079,-1.6246,-1.638,-1.652,-1.6687,-1.7461,-1.7914,-1.7479,-1.8011,-1.8812,-1.9524,-2.0845,-2.2257,-2.3583,-2.4922,-2.5742,-2.5742,-2.5742,-2.5615,-2.5361,-2.4922,-2.4492,-2.4062,-2.5851,-2.6685,-2.6565,-2.8791,-2.9534,-2.9028,-2.9028,-2.7867,-2.5714,-2.5231,-2.4307,-2.3135,-2.3135,-2.3506,0.0,-2.3857,-2.4023,-2.4268,-2.3643,-2.3301,-2.3135,-2.3135,-2.3135,-2.3184,-2.3428,-2.333,-2.3184,-2.3437,-2.333,-2.3193,-2.3437,-2.3506,-2.3613,-2.4033,-2.3965,-2.3838,-2.4023,-2.4248,-2.4414,-2.4414,-2.4814,-2.5156,-2.5156,-2.5864,-2.6794,-2.7463,-2.8132,-2.8773,-2.9315,-2.9407,-2.959,-3.0135,-3.0765,-3.1689,-3.2982,-3.3633,-3.3972,-3.3909,-3.4186,-3.46,-3.5152,-3.4374,-3.2901,-3.074,-2.981,-2.8215,-2.5732,-2.5742,-2.5742,-2.5742,-2.5986,-2.6103,-2.6113,-2.6543,-2.6875,-2.7129,-2.75,-2.7803,-2.8027,-2.8223,-2.8291,-2.8291,-2.8291,-2.8437,-2.8672,-2.8926,-3.1007,-3.3563,-1.9837,-1.7485,-1.6092,-1.6567,-1.6506,-1.6386,-1.6386,-1.66,-1.6861,-1.6954,-1.8311,-1.8912,-1.7907,-1.9052,-1.9834,-1.9834,-2.1143,-2.2466,-2.3583,-2.4922,-2.5742,-2.5742,-2.5742,-2.5742,-2.5742,-2.5293,-2.4853,-2.4414,-2.6051,-2.6701,-2.6307,-2.8383,-2.8858,-2.7936,-2.7936,-2.6778,-2.4702,-2.3551,-2.3174,-2.3223,-2.3223,-2.374,-2.4453,-2.4033,-2.4375,-2.4961,-2.416,-2.3594,-2.3213,-2.3154,-2.3135,-2.3135,-2.3135,-2.3135,-2.3135,-2.3135,-2.3135,-2.3135,-2.3135,-2.3135,-2.3232,-2.3613,-2.3711,-2.3799,-2.417,-2.4297,-2.4336,-2.4336,-2.4375,-2.4414,-2.4414,-2.4727,-2.5496,-2.7055,-2.7306,-2.7672,-2.8664,-2.8903,-2.9407,-3.0586,-3.0855,0.0,-3.2599,-3.2945,-3.3269,-3.3759,-3.3796,-3.4035,-3.4587,-3.3908,-3.2514,-3.0229,-2.9572,-2.8028,-2.5732,-2.5742,-2.5742,-2.5742,-2.5742,-2.5742,-2.5752,-2.6133,-2.6338,-2.6426,-2.7178,-2.7559,-2.7695,-2.8057,-2.8242,-2.8291,-2.8291,-2.8291,-2.8291,-2.8291,-2.9866,-3.2206,-1.9083,-1.7448,-1.6506,-1.6373,-1.6707,-1.6994,-1.6994,-1.7041,-1.7469,-1.8664,-1.9241,-1.9846,-2.0852,-2.1204,-2.1347,-2.1347,-2.2567,-2.3484,-2.3692,-2.4922,-2.5742,-2.5742,-2.5742,-2.5742,-2.5742,-2.5293,-2.4853,-2.4414,-2.5289,-2.5508,-2.5126,-2.6472,-2.6976,-2.6801,-2.6801,-2.6047,-2.4702,-2.3551,-2.335,-2.3682,-2.3682,-2.4189,-2.4912,-2.4473,-2.4629,-2.5,-2.4492,-2.4033,-2.3623,-2.3262,-2.3135,-2.3135,-2.3135,-2.3135,-2.3135,-2.3135,-2.3135,-2.3135,-2.3135,-2.3135,-2.3154,-2.3232,-2.3252,-2.3271,-2.335,-2.3643,-2.3896,-2.3896,-2.418,-2.4414,-2.4414,-2.4482,-2.4771,-2.5391,-2.5545,-2.564,-2.5819,-2.6139,-2.6839,-2.8038,-2.9131,-3.0053,-3.0802,-3.2253,-3.3119,-3.3219,-3.3219,-3.3458,-3.401,-3.258,-3.1196,-3.0218,-2.8744,-2.721,-2.5732,-2.5742,-2.5742,-2.5742,-2.5742,-2.5742,-2.5742,-2.582,-2.6045,-2.6396,-2.6543,-2.7012,-2.7676,-2.7744,-2.7978,-2.8291,-2.8291,-2.8291,-2.8291,-2.8291,-2.8859,-2.9829,-1.9282,-1.7626,-1.6587,-1.6707,-1.6921,-1.7088,-1.7141,-1.7275,-1.7826,-1.907,-1.9284,-1.9679,-2.0373,-2.0531,-2.0641,-2.0641,-2.1862,-2.2968,-2.3683,-2.4922,-2.5742,-2.5742,-2.5742,-2.5742,-2.5742,-2.5527,-2.5088,-2.4414,-2.5358,-2.5403,-2.4787,-2.5975,-2.6224,-2.5546,-2.4978,-2.4467,-2.3897,-2.3634,-2.3603,-2.3809,-2.4033,-2.4492,-2.5049,-2.4834,-2.5029,-2.5352,-2.4912,-2.4619,-2.4355,-2.3701,-2.3477,-2.3437,-2.3213,-2.3135,-2.3135,-2.3135,-2.3135,-2.3135,-2.3135,-2.3135,-2.3135,-2.3135,-2.3135,-2.3135,-2.3135,-2.3301,-2.3457,-2.3457,-2.3613,-2.3828,-2.4053,-2.4268,-2.4482,-2.4697,-2.4922,-2.499,-2.4756,-2.5107,-2.6124,-2.7953,-2.8896,-3.0044,-3.16,-3.2549,-3.2955,-3.2654,-3.2905,-3.3194,-3.3458,-3.201,-3.0793,-2.9847,-2.8344,-2.704,-2.5732,-2.5742,-2.5742,-2.5742,-2.5742,-2.5742,-2.5742,-2.5742,-2.585,-2.6064,-2.6289,-2.6748,-2.7363,-2.7812,-2.8115,-2.8291,-2.8291,-2.8291,-2.8291,-2.8291,-2.8418,-2.8898,-1.9368,-1.7853,-1.6747,-1.7007,-1.7088,-1.7148,-1.7228,-1.7435,-1.8011,-1.9182,-1.9254,-1.9449,-1.9744,-2.0107,-2.0174,-1.9753,-2.1143,-2.2458,-2.3529,-2.4941,-2.5742,-2.5742,-2.5742,-2.5742,-2.5742,-2.5742,-2.5352,-2.4551,-2.5361,-2.5331,-2.4602,-2.5432,-2.5305,-2.4382,-2.3563,-2.3271,-2.3301,-2.374,-2.3975,-2.4092,-2.4424,-2.4814,-2.5215,-2.5215,-2.543,-2.5693,-2.5332,-2.5215,-2.5088,-2.4326,-2.3935,-2.3711,-2.3271,-2.3135,-2.3135,-2.3135,-2.3135,-2.3135,-2.3135,-2.3135,-2.3135,-2.3135,-2.3135,-2.3135,-2.3135,-2.3135,-2.3135,-2.3135,-2.3135,-2.3271,-2.3711,-2.3984,-2.417,-2.4268,-2.457,-2.4707,-2.4453,-2.4785,-2.5916,-2.8294,-2.8719,-2.9659,-3.1822,-3.2105,-3.2031,-3.1729,-3.2594,-3.3018,-3.2905,-3.1616,-3.036,-2.925,-2.7796,-2.6611,-2.5596,-2.5498,-2.5498,-2.5596,-2.5596,-2.5644,-2.5742,-2.5742,-2.5742,-2.5752,-2.6103,-2.6543,-2.708,-2.7939,-2.8291,-2.8291,-2.8291,-2.8291,-2.8291,-2.8291,-2.8291,-2.8613,-1.8957,-1.8266,-1.7321,-1.6834,-1.7181,-1.7528,-1.7542,-1.7562,-1.8087,-1.9384,-1.9583,-2.0089,-2.1298,-2.2165,-2.2037,-2.0346,-2.1837,-2.295,-2.3068,-2.4702,-2.5742,-2.5742,-2.5742,-2.5742,-2.5742,-2.5742,-2.5498,-2.501,-2.4702,-2.4352,-2.389,-2.3574,-2.3387,-2.3232,-2.3555,-2.373,-2.376,-2.418,-2.459,-2.4951,-2.499,-2.5273,-2.5674,-2.5674,-2.5703,-2.5732,-2.5684,-2.5674,-2.5605,-2.5117,-2.4434,-2.3711,-2.3271,-2.3135,-2.3135,-2.3135,-2.3135,-2.3135,-2.3135,-2.3135,-2.3135,-2.3135,-2.3135,-2.3135,-2.3135,-2.3135,-2.3135,-2.3135,-2.3135,-2.3271,-2.3711,-2.3496,-2.3389,-2.3779,-2.3887,-2.4033,-2.4365,-2.4785,-2.5764,-2.7474,-2.7366,-2.75,-2.8282,-2.8842,-2.9438,-2.9965,-3.1932,-3.2842,-3.2328,-3.0519,-2.9296,-2.8668,-2.6486,-2.5317,-2.5127,-2.4736,-2.4736,-2.5127,-2.5127,-2.5342,-2.5742,-2.5742,-2.5742,-2.5742,-2.5781,-2.626,-2.708,-2.7939,-2.8291,-2.8291,-2.8291,-2.8291,-2.8291,-2.8291,-2.8291,-2.8564,-1.7725,-1.7387,-1.7174,-1.7001,-1.7308,-1.7582,-1.7582,-1.7582,-1.7786,-1.8297,-1.8401,-1.9027,-2.0704,-2.0205,-1.9435,-1.8786,-2.0366,-2.182,-2.2885,-2.4716,-2.5742,-2.5742,-2.5742,-2.5742,-2.5742,-2.5742,-2.5518,-2.5068,-2.4629,-2.4199,-2.3789,-2.3613,-2.3662,-2.3916,-2.4092,-2.417,-2.4199,-2.4629,-2.4912,-2.5088,-2.5361,-2.5576,-2.5742,-2.5742,-2.5742,-2.5742,-2.5742,-2.5742,-2.5674,-2.5215,-2.4668,-2.4092,-2.3662,-2.335,-2.3135,-2.3135,-2.3135,-2.3135,-2.3135,-2.3135,-2.3135,-2.3135,-2.3135,-2.3135,-2.3135,-2.3135,-2.3135,-2.3135,-2.3135,-2.3193,-2.3369,-2.3467,-2.3496,-2.3408,-2.3623,-2.3848,-2.4014,-2.4404,-2.5292,-2.7024,-2.7001,-2.735,-2.831,-2.8656,-2.9106,-2.9725,-3.1184,-3.1855,-3.1636,-3.0012,-2.8754,-2.8028,-2.5847,-2.4805,-2.5068,-2.4639,-2.4502,-2.4678,-2.4941,-2.5166,-2.5352,-2.5615,-2.5742,-2.5752,-2.6016,-2.6465,-2.706,-2.7666,-2.8066,-2.8291,-2.8291,-2.8291,-2.8291,-2.8291,-2.8291,-2.866,-1.7378,-1.7137,-1.7168,-1.7154,-1.7388,-1.7582,-1.7582,-1.7582,-1.7582,-1.7582,-1.7582,-1.8115,-1.939,-1.8325,-1.7962,-1.8697,-2.0711,-2.2391,-2.371,-2.503,-2.5742,-2.5742,-2.5742,-2.5742,-2.5742,-2.5742,-2.5586,-2.5264,-2.4824,-2.4453,-2.416,-2.4033,-2.4131,-2.4424,-2.4551,-2.4609,-2.4639,-2.5078,-2.5264,-2.5293,-2.5605,-2.5742,-2.5742,-2.5742,-2.5742,-2.5742,-2.5742,-2.5742,-2.5684,-2.5371,-2.4971,-2.4512,-2.3965,-2.3486,-2.3135,-2.3135,-2.3135,-2.3135,-2.3135,-2.3135,-2.3135,-2.3135,-2.3135,-2.3135,-2.3135,-2.3135,-2.3135,-2.3135,-2.3135,-2.3135,-2.3135,-2.3389,-2.3496,-2.3184,-2.3506,-2.3838,-2.3955,-2.4228,-2.4941,-2.6197,-2.6105,-2.6305,-2.7277,-2.7366,-2.7657,-2.851,-2.9282,-2.9973,-3.0533,-2.9424,-2.8263,-2.697,-2.5177,-2.4385,-2.4687,-2.4258,-2.4102,-2.4238,-2.4668,-2.4941,-2.5088,-2.5527,-2.5742,-2.5762,-2.6201,-2.6631,-2.7051,-2.749,-2.791,-2.8291,-2.8291,-2.8291,-2.8291,-2.8291,-2.8291,-2.8747,-1.8518,-1.8076,-1.7482,-1.7201,-1.7388,-1.7582,-1.7582,-1.7582,-1.7582,-1.7582,-1.7582,-1.7582,-1.7582,-1.7582,-1.8688,-2.1378,-2.4101,-2.5594,-2.5647,-2.5683,-2.5742,-2.5742,-2.5742,-2.5742,-2.5742,-2.5742,-2.5742,-2.5732,-2.5283,-2.5059,-2.5039,-2.4609,-2.4414,-2.4434,-2.4863,-2.5059,-2.5088,-2.5537,-2.5732,-2.5732,-2.5742,-2.5742,-2.5742,-2.5742,-2.5742,-2.5742,-2.5742,-2.5742,-2.5742,-2.5732,-2.543,-2.4912,-2.4053,-2.3486,-2.3135,-2.3135,-2.3135,-2.3135,-2.3135,-2.3135,-2.3135,-2.3135,-2.3135,-2.3135,-2.3135,-2.3135,-2.3135,-2.3135,-2.3135,-2.3135,-2.3135,-2.3144,-2.3144,-2.3135,-2.3506,-2.3935,-2.4346,-2.4414,-2.458,-2.501,-2.4316,-2.3809,-2.3898,-2.3898,-2.4395,-2.5567,-2.6098,-2.7108,-2.8846,-2.885,-2.78,-2.5466,-2.4405,-2.3799,-2.3809,-2.3379,-2.3369,-2.3799,-2.4228,-2.4648,-2.5088,-2.5527,-2.5742,-2.5762,-2.6201,-2.6631,-2.7051,-2.749,-2.791,-2.8291,-2.8291,-2.8291,-2.8291,-2.8291,-2.8291,-2.8698,-1.7197,-1.7184,-1.7255,-1.7161,-1.7388,-1.7582,-1.7582,-1.7582,-1.7582,-1.7582,-1.7582,-1.7582,-1.7582,-1.7582,-1.9457,-2.399,-2.5246,-2.5738,-2.5693,-2.5684,-2.5742,-2.5742,-2.5742,-2.5742,-2.5742,-2.5742,-2.5742,-2.5742,-2.5283,-2.5068,-2.5059,-2.4922,-2.5019,-2.5322,-2.5459,-2.5527,-2.5527,-2.5674,-2.5742,-2.5742,-2.5742,-2.5742,-2.5742,-2.5742,-2.5742,-2.5742,-2.5742,-2.5742,-2.5742,-2.5742,-2.5439,-2.5019,-2.4746,-2.4355,-2.3955,-2.3672,-2.3584,-2.3516,-2.3223,-2.3135,-2.3135,-2.3135,-2.3135,-2.3135,-2.3135,-2.3135,-2.3135,-2.3135,-2.3135,-2.3135,-2.3135,-2.3135,-2.3135,-2.3135,-2.3262,-2.3496,-2.3935,-2.3984,-2.415,-2.457,-2.4131,-2.3789,-2.3789,-2.3789,-2.4217,-2.5413,-2.5999,-2.6544,-2.7086,-2.6802,-2.602,-2.4736,-2.3821,-2.3486,-2.3789,-2.3359,-2.3213,-2.3359,-2.4072,-2.4805,-2.5527,-2.5674,-2.5742,-2.5742,-2.5889,-2.6348,-2.7021,-2.7168,-2.7646,-2.8291,-2.8291,-2.8291,-2.8388,-2.9303,-2.9608,-3.0016,-1.6623,-1.6907,-1.7315,-1.7315,-1.7462,-1.7582,-1.7582,-1.7582,-1.7582,-1.7582,-1.7582,-1.7582,-1.7582,-1.7582,-1.9352,-2.3759,-2.4221,-2.4601,-2.5604,-2.5185,-2.5128,-2.5635,-2.5742,-2.5742,-2.5742,-2.5742,-2.5742,-2.5742,-2.5459,-2.5322,-2.5322,-2.5322,-2.5469,-2.5742,-2.5742,-2.5742,-2.5742,-2.5742,-2.5742,-2.5742,-2.5742,-2.5742,-2.5742,-2.5742,-2.5742,-2.5742,-2.5742,-2.5742,-2.5742,-2.5742,-2.5557,-2.5322,-2.5322,-2.5127,-2.4795,-2.4199,-2.3916,-2.373,-2.3457,-2.3262,-2.3135,-2.3135,-2.3135,-2.3135,-2.3135,-2.3135,-2.3135,-2.3135,-2.3135,-2.296,-2.2492,-2.2775,-2.296,-2.2492,-2.3044,-2.3662,-2.3769,-2.3926,-2.4062,-2.417,-2.3809,-2.3545,-2.3545,-2.3545,-2.3801,-2.4476,-2.4907,-2.5149,-2.5149,-2.5455,-2.5104,-2.3935,-2.3418,-2.3271,-2.3545,-2.3271,-2.3223,-2.3389,-2.4258,-2.5039,-2.5742,-2.5742,-2.5742,-2.5742,-2.5742,-2.6221,-2.7012,-2.7012,-2.7519,-2.8291,-2.8291,-2.8591,-2.9102,-3.0016,-3.0618,-3.1327,-1.67,-1.7161,-1.7555,-1.7582,-1.7582,-1.7582,-1.7582,-1.7582,-1.7582,-1.7582,-1.7582,-1.7582,-1.7582,-1.7582,-1.8583,-2.1155,-2.137,-2.2605,-2.5291,-2.4235,-2.4097,-2.5333,-2.5528,-2.5538,-2.5538,-2.5635,-2.5742,-2.5742,-2.5742,-2.5742,-2.5742,-2.5742,-2.5742,-2.5742,-2.5742,-2.5742,-2.5742,-2.5742,-2.5742,-2.5742,-2.5742,-2.5742,-2.5742,-2.5742,-2.5742,-2.5742,-2.5742,-2.5742,-2.5742,-2.5742,-2.5742,-2.5742,-2.5742,-2.5742,-2.5576,-2.4707,-2.416,-2.3828,-2.3799,-2.3467,-2.3135,-2.3135,-2.3135,-2.3135,-2.3135,-2.3135,-2.3135,-2.3135,-2.3047,-2.2589,-2.148,-2.2217,-2.2589,-2.148,-2.2975,-2.4228,-2.3809,-2.4111,-2.4219,-2.3799,-2.3389,-2.3135,-2.3135,-2.3135,-2.3154,-2.3184,-2.3154,-2.3154,-2.3184,-2.463,-2.4728,-2.3154,-2.3135,-2.3135,-2.3135,-2.3135,-2.3379,-2.3838,-2.4678,-2.5303,-2.5742,-2.5742,-2.5742,-2.5742,-2.5742,-2.6211,-2.6973,-2.7002,-2.75,-2.8252,-2.8281,-2.9112,-3.0214,-3.0421,-3.1224,-3.2543,-1.666,-1.6987,-1.7204,-1.7542,-1.7582,-1.7582,-1.7582,-1.7582,-1.7582,-1.7582,-1.7582,-1.7582,-1.7582,-1.7582,-1.7911,-1.8471,-1.854,-1.9728,-2.2434,-2.2391,-2.2357,-2.2667,-2.3583,-2.4196,-2.4196,-2.5226,-2.5742,-2.5742,-2.5742,-2.5742,-2.5742,-2.5742,-2.5742,-2.5742,-2.5742,-2.5742,-2.5742,-2.5742,-2.5742,-2.5742,-2.5742,-2.5742,-2.5742,-2.5742,-2.5742,-2.5742,-2.5742,-2.5742,-2.5742,-2.5742,-2.5742,-2.5742,-2.5742,-2.5742,-2.5635,-2.5078,-2.4609,-2.4199,-2.3877,-2.3467,-2.3135,-2.3135,-2.3135,-2.3135,-2.3135,-2.3135,-2.3135,-2.3135,-2.2403,-2.1658,-2.1382,-2.1569,-2.1658,-2.1382,-2.2839,-2.3789,-2.335,-2.3672,-2.3779,-2.335,-2.3203,-2.3135,-2.3135,-2.3135,-2.3271,-2.3613,-2.333,-2.3291,-2.3623,-2.3663,-2.3495,-2.3144,-2.3135,-2.3135,-2.3135,-2.3135,-2.3516,-2.4277,-2.4814,-2.5303,-2.5742,-2.5742,-2.5742,-2.5742,-2.5742,-2.6045,-2.6562,-2.6885,-2.7334,-2.7851,-2.8164,-2.8495,-2.8996,-3.1019,-3.2028,-3.2632,-1.6647,-1.6826,-1.7001,-1.7528,-1.7582,-1.7582,-1.7582,-1.7582,-1.7582,-1.7582,-1.7582,-1.7582,-1.7582,-1.7582,-1.7582,-1.7582,-1.7593,-1.8601,-2.0885,-2.0861,-2.1347,-2.2567,-2.3276,-2.3998,-2.4609,-2.5333,-2.5742,-2.5742,-2.5742,-2.5742,-2.5742,-2.5742,-2.5742,-2.5742,-2.5742,-2.5742,-2.5742,-2.5742,-2.5742,-2.5742,-2.5742,-2.5742,-2.5742,-2.5742,-2.5742,-2.5742,-2.5742,-2.5742,-2.5742,-2.5742,-2.5742,-2.5742,-2.5742,-2.5742,-2.5684,-2.5449,-2.4922,-2.4365,-2.4141,-2.3623,-2.3135,-2.3135,-2.3135,-2.3135,-2.3135,-2.3135,-2.295,-2.2403,-2.1756,-2.0935,-1.9852,-2.0576,-2.1114,-2.0576,-2.2385,-2.3633,-2.3203,-2.3516,-2.3633,-2.3193,-2.3135,-2.3135,-2.3135,-2.3135,-2.3242,-2.3477,-2.3271,-2.3242,-2.3486,-2.3271,-2.3135,-2.3135,-2.3135,-2.3135,-2.3135,-2.3525,-2.3955,-2.4424,-2.5068,-2.5508,-2.5742,-2.5742,-2.5742,-2.5742,-2.5742,-2.5986,-2.6426,-2.6846,-2.7275,-2.7705,-2.8125,-2.8698,-2.9408,-3.0824,-3.214,-3.3353,-1.6421,-1.6671,-1.6839,-1.7515,-1.7582,-1.7582,-1.7582,-1.7582,-1.7582,-1.7582,-1.7582,-1.7582,-1.7582,-1.7582,-1.7582,-1.7582,-1.7582,-1.822,-1.9821,-1.9561,-2.0436,-2.2976,-2.3276,-2.3998,-2.5333,-2.5635,-2.5742,-2.5742,-2.5742,-2.5742,-2.5742,-2.5742,-2.5742,-2.5742,-2.5742,-2.5742,-2.5742,-2.5742,-2.5742,-2.5742,-2.5742,-2.5742,-2.5742,-2.5742,-2.5742,-2.5742,-2.5742,-2.5742,-2.5742,-2.5742,-2.5742,-2.5742,-2.5742,-2.5742,-2.5742,-2.5742,-2.5156,-2.4502,-2.4434,-2.3789,-2.3135,-2.3135,-2.3135,-2.3135,-2.3135,-2.3135,-2.2765,-2.1569,-2.1203,-2.0305,-1.8141,-1.9446,-2.0572,-1.9754,-2.1835,-2.3541,-2.3203,-2.3555,-2.3633,-2.3193,-2.3135,-2.3135,-2.3135,-2.3135,-2.3135,-2.3135,-2.3135,-2.3135,-2.3135,-2.3135,-2.3135,-2.3135,-2.3135,-2.3164,-2.3232,-2.4092,-2.4521,-2.4521,-2.5352,-2.5742,-2.5742,-2.5742,-2.5742,-2.5742,-2.5742,-2.5947,-2.6328,-2.6816,-2.7236,-2.7617,-2.8105,-2.9006,-3.0016,-3.0214,-3.1746,-3.3674,-1.5924,-1.64,-1.6934,-1.7488,-1.7582,-1.7582,-1.7582,-1.7582,-1.7582,-1.7582,-1.7582,-1.7582,-1.7582,-1.7582,-1.7582,-1.7582,-1.7582,-1.7687,-1.801,-1.7996,-1.8603,-2.0135,-2.1347,-2.2667,-2.3989,-2.5118,-2.5742,-2.5742,-2.5742,-2.5742,-2.5742,-2.5742,-2.5742,-2.5742,-2.5742,-2.5742,-2.5742,-2.5742,-2.5742,-2.5742,-2.5742,-2.5742,-2.5742,-2.5742,-2.5742,-2.5742,-2.5742,-2.5742,-2.5742,-2.5742,-2.5742,-2.5742,-2.5742,-2.5742,-2.5742,-2.5742,-2.5371,-2.4883,-2.4521,-2.3789,-2.3135,-2.3135,-2.3135,-2.3135,-2.3135,-2.3135,-2.2765,-2.1569,-2.0486,-1.9314,-1.7963,-1.8183,-1.8926,-1.9849,-2.1488,-2.2852,-2.3561,-2.375,-2.3633,-2.3193,-2.3135,-2.3135,-2.3135,-2.3135,-2.3135,-2.3135,-2.3135,-2.3135,-2.3135,-2.3135,-2.3135,-2.3135,-2.3135,-2.332,-2.3682,-2.4541,-2.4971,-2.4971,-2.5488,-2.5742,-2.5742,-2.5742,-2.5742,-2.5742,-2.5742,-2.5771,-2.5898,-2.6689,-2.7051,-2.7197,-2.7988,-2.8398,-2.8698,-2.9911,-3.0525,-3.103,-1.5829,-1.6289,-1.678,-1.7048,-1.6846,-1.6821,-1.7459,-1.76,-1.7582,-1.7582,-1.7582,-1.7582,-1.7582,-1.7582,-1.7582,-1.7582,-1.7582,-1.7582,-1.7582,-1.8304,-1.9317,-2.0641,-2.2055,-2.3384,-2.4716,-2.543,-2.5742,-2.5742,-2.5742,-2.5742,-2.5742,-2.5742,-2.5742,-2.5742,-2.5742,-2.5742,-2.5742,-2.5742,-2.5742,-2.5742,-2.5742,-2.5742,-2.5742,-2.5742,-2.5742,-2.5742,-2.5742,-2.5742,-2.5742,-2.5742,-2.5742,-2.5742,-2.5742,-2.5742,-2.5742,-2.5742,-2.5254,-2.4629,-2.4199,-2.3623,-2.3135,-2.3135,-2.3135,-2.3135,-2.3135,-2.2589,-2.1756,-2.0576,-1.9405,-1.8133,-1.6943,-1.7341,-1.8097,-1.873,-2.0533,-2.198,-2.2438,-2.2974,-2.3359,-2.3164,-2.3135,-2.3135,-2.3135,-2.3135,-2.3135,-2.3135,-2.3135,-2.3135,-2.3135,-2.3135,-2.3135,-2.3135,-2.3135,-2.335,-2.3789,-2.4404,-2.4834,-2.5068,-2.5527,-2.5742,-2.5742,-2.5742,-2.5742,-2.5742,-2.5742,-2.5742,-2.5801,-2.666,-2.7012,-2.71,-2.7959,-2.8291,-2.8398,-2.8996,-2.9713,-3.0317,-1.5778,-1.6222,-1.667,-1.6667,-1.6263,-1.6272,-1.7258,-1.7509,-1.76,-1.7575,-1.7582,-1.7582,-1.7582,-1.7582,-1.7582,-1.7582,-1.7582,-1.7582,-1.7582,-1.9117,-2.0538,-2.1643,-2.3276,-2.4609,-2.5635,-2.5742,-2.5742,-2.5742,-2.5742,-2.5742,-2.5742,-2.5742,-2.5742,-2.5742,-2.5742,-2.5742,-2.5742,-2.5742,-2.5742,-2.5742,-2.5742,-2.5742,-2.5742,-2.5742,-2.5742,-2.5742,-2.5742,-2.5742,-2.5742,-2.5742,-2.5742,-2.5742,-2.5742,-2.5742,-2.5742,-2.5742,-2.5107,-2.4346,-2.4023,-2.3545,-2.3135,-2.3135,-2.3135,-2.3135,-2.3135,-2.2208,-2.0935,-1.9761,-1.8503,-1.7318,-1.6015,-1.663,-1.7522,-1.7804,-1.9345,-2.0698,-2.0978,-2.1998,-2.2677,-2.2677,-2.296,-2.3135,-2.3135,-2.3135,-2.3135,-2.3135,-2.3135,-2.3135,-2.3135,-2.3135,-2.3135,-2.3135,-2.3242,-2.3496,-2.3935,-2.4355,-2.4785,-2.5225,-2.5566,-2.5742,-2.5742,-2.5742,-2.5742,-2.5742,-2.5742,-2.5791,-2.5947,-2.6699,-2.707,-2.7246,-2.7998,-2.8291,-2.8291,-2.8291,-2.9006,-2.9713,-1.5778,-1.6162,-1.638,-1.6427,-1.6493,-1.662,-1.674,-1.7252,-1.7633,-1.7647,-1.7582,-1.7582,-1.7582,-1.7582,-1.7582,-1.7582,-1.7582,-1.7582,-1.7582,-2.0128,-2.155,-2.1752,-2.4196,-2.5635,-2.5742,-2.5742,-2.5742,-2.5742,-2.5742,-2.5742,-2.5742,-2.5742,-2.5742,-2.5742,-2.5742,-2.5742,-2.5742,-2.5742,-2.5742,-2.5742,-2.5742,-2.5742,-2.5742,-2.5742,-2.5742,-2.5742,-2.5742,-2.5742,-2.5742,-2.5742,-2.5742,-2.5742,-2.5742,-2.5742,-2.5742,-2.5742,-2.5107,-2.4414,-2.4375,-2.3769,-2.3135,-2.3135,-2.3135,-2.3135,-2.3135,-2.2208,-2.0935,-1.9761,-1.8503,-1.7318,-1.6015,-1.6148,-1.6808,-1.8037,-1.8323,-1.8783,-1.9984,-2.0884,-2.1382,-2.1382,-2.2403,-2.3135,-2.3135,-2.3135,-2.3135,-2.3135,-2.3135,-2.3135,-2.3135,-2.3135,-2.3135,-2.3135,-2.3525,-2.3945,-2.4365,-2.4805,-2.5244,-2.5684,-2.5723,-2.5742,-2.5742,-2.5742,-2.5742,-2.5742,-2.5742,-2.5967,-2.6377,-2.6826,-2.7256,-2.7666,-2.8115,-2.8291,-2.8291,-2.8291,-2.8398,-2.8398,-1.5767,-1.5896,-1.6032,-1.6036,-1.6056,-1.6226,-1.6406,-1.6718,-1.6887,-1.6879,-1.7041,-1.715,-1.6919,-1.6925,-1.7041,-1.7041,-1.7041,-1.7517,-1.8511,-2.0318,-2.221,-2.4088,-2.5128,-2.5742,-2.5742,-2.5742,-2.5742,-2.5742,-2.5742,-2.5742,-2.5742,-2.5742,-2.5742,-2.5742,-2.5742,-2.5742,-2.5742,-2.5742,-2.5742,-2.5742,-2.5742,-2.5742,-2.5742,-2.5742,-2.5742,-2.5742,-2.5742,-2.5742,-2.5742,-2.5742,-2.5742,-2.5742,-2.5742,-2.5742,-2.5742,-2.5742,-2.5107,-2.4414,-2.4414,-2.3789,-2.3135,-2.3135,-2.258,-2.1943,-2.1943,-2.0486,-1.8956,-1.8503,-1.7404,-1.6386,-1.592,-1.5919,-1.6184,-1.6647,-1.7407,-1.8059,-1.8512,-1.9487,-2.0486,-2.1203,-2.1033,-2.1132,-2.1933,-2.1943,-2.1943,-2.1943,-2.2677,-2.3135,-2.3135,-2.3135,-2.3135,-2.3135,-2.3301,-2.3721,-2.4414,-2.458,-2.5019,-2.5742,-2.5742,-2.5742,-2.5742,-2.5742,-2.5742,-2.5742,-2.5742,-2.5986,-2.6426,-2.6846,-2.7275,-2.7705,-2.8125,-2.8291,-2.8291,-2.8291,-2.8291,-2.8291,-1.5832,-1.5832,-1.5832,-1.5832,-1.5832,-1.5899,-1.6106,-1.6139,-1.6233,-1.6196,-1.6567,-1.672,-1.6467,-1.6593,-1.6707,-1.6707,-1.6794,-1.7326,-1.8535,-2.0324,-2.2687,-2.5528,-2.5742,-2.5742,-2.5742,-2.5742,-2.5742,-2.5742,-2.5742,-2.5742,-2.5742,-2.5742,-2.5742,-2.5742,-2.5742,-2.5742,-2.5742,-2.5742,-2.5742,-2.5742,-2.5742,-2.5742,-2.5742,-2.5742,-2.5742,-2.5742,-2.5742,-2.5742,-2.5742,-2.5742,-2.5742,-2.5742,-2.5742,-2.5742,-2.5713,-2.5566,-2.5,-2.4385,-2.4258,-2.3691,-2.3135,-2.3135,-2.2208,-2.1293,-2.1293,-1.9397,-1.7692,-1.7692,-1.6669,-1.5832,-1.5832,-1.5832,-1.5832,-1.5832,-1.6574,-1.7131,-1.7131,-1.8133,-1.9222,-2.0034,-1.9761,-1.9852,-2.0657,-2.0747,-2.0747,-2.0747,-2.1533,-2.2133,-2.2475,-2.2911,-2.3135,-2.3135,-2.3135,-2.3555,-2.4414,-2.4414,-2.4863,-2.5742,-2.5742,-2.5742,-2.5742,-2.5742,-2.5742,-2.5742,-2.5742,-2.6064,-2.6602,-2.6894,-2.7353,-2.7891,-2.8174,-2.8291,-2.8291,-2.8291,-2.8291,-2.8291,-1.5832,-1.5832,-1.5832,-1.5832,-1.5832,-1.5832,-1.5832,-1.5832,-1.583,-1.5791,-1.6155,-1.638,-1.6434,-1.6587,-1.67,-1.67,-1.6974,-1.7244,-1.725,-2.0046,-2.2876,-2.5538,-2.5742,-2.5742,-2.5742,-2.5742,-2.5742,-2.5742,-2.5742,-2.5742,-2.5742,-2.5742,-2.5742,-2.5742,-2.5742,-2.5742,-2.5742,-2.5742,-2.5742,-2.5742,-2.5742,-2.5742,-2.5742,-2.5742,-2.5742,-2.5742,-2.5645,-2.5732,-2.5742,-2.5645,-2.5732,-2.5742,-2.5742,-2.5742,-2.5644,-2.5205,-2.4756,-2.4326,-2.3906,-2.3467,-2.3135,-2.3057,-2.2217,-2.1293,-2.1293,-1.9397,-1.7692,-1.7692,-1.6669,-1.5832,-1.5832,-1.5832,-1.5832,-1.5832,-1.5832,-1.5832,-1.5832,-1.685,-1.7684,-1.7692,-1.8772,-1.9488,-1.9497,-1.9497,-1.9497,-1.9497,-1.9529,-2.0047,-2.1231,-2.2456,-2.3047,-2.3135,-2.3135,-2.3555,-2.4414,-2.4414,-2.4863,-2.5742,-2.5742,-2.5742,-2.5742,-2.5742,-2.5742,-2.5742,-2.5742,-2.6221,-2.7012,-2.7012,-2.7519,-2.8291,-2.8291,-2.8291,-2.8291,-2.8291,-2.8291,-2.8291,-1.5832,-1.5832,-1.5832,-1.5832,-1.5832,-1.5832,-1.5832,-1.5832,-1.5763,-1.5836,-1.5863,-1.5992,-1.5976,-1.5989,-1.6172,-1.6386,-1.6486,-1.7584,-1.9891,-2.1953,-2.389,-2.5635,-2.5742,-2.5742,-2.5742,-2.5742,-2.5742,-2.5742,-2.5742,-2.5742,-2.5742,-2.5742,-2.5742,-2.5742,-2.5742,-2.5742,-2.5742,-2.5742,-2.5742,-2.5742,-2.5742,-2.5742,-2.5742,-2.5742,-2.5742,-2.5538,-2.4609,-2.4913,-2.5538,-2.4609,-2.4913,-2.5742,-2.5742,-2.5742,-2.5644,-2.5205,-2.4756,-2.4326,-2.3906,-2.3467,-2.2862,-2.2031,-2.0935,-1.9852,-1.8956,-1.749,-1.6386,-1.6386,-1.6015,-1.5832,-1.5832,-1.5832,-1.5832,-1.5832,-1.5832,-1.5832,-1.5832,-1.6109,-1.6669,-1.7591,-1.7217,-1.721,-1.8141,-1.8234,-1.8234,-1.8234,-1.8999,-2.0078,-2.124,-2.1655,-2.2224,-2.3047,-2.3135,-2.3555,-2.4414,-2.4414,-2.4863,-2.5742,-2.5742,-2.5742,-2.5742,-2.5742,-2.5742,-2.5742,-2.5742,-2.6221,-2.7012,-2.7012,-2.7519,-2.8291,-2.8291,-2.8291,-2.8291,-2.8291,-2.8291,-2.8291,-1.5832,-1.5832,-1.5832,-1.5832,-1.5832,-1.5832,-1.5832,-1.5832,-1.5832,-1.5832,-1.5832,-1.5832,-1.5832,-1.5932,-1.6032,-1.6092,-1.6206,-1.7478,-2.0273,-2.181,-2.3422,-2.4805,-2.543,-2.5742,-2.5742,-2.5742,-2.5742,-2.5742,-2.5742,-2.5742,-2.5742,-2.5742,-2.5742,-2.5742,-2.5742,-2.5742,-2.5742,-2.5742,-2.5742,-2.5742,-2.5742,-2.5742,-2.5742,-2.5742,-2.5742,-2.5635,-2.4815,-2.502,-2.5538,-2.4716,-2.502,-2.5742,-2.5742,-2.5742,-2.5644,-2.5205,-2.4756,-2.4326,-2.3906,-2.3467,-2.2687,-2.1033,-2.0034,-1.9222,-1.7963,-1.6662,-1.5832,-1.5832,-1.5832,-1.5832,-1.5832,-1.5832,-1.5832,-1.5832,-1.5832,-1.5832,-1.5832,-1.5832,-1.6109,-1.685,-1.6292,-1.6109,-1.685,-1.6943,-1.6943,-1.6943,-1.8109,-1.9338,-2.0482,-2.1033,-2.1831,-2.3047,-2.3135,-2.3555,-2.4414,-2.4414,-2.4863,-2.5742,-2.5742,-2.5742,-2.5742,-2.5742,-2.5742,-2.5742,-2.5742,-2.6221,-2.7012,-2.7012,-2.7519,-2.8291,-2.8291,-2.8291,-2.8291,-2.8291,-2.8291,-2.8291,-1.5832,-1.5832,-1.5832,-1.5832,-1.5832,-1.5832,-1.5832,-1.5832,-1.5832,-1.5832,-1.5832,-1.5838,-1.5865,-1.6112,-1.6172,-1.5925,-1.6152,-1.714,-1.9149,-2.0404,-2.1914,-2.3511,-2.4963,-2.5674,-2.5674,-2.5713,-2.5742,-2.5742,-2.5742,-2.5742,-2.5742,-2.5742,-2.5742,-2.5742,-2.5742,-2.5742,-2.5742,-2.5742,-2.5742,-2.5742,-2.5742,-2.5742,-2.5742,-2.5742,-2.5742,-2.5635,-2.5538,-2.5635,-2.5742,-2.5742,-2.5742,-2.5742,-2.5742,-2.5742,-2.5644,-2.5156,-2.4727,-2.4316,-2.3857,-2.3349,-2.2403,-2.0042,-1.9405,-1.9039,-1.7777,-1.6669,-1.5832,-1.5832,-1.5832,-1.5832,-1.5832,-1.5832,-1.5832,-1.5832,-1.5832,-1.5832,-1.5832,-1.5832,-1.5832,-1.5832,-1.5832,-1.5832,-1.5832,-1.5832,-1.5832,-1.5832,-1.6911,-1.8052,-1.9255,-2.0374,-2.1562,-2.2882,-2.296,-2.3367,-2.4414,-2.4414,-2.4863,-2.5742,-2.5742,-2.5742,-2.5742,-2.5742,-2.5742,-2.5742,-2.5742,-2.6221,-2.7012,-2.7012,-2.7519,-2.8291,-2.8291,-2.8291,-2.8291,-2.8291,-2.8291,-2.8291,-1.5832,-1.5832,-1.5832,-1.5832,-1.5832,-1.5832,-1.5832,-1.5832,-1.5832,-1.5832,-1.5832,-1.5919,-1.6152,-1.6239,-1.6339,-1.65,-1.6573,-1.7452,-1.9375,-2.0317,-2.1434,-2.3107,-2.4516,-2.5215,-2.5215,-2.5557,-2.5742,-2.5742,-2.5742,-2.5742,-2.5742,-2.5742,-2.5742,-2.5742,-2.5742,-2.5742,-2.5742,-2.5742,-2.5742,-2.5742,-2.5742,-2.5742,-2.5742,-2.5742,-2.5742,-2.5538,-2.451,-2.4815,-2.5742,-2.5742,-2.5742,-2.5742,-2.5742,-2.5742,-2.5586,-2.4785,-2.4492,-2.4248,-2.3486,-2.247,-2.1302,-1.9852,-1.8772,-1.777,-1.648,-1.6015,-1.5832,-1.5832,-1.5832,-1.5832,-1.5832,-1.5832,-1.5832,-1.5832,-1.5832,-1.5832,-1.5832,-1.5832,-1.5832,-1.5832,-1.5832,-1.5832,-1.5832,-1.5832,-1.5832,-1.5832,-1.6048,-1.6767,-1.7988,-1.8365,-1.948,-2.158,-2.1695,-2.2513,-2.4404,-2.4414,-2.4863,-2.5742,-2.5742,-2.5742,-2.5742,-2.5742,-2.5742,-2.5742,-2.5742,-2.6221,-2.7012,-2.7012,-2.7519,-2.8291,-2.8291,-2.8291,-2.8291,-2.8291,-2.8291,-2.8291,-1.5832,-1.5832,-1.5832,-1.5832,-1.5832,-1.5832,-1.5832,-1.5832,-1.5832,-1.5832,-1.5832,-1.5885,-1.6046,-1.6186,-1.6333,-1.6486,-1.6373,-1.6823,-1.8122,-1.9125,-2.0159,-2.1106,-2.2672,-2.3374,-2.3281,-2.3583,-2.4402,-2.5742,-2.502,-2.5118,-2.5645,-2.502,-2.5128,-2.5635,-2.502,-2.4716,-2.4815,-2.543,-2.5333,-2.4815,-2.543,-2.5742,-2.5742,-2.5742,-2.5742,-2.5635,-2.4922,-2.5118,-2.5742,-2.5742,-2.5226,-2.4815,-2.5528,-2.5226,-2.479,-2.4733,-2.458,-2.4084,-2.2886,-2.1913,-2.0845,-1.9139,-1.8141,-1.7412,-1.6109,-1.5832,-1.5832,-1.5832,-1.5832,-1.5832,-1.5832,-1.5832,-1.5832,-1.5832,-1.5832,-1.5832,-1.5832,-1.5832,-1.5832,-1.5832,-1.5832,-1.5832,-1.5832,-1.5832,-1.5832,-1.5832,-1.5832,-1.6333,-1.7646,-1.7707,-1.884,-2.1266,-2.1518,-2.2537,-2.4404,-2.4619,-2.5068,-2.5742,-2.5742,-2.5742,-2.5742,-2.5742,-2.5742,-2.5742,-2.5742,-2.6221,-2.7012,-2.7012,-2.7519,-2.8291,-2.8291,-2.8291,-2.8291,-2.8291,-2.8291,-2.8291,-1.5832,-1.5832,-1.5832,-1.5832,-1.5832,-1.5832,-1.5832,-1.5832,-1.5832,-1.5832,-1.5832,-1.5845,-1.5899,-1.6126,-1.6293,-1.6339,-1.6025,-1.6079,-1.6667,-1.7923,-1.8716,-1.9052,-2.0668,-2.1387,-2.1114,-2.1528,-2.2767,-2.502,-2.4097,-2.4304,-2.5323,-2.4402,-2.4501,-2.5333,-2.4205,-2.3583,-2.3384,-2.451,-2.451,-2.3791,-2.4922,-2.5528,-2.5742,-2.5742,-2.5742,-2.5742,-2.5742,-2.5742,-2.5635,-2.543,-2.4609,-2.389,-2.502,-2.4412,-2.3592,-2.4708,-2.4407,-2.3447,-2.2227,-2.1292,-2.0215,-1.8234,-1.7505,-1.7131,-1.6015,-1.5832,-1.5832,-1.5832,-1.5832,-1.5832,-1.5832,-1.5832,-1.5832,-1.5832,-1.5832,-1.5832,-1.5832,-1.5832,-1.5832,-1.5832,-1.5832,-1.5832,-1.5832,-1.5832,-1.5832,-1.5832,-1.5832,-1.6298,-1.7318,-1.7412,-1.8495,-2.0935,-2.1425,-2.2575,-2.4414,-2.4853,-2.5293,-2.5742,-2.5742,-2.5742,-2.5742,-2.5742,-2.5742,-2.5742,-2.5742,-2.6221,-2.7012,-2.7012,-2.7519,-2.8291,-2.8291,-2.8291,-2.8291,-2.8291,-2.8291,-2.8291,-1.5832,-1.5832,-1.5832,-1.5832,-1.5832,-1.5832,-1.5832,-1.5832,-1.5832,-1.5832,-1.5832,-1.5925,-1.6186,-1.6246,-1.6373,-1.6627,-1.6146,-1.6079,-1.6667,-1.7624,-1.8282,-1.861,-2.0202,-2.1007,-2.0652,-2.1304,-2.1853,-2.2257,-2.3176,-2.3791,-2.3998,-2.502,-2.4922,-2.3989,-2.3791,-2.3076,-2.1954,-2.2156,-2.2767,-2.3692,-2.389,-2.4716,-2.5742,-2.5742,-2.5742,-2.5742,-2.5742,-2.5742,-2.5528,-2.4402,-2.389,-2.3692,-2.389,-2.3076,-2.2321,-2.3956,-2.2923,-2.1182,-2.1301,-1.9803,-1.8141,-1.7777,-1.685,-1.6015,-1.5825,-1.5832,-1.5832,-1.5832,-1.5832,-1.5832,-1.5832,-1.5832,-1.5832,-1.5832,-1.5832,-1.5832,-1.5832,-1.5832,-1.5832,-1.5832,-1.5832,-1.5832,-1.5832,-1.5832,-1.5832,-1.5832,-1.5832,-1.5927,-1.6015,-1.6015,-1.721,-1.967,-2.0113,-2.1613,-2.4404,-2.4853,-2.5293,-2.5742,-2.5742,-2.5742,-2.5742,-2.5742,-2.5742,-2.5742,-2.5742,-2.6221,-2.7012,-2.7012,-2.7519,-2.8291,-2.8291,-2.8291,-2.8291,-2.8291,-2.8291,-2.8291,-1.5832,-1.5832,-1.5832,-1.5832,-1.5832,-1.5832,-1.5832,-1.5832,-1.5832,-1.5832,-1.5832,-1.5879,-1.6012,-1.6025,-1.6079,-1.6206,-1.5979,-1.6005,-1.6433,-1.698,-1.7267,-1.7232,-1.8275,-1.8684,-1.8452,-1.8725,-1.9051,-1.9413,-2.2265,-2.3285,-2.2567,-2.3176,-2.3176,-2.2567,-2.1752,-2.1049,-2.0538,-2.1347,-2.155,-2.1558,-2.3076,-2.4097,-2.4609,-2.543,-2.5742,-2.5742,-2.5742,-2.5742,-2.5528,-2.4196,-2.3176,-2.2567,-2.2567,-2.1651,-2.0844,-2.2197,-2.1691,-2.0454,-1.9841,-1.8644,-1.7505,-1.685,-1.6197,-1.5832,-1.5832,-1.5832,-1.5832,-1.5832,-1.5832,-1.5832,-1.5832,-1.5832,-1.5832,-1.5832,-1.5832,-1.5832,-1.5832,-1.5832,-1.5832,-1.5832,-1.5832,-1.5832,-1.5832,-1.5832,-1.5832,-1.5832,-1.5832,-1.5832,-1.5832,-1.5832,-1.7008,-1.9785,-2.0235,-2.1846,-2.4775,-2.5215,-2.5537,-2.5742,-2.5742,-2.5742,-2.5742,-2.5742,-2.5742,-2.5752,-2.5996,-2.6318,-2.6699,-2.7178,-2.7607,-2.7969,-2.8203,-2.8291,-2.8291,-2.8291,-2.8291,-2.8291]}]]